Time,TemperatureF,DewpointF,PressureIn,WindDirection,WindDirectionDegrees,WindSpeedMPH,WindSpeedGustMPH,Humidity,HourlyPrecipIn,Conditions,Clouds,dailyrainin,SoftwareType,DateUTC
2013-03-27 00:00:00,32.9,28.1,30.16,NW,324,8.3,10.4,82,0.00,,,0.00,VWS V14.01,2013-03-27 04:00:00,
2013-03-27 00:01:00,33.2,26.9,30.15,WNW,297,10.9,12.9,78,0.00,,,0.00,VWS V14.01,2013-03-27 04:01:00,
2013-03-27 00:02:00,32.8,28.1,30.16,NW,308,9.0,11.7,82,0.00,,,0.00,VWS V14.01,2013-03-27 04:02:00,
2013-03-27 00:03:00,33.3,27.1,30.17,NW,323,12.3,12.9,78,0.00,,,0.00,VWS V14.01,2013-03-27 04:03:00,
2013-03-27 00:04:00,33.2,27.0,30.16,WNW,300,12.4,12.4,78,0.00,,,0.00,VWS V14.01,2013-03-27 04:04:00,
2013-03-27 00:05:00,33.2,27.0,30.20,NW,308,12.6,15.3,78,0.00,,,0.00,VWS V14.01,2013-03-27 04:05:00,
2013-03-27 00:06:00,33.2,28.5,30.15,NNW,342,12.6,12.6,83,0.00,,,0.00,VWS V14.01,2013-03-27 04:06:00,
2013-03-27 00:07:00,32.8,28.0,30.16,NW,305,8.3,12.1,82,0.00,,,0.00,VWS V14.01,2013-03-27 04:07:00,
2013-03-27 00:08:00,33.2,27.1,30.16,NW,305,16.0,16.0,78,0.00,,,0.00,VWS V14.01,2013-03-27 04:08:00,
2013-03-27 00:09:00,32.9,28.2,30.16,NW,311,10.4,10.4,82,0.00,,,0.00,VWS V14.01,2013-03-27 04:09:00,
2013-03-27 00:10:00,33.2,27.4,30.15,WNW,282,13.8,14.0,79,0.00,,,0.00,VWS V14.01,2013-03-27 04:10:00,
2013-03-27 00:11:00,32.9,28.3,30.17,NNW,328,11.2,11.2,83,0.00,,,0.00,VWS V14.01,2013-03-27 04:11:00,
2013-03-27 00:12:00,32.9,27.7,30.15,NW,324,11.6,14.5,81,0.00,,,0.00,VWS V14.01,2013-03-27 04:12:00,
2013-03-27 00:13:00,33.1,28.4,30.17,WNW,296,12.9,12.9,83,0.00,,,0.00,VWS V14.01,2013-03-27 04:13:00,
2013-03-27 00:14:00,33.0,28.3,30.17,WNW,298,11.2,12.9,82,0.00,,,0.00,VWS V14.01,2013-03-27 04:14:00,
2013-03-27 00:15:00,32.7,28.3,30.16,NNW,330,16.4,16.5,84,0.00,,,0.00,VWS V14.01,2013-03-27 04:15:00,
2013-03-27 00:16:00,33.0,28.2,30.16,NW,326,12.1,14.6,82,0.00,,,0.00,VWS V14.01,2013-03-27 04:16:00,
2013-03-27 00:17:00,32.5,28.6,30.15,NW,308,8.7,10.5,86,0.00,,,0.00,VWS V14.01,2013-03-27 04:17:00,
2013-03-27 00:18:00,32.9,28.1,30.16,NW,309,11.9,13.5,82,0.00,,,0.00,VWS V14.01,2013-03-27 04:18:00,
2013-03-27 00:19:00,33.1,28.4,30.16,NNW,327,12.9,12.9,83,0.00,,,0.00,VWS V14.01,2013-03-27 04:19:00,
2013-03-27 00:20:00,32.4,29.0,30.16,WNW,287,9.9,9.9,87,0.00,,,0.00,VWS V14.01,2013-03-27 04:20:00,
2013-03-27 00:21:00,32.6,29.2,30.16,NW,312,14.3,14.3,87,0.00,,,0.00,VWS V14.01,2013-03-27 04:21:00,
2013-03-27 00:22:00,33.0,27.5,30.16,NW,320,9.9,9.9,80,0.00,,,0.00,VWS V14.01,2013-03-27 04:22:00,
2013-03-27 00:23:00,32.5,29.2,30.15,NW,317,10.5,10.5,87,0.00,,,0.00,VWS V14.01,2013-03-27 04:23:00,
2013-03-27 00:24:00,33.0,28.5,30.16,WNW,298,8.8,9.7,83,0.00,,,0.00,VWS V14.01,2013-03-27 04:24:00,
2013-03-27 00:25:00,32.6,29.2,30.16,NW,318,9.5,10.5,87,0.00,,,0.00,VWS V14.01,2013-03-27 04:25:00,
2013-03-27 00:26:00,32.5,29.0,30.15,NW,321,9.7,9.9,87,0.00,,,0.00,VWS V14.01,2013-03-27 04:26:00,
2013-03-27 00:27:00,33.2,28.4,30.16,NW,318,13.3,13.3,83,0.00,,,0.00,VWS V14.01,2013-03-27 04:27:00,
2013-03-27 00:28:00,32.7,29.0,30.15,NW,320,10.7,12.8,86,0.00,,,0.00,VWS V14.01,2013-03-27 04:28:00,
2013-03-27 00:29:00,33.0,28.3,30.16,NNW,333,10.2,11.4,83,0.00,,,0.00,VWS V14.01,2013-03-27 04:29:00,
2013-03-27 00:30:00,32.9,28.2,30.16,NW,315,9.2,9.2,83,0.00,,,0.00,VWS V14.01,2013-03-27 04:30:00,
2013-03-27 00:31:00,32.9,29.1,30.15,NW,310,11.2,13.1,86,0.00,,,0.00,VWS V14.01,2013-03-27 04:31:00,
2013-03-27 00:33:00,32.8,28.7,30.16,NW,304,10.5,12.1,85,0.00,,,0.00,VWS V14.01,2013-03-27 04:33:00,
2013-03-27 00:34:00,33.1,28.4,30.16,NW,325,12.3,12.3,83,0.00,,,0.00,VWS V14.01,2013-03-27 04:34:00,
2013-03-27 00:35:00,32.7,28.5,30.16,NW,312,9.0,11.1,84,0.00,,,0.00,VWS V14.01,2013-03-27 04:35:00,
2013-03-27 00:36:00,33.3,27.5,30.16,NW,309,13.3,13.3,79,0.00,,,0.00,VWS V14.01,2013-03-27 04:36:00,
2013-03-27 00:37:00,32.8,28.5,30.16,NW,317,9.5,10.0,84,0.00,,,0.00,VWS V14.01,2013-03-27 04:37:00,
2013-03-27 00:38:00,32.7,28.4,30.16,NW,313,6.9,9.5,84,0.00,,,0.00,VWS V14.01,2013-03-27 04:38:00,
2013-03-27 00:39:00,32.8,28.6,30.15,NNW,337,8.7,8.7,84,0.00,,,0.00,VWS V14.01,2013-03-27 04:39:00,
2013-03-27 00:40:00,33.2,28.3,30.17,NNW,333,11.4,11.4,82,0.00,,,0.00,VWS V14.01,2013-03-27 04:40:00,
2013-03-27 00:41:00,33.3,28.4,30.16,NNW,337,14.0,14.0,82,0.00,,,0.00,VWS V14.01,2013-03-27 04:41:00,
2013-03-27 00:42:00,32.9,28.2,30.16,NNW,347,4.5,10.2,83,0.00,,,0.00,VWS V14.01,2013-03-27 04:42:00,
2013-03-27 00:43:00,33.0,28.1,30.15,NW,311,10.2,10.2,82,0.00,,,0.00,VWS V14.01,2013-03-27 04:43:00,
2013-03-27 00:44:00,33.0,28.3,30.16,NNW,337,13.1,13.1,82,0.00,,,0.00,VWS V14.01,2013-03-27 04:44:00,
2013-03-27 00:45:00,33.2,28.4,30.16,NW,313,10.0,10.0,82,0.00,,,0.00,VWS V14.01,2013-03-27 04:45:00,
2013-03-27 00:46:00,32.9,28.1,30.15,NNW,333,8.7,9.2,82,0.00,,,0.00,VWS V14.01,2013-03-27 04:46:00,
2013-03-27 00:47:00,33.2,28.4,30.16,NNW,330,10.5,10.7,82,0.00,,,0.00,VWS V14.01,2013-03-27 04:47:00,
2013-03-27 00:48:00,33.2,28.4,30.16,NNW,330,10.5,10.7,82,0.00,,,0.00,VWS V14.01,2013-03-27 04:48:00,
2013-03-27 00:49:00,33.1,28.2,30.17,NNW,327,13.1,13.5,82,0.00,,,0.00,VWS V14.01,2013-03-27 04:49:00,
2013-03-27 00:50:00,33.1,28.3,30.16,WNW,292,11.6,13.5,82,0.00,,,0.00,VWS V14.01,2013-03-27 04:50:00,
2013-03-27 00:51:00,32.9,28.0,30.16,NW,309,9.9,11.1,82,0.00,,,0.00,VWS V14.01,2013-03-27 04:51:00,
2013-03-27 00:52:00,33.0,28.2,30.15,WNW,303,10.4,10.4,82,0.00,,,0.00,VWS V14.01,2013-03-27 04:52:00,
2013-03-27 00:53:00,33.0,28.1,30.16,NW,316,9.3,10.7,82,0.00,,,0.00,VWS V14.01,2013-03-27 04:53:00,
2013-03-27 00:54:00,32.9,28.1,30.20,NW,311,10.0,10.4,82,0.00,,,0.00,VWS V14.01,2013-03-27 04:54:00,
2013-03-27 00:55:00,33.2,28.5,30.16,NNW,332,12.8,13.3,82,0.00,,,0.00,VWS V14.01,2013-03-27 04:55:00,
2013-03-27 00:56:00,32.9,28.0,30.16,NW,304,8.7,11.7,82,0.00,,,0.00,VWS V14.01,2013-03-27 04:56:00,
2013-03-27 00:57:00,32.8,27.0,30.16,NW,323,7.8,8.7,79,0.00,,,0.00,VWS V14.01,2013-03-27 04:57:00,
2013-03-27 00:58:00,33.1,28.3,30.16,NNW,340,10.5,12.8,82,0.00,,,0.00,VWS V14.01,2013-03-27 04:58:00,
2013-03-27 00:59:00,33.1,28.3,30.16,NW,310,10.4,11.2,82,0.00,,,0.00,VWS V14.01,2013-03-27 04:59:00,
2013-03-27 01:00:00,32.9,28.1,30.16,NW,324,8.3,10.4,82,0.00,,,0.00,VWS V14.01,2013-03-27 05:00:00,
2013-03-27 01:01:00,33.2,28.4,30.16,NW,317,9.0,12.6,82,0.00,,,0.00,VWS V14.01,2013-03-27 05:01:00,
2013-03-27 01:02:00,33.0,28.2,30.16,NW,321,10.0,10.0,82,0.00,,,0.00,VWS V14.01,2013-03-27 05:02:00,
2013-03-27 01:03:00,33.0,28.4,30.17,NW,321,9.7,9.7,83,0.00,,,0.00,VWS V14.01,2013-03-27 05:03:00,
2013-03-27 01:04:00,32.7,28.1,30.16,NNW,331,7.8,10.4,83,0.00,,,0.00,VWS V14.01,2013-03-27 05:04:00,
2013-03-27 01:05:00,33.0,28.5,30.15,NW,325,11.2,11.2,83,0.00,,,0.00,VWS V14.01,2013-03-27 05:05:00,
2013-03-27 01:06:00,33.2,28.4,30.15,WNW,284,12.1,12.6,83,0.00,,,0.00,VWS V14.01,2013-03-27 05:06:00,
2013-03-27 01:07:00,33.1,28.5,30.17,NW,313,9.7,10.7,83,0.00,,,0.00,VWS V14.01,2013-03-27 05:07:00,
2013-03-27 01:08:00,33.2,28.7,30.16,NW,320,12.6,12.6,83,0.00,,,0.00,VWS V14.01,2013-03-27 05:08:00,
2013-03-27 01:09:00,33.1,28.5,30.16,NNW,331,8.7,13.5,83,0.00,,,0.00,VWS V14.01,2013-03-27 05:09:00,
2013-03-27 01:10:00,32.9,28.3,30.16,NW,308,9.9,10.9,83,0.00,,,0.00,VWS V14.01,2013-03-27 05:10:00,
2013-03-27 01:11:00,33.0,28.4,30.17,NW,311,11.7,11.7,83,0.00,,,0.00,VWS V14.01,2013-03-27 05:11:00,
2013-03-27 01:12:00,33.1,28.4,30.17,NW,322,12.4,12.4,83,0.00,,,0.00,VWS V14.01,2013-03-27 05:12:00,
2013-03-27 01:13:00,33.1,28.6,30.16,NNW,331,14.0,14.0,83,0.00,,,0.00,VWS V14.01,2013-03-27 05:13:00,
2013-03-27 01:14:00,33.1,28.5,30.16,NNW,335,11.1,11.1,83,0.00,,,0.00,VWS V14.01,2013-03-27 05:14:00,
2013-03-27 01:15:00,33.2,28.5,30.17,NNW,332,11.6,11.6,83,0.00,,,0.00,VWS V14.01,2013-03-27 05:15:00,
2013-03-27 01:16:00,33.0,28.2,30.16,NW,326,12.1,14.6,82,0.00,,,0.00,VWS V14.01,2013-03-27 05:16:00,
2013-03-27 01:17:00,33.1,28.3,30.16,NW,315,13.4,13.4,82,0.00,,,0.00,VWS V14.01,2013-03-27 05:17:00,
2013-03-27 01:18:00,33.1,28.7,30.16,NW,312,11.6,11.6,83,0.00,,,0.00,VWS V14.01,2013-03-27 05:18:00,
2013-03-27 01:19:00,33.0,28.5,30.16,NW,313,8.7,9.2,83,0.00,,,0.00,VWS V14.01,2013-03-27 05:19:00,
2013-03-27 01:20:00,33.0,28.3,30.17,NW,314,11.7,12.9,82,0.00,,,0.00,VWS V14.01,2013-03-27 05:20:00,
2013-03-27 01:21:00,33.1,28.6,30.16,NW,309,13.6,13.6,83,0.00,,,0.00,VWS V14.01,2013-03-27 05:21:00,
2013-03-27 01:22:00,32.8,28.2,30.16,NW,316,7.8,9.9,83,0.00,,,0.00,VWS V14.01,2013-03-27 05:22:00,
2013-03-27 01:23:00,33.0,28.5,30.17,NW,307,9.7,9.7,83,0.00,,,0.00,VWS V14.01,2013-03-27 05:23:00,
2013-03-27 01:24:00,33.0,28.4,30.16,NNW,342,9.2,9.7,83,0.00,,,0.00,VWS V14.01,2013-03-27 05:24:00,
2013-03-27 01:25:00,33.0,28.5,30.20,NW,309,12.4,12.4,83,0.00,,,0.00,VWS V14.01,2013-03-27 05:25:00,
2013-03-27 01:26:00,33.1,28.6,30.17,NW,307,8.7,12.4,83,0.00,,,0.00,VWS V14.01,2013-03-27 05:26:00,
2013-03-27 01:27:00,32.9,28.4,30.17,WNW,301,11.2,11.2,83,0.00,,,0.00,VWS V14.01,2013-03-27 05:27:00,
2013-03-27 01:28:00,33.0,28.3,30.16,NW,314,9.3,13.3,83,0.00,,,0.00,VWS V14.01,2013-03-27 05:28:00,
2013-03-27 01:29:00,33.0,28.3,30.16,NNW,333,10.2,11.4,83,0.00,,,0.00,VWS V14.01,2013-03-27 05:29:00,
2013-03-27 01:30:00,33.0,28.3,30.16,NNW,334,8.8,10.2,83,0.00,,,0.00,VWS V14.01,2013-03-27 05:30:00,
2013-03-27 01:31:00,33.0,28.6,30.16,NNW,334,9.9,12.4,84,0.00,,,0.00,VWS V14.01,2013-03-27 05:31:00,
2013-03-27 01:32:00,33.0,28.6,30.16,NW,317,11.1,11.1,84,0.00,,,0.00,VWS V14.01,2013-03-27 05:32:00,
2013-03-27 01:33:00,33.1,28.7,30.16,NW,307,10.5,11.1,84,0.00,,,0.00,VWS V14.01,2013-03-27 05:33:00,
2013-03-27 01:34:00,33.1,28.4,30.16,NW,325,12.3,12.3,83,0.00,,,0.00,VWS V14.01,2013-03-27 05:34:00,
2013-03-27 01:35:00,33.1,28.4,30.16,NW,312,9.7,12.3,82,0.00,,,0.00,VWS V14.01,2013-03-27 05:35:00,
2013-03-27 01:36:00,33.3,28.5,30.17,NW,318,14.3,14.3,82,0.00,,,0.00,VWS V14.01,2013-03-27 05:36:00,
2013-03-27 01:37:00,32.9,28.6,30.16,NNW,334,7.5,9.7,84,0.00,,,0.00,VWS V14.01,2013-03-27 05:37:00,
2013-03-27 01:38:00,33.3,28.3,30.16,NW,326,12.8,16.5,82,0.00,,,0.00,VWS V14.01,2013-03-27 05:38:00,
2013-03-27 01:39:00,33.1,28.8,30.17,NW,314,14.0,14.0,84,0.00,,,0.00,VWS V14.01,2013-03-27 05:39:00,
2013-03-27 01:40:00,33.2,28.3,30.17,NNW,333,11.4,11.4,82,0.00,,,0.00,VWS V14.01,2013-03-27 05:40:00,
2013-03-27 01:41:00,33.3,28.4,30.16,NNW,337,14.0,14.0,82,0.00,,,0.00,VWS V14.01,2013-03-27 05:41:00,
2013-03-27 01:42:00,32.8,28.4,30.16,NNW,335,6.4,11.6,84,0.00,,,0.00,VWS V14.01,2013-03-27 05:42:00,
2013-03-27 01:43:00,33.0,28.1,30.16,NW,311,10.2,10.2,82,0.00,,,0.00,VWS V14.01,2013-03-27 05:43:00,
2013-03-27 01:44:00,32.9,28.6,30.16,NW,318,9.0,9.0,84,0.00,,,0.00,VWS V14.01,2013-03-27 05:44:00,
2013-03-27 01:45:00,33.2,28.4,30.17,NW,321,13.3,13.3,82,0.00,,,0.00,VWS V14.01,2013-03-27 05:45:00,
2013-03-27 01:46:00,33.2,28.4,30.16,NW,322,10.5,13.3,82,0.00,,,0.00,VWS V14.01,2013-03-27 05:46:00,
2013-03-27 01:47:00,32.8,28.6,30.16,NNW,345,7.3,8.1,84,0.00,,,0.00,VWS V14.01,2013-03-27 05:47:00,
2013-03-27 01:48:00,33.4,28.5,30.17,NNW,333,13.4,13.4,82,0.00,,,0.00,VWS V14.01,2013-03-27 05:48:00,
2013-03-27 01:49:00,33.2,28.3,30.16,NW,319,13.3,13.4,82,0.00,,,0.00,VWS V14.01,2013-03-27 05:49:00,
2013-03-27 01:50:00,32.8,28.8,30.17,NW,326,9.9,9.9,85,0.00,,,0.00,VWS V14.01,2013-03-27 05:50:00,
2013-03-27 01:51:00,32.8,28.7,30.17,NNW,330,6.8,9.0,85,0.00,,,0.00,VWS V14.01,2013-03-27 05:51:00,
2013-03-27 01:52:00,33.3,28.4,30.16,NNW,343,10.7,13.8,82,0.00,,,0.00,VWS V14.01,2013-03-27 05:52:00,
2013-03-27 01:53:00,33.0,28.9,30.16,NNW,329,11.6,11.6,85,0.00,,,0.00,VWS V14.01,2013-03-27 05:53:00,
2013-03-27 01:54:00,33.2,28.5,30.16,NNW,332,12.8,13.3,82,0.00,,,0.00,VWS V14.01,2013-03-27 05:54:00,
2013-03-27 01:55:00,33.1,28.4,30.16,NNW,331,8.5,12.8,82,0.00,,,0.00,VWS V14.01,2013-03-27 05:55:00,
2013-03-27 01:56:00,32.9,28.7,30.17,NNW,327,8.3,8.3,85,0.00,,,0.00,VWS V14.01,2013-03-27 05:56:00,
2013-03-27 01:57:00,33.0,28.8,30.16,NW,314,11.1,13.1,84,0.00,,,0.00,VWS V14.01,2013-03-27 05:57:00,
2013-03-27 01:58:00,33.0,28.8,30.16,NW,314,11.1,13.1,84,0.00,,,0.00,VWS V14.01,2013-03-27 05:58:00,
2013-03-27 01:59:00,32.7,28.5,30.17,NW,307,8.8,12.1,84,0.00,,,0.00,VWS V14.01,2013-03-27 05:59:00,
2013-03-27 02:00:00,33.3,28.6,30.16,NW,310,12.6,12.6,82,0.00,,,0.00,VWS V14.01,2013-03-27 06:00:00,
2013-03-27 02:03:00,32.9,28.7,30.17,NW,323,11.2,11.4,84,0.00,,,0.00,VWS V14.01,2013-03-27 06:03:00,
2013-03-27 02:04:00,32.8,28.6,30.17,NNW,340,9.0,9.5,84,0.00,,,0.00,VWS V14.01,2013-03-27 06:04:00,
2013-03-27 02:05:00,33.2,28.6,30.16,NW,325,11.1,11.1,83,0.00,,,0.00,VWS V14.01,2013-03-27 06:05:00,
2013-03-27 02:06:00,33.3,28.7,30.17,NW,310,13.3,13.3,83,0.00,,,0.00,VWS V14.01,2013-03-27 06:06:00,
2013-03-27 02:07:00,33.1,28.5,30.17,NW,313,9.7,10.7,83,0.00,,,0.00,VWS V14.01,2013-03-27 06:07:00,
2013-03-27 02:08:00,32.8,28.7,30.17,NNW,331,7.5,9.2,85,0.00,,,0.00,VWS V14.01,2013-03-27 06:08:00,
2013-03-27 02:09:00,32.7,28.6,30.17,NW,317,9.9,9.9,85,0.00,,,0.00,VWS V14.01,2013-03-27 06:09:00,
2013-03-27 02:10:00,33.2,28.6,30.17,NNW,332,9.3,11.1,83,0.00,,,0.00,VWS V14.01,2013-03-27 06:10:00,
2013-03-27 02:11:00,32.9,28.8,30.17,NW,324,10.4,10.4,85,0.00,,,0.00,VWS V14.01,2013-03-27 06:11:00,
2013-03-27 02:12:00,33.1,28.6,30.16,NW,318,11.1,11.1,83,0.00,,,0.00,VWS V14.01,2013-03-27 06:12:00,
2013-03-27 02:13:00,32.8,28.5,30.16,NW,317,8.8,14.6,84,0.00,,,0.00,VWS V14.01,2013-03-27 06:13:00,
2013-03-27 02:14:00,33.1,28.5,30.16,NNW,335,11.1,14.0,83,0.00,,,0.00,VWS V14.01,2013-03-27 06:14:00,
2013-03-27 02:15:00,32.9,28.6,30.17,NW,322,7.5,9.7,84,0.00,,,0.00,VWS V14.01,2013-03-27 06:15:00,
2013-03-27 02:16:00,32.7,28.4,30.18,NNW,339,7.3,9.7,84,0.00,,,0.00,VWS V14.01,2013-03-27 06:16:00,
2013-03-27 02:17:00,33.0,28.5,30.16,NW,326,10.0,10.0,83,0.00,,,0.00,VWS V14.01,2013-03-27 06:17:00,
2013-03-27 02:18:00,33.1,28.6,30.16,North,351,9.2,11.6,83,0.00,,,0.00,VWS V14.01,2013-03-27 06:18:00,
2013-03-27 02:19:00,33.0,28.5,30.16,NW,313,8.7,9.2,83,0.00,,,0.00,VWS V14.01,2013-03-27 06:19:00,
2013-03-27 02:20:00,32.8,28.6,30.16,NNW,340,9.2,11.4,84,0.00,,,0.00,VWS V14.01,2013-03-27 06:20:00,
2013-03-27 02:21:00,32.8,28.7,30.17,WNW,294,9.5,10.5,84,0.00,,,0.00,VWS V14.01,2013-03-27 06:21:00,
2013-03-27 02:22:00,32.7,28.5,30.17,NNW,332,8.3,10.5,84,0.00,,,0.00,VWS V14.01,2013-03-27 06:22:00,
2013-03-27 02:23:00,33.0,28.4,30.17,NW,315,10.4,11.6,83,0.00,,,0.00,VWS V14.01,2013-03-27 06:23:00,
2013-03-27 02:24:00,33.2,28.7,30.17,NW,319,12.1,12.1,83,0.00,,,0.00,VWS V14.01,2013-03-27 06:24:00,
2013-03-27 02:25:00,33.0,28.5,30.16,WNW,299,12.4,12.4,83,0.00,,,0.00,VWS V14.01,2013-03-27 06:25:00,
2013-03-27 02:26:00,32.7,28.4,30.17,NNW,327,9.0,11.9,84,0.00,,,0.00,VWS V14.01,2013-03-27 06:26:00,
2013-03-27 02:27:00,32.9,28.5,30.16,NW,317,12.6,12.6,84,0.00,,,0.00,VWS V14.01,2013-03-27 06:27:00,
2013-03-27 02:28:00,32.8,28.4,30.16,NW,320,9.7,9.7,84,0.00,,,0.00,VWS V14.01,2013-03-27 06:28:00,
2013-03-27 02:29:00,32.9,28.6,30.16,NNW,338,12.1,12.1,84,0.00,,,0.00,VWS V14.01,2013-03-27 06:29:00,
2013-03-27 02:30:00,33.1,28.8,30.16,NW,315,12.4,12.4,84,0.00,,,0.00,VWS V14.01,2013-03-27 06:30:00,
2013-03-27 02:31:00,33.0,28.7,30.16,NNW,334,9.9,12.4,84,0.00,,,0.00,VWS V14.01,2013-03-27 06:31:00,
2013-03-27 02:32:00,32.8,28.5,30.17,NW,322,8.3,8.3,84,0.00,,,0.00,VWS V14.01,2013-03-27 06:32:00,
2013-03-27 02:33:00,32.8,28.6,30.17,NW,324,11.7,11.7,84,0.00,,,0.00,VWS V14.01,2013-03-27 06:33:00,
2013-03-27 02:34:00,32.9,28.5,30.16,NW,323,8.5,10.0,83,0.00,,,0.00,VWS V14.01,2013-03-27 06:34:00,
2013-03-27 02:35:00,33.0,28.5,30.15,WNW,302,9.3,9.3,84,0.00,,,0.00,VWS V14.01,2013-03-27 06:35:00,
2013-03-27 02:36:00,32.8,28.4,30.16,NW,318,9.7,10.4,84,0.00,,,0.00,VWS V14.01,2013-03-27 06:36:00,
2013-03-27 02:37:00,32.8,28.5,30.16,NNW,328,11.2,11.2,84,0.00,,,0.00,VWS V14.01,2013-03-27 06:37:00,
2013-03-27 02:38:00,32.8,28.6,30.16,NW,316,10.4,11.2,84,0.00,,,0.00,VWS V14.01,2013-03-27 06:38:00,
2013-03-27 02:39:00,32.8,28.5,30.17,WNW,295,11.1,11.1,84,0.00,,,0.00,VWS V14.01,2013-03-27 06:39:00,
2013-03-27 02:40:00,32.9,28.6,30.17,NW,326,6.9,14.0,84,0.00,,,0.00,VWS V14.01,2013-03-27 06:40:00,
2013-03-27 02:41:00,33.0,28.7,30.16,NNW,339,11.6,12.9,84,0.00,,,0.00,VWS V14.01,2013-03-27 06:41:00,
2013-03-27 02:42:00,32.8,28.6,30.17,NW,318,10.2,10.5,84,0.00,,,0.00,VWS V14.01,2013-03-27 06:42:00,
2013-03-27 02:43:00,32.9,28.6,30.16,NNW,340,6.3,9.3,84,0.00,,,0.00,VWS V14.01,2013-03-27 06:43:00,
2013-03-27 02:44:00,32.6,28.5,30.17,NW,319,8.8,8.8,85,0.00,,,0.00,VWS V14.01,2013-03-27 06:44:00,
2013-03-27 02:45:00,32.7,28.6,30.16,NNW,329,9.9,9.9,85,0.00,,,0.00,VWS V14.01,2013-03-27 06:45:00,
2013-03-27 02:46:00,32.9,28.6,30.16,NW,326,8.1,8.7,84,0.00,,,0.00,VWS V14.01,2013-03-27 06:46:00,
2013-03-27 02:47:00,32.8,28.6,30.16,NNW,345,7.3,8.1,84,0.00,,,0.00,VWS V14.01,2013-03-27 06:47:00,
2013-03-27 02:48:00,32.7,28.7,30.16,NW,325,9.7,9.7,85,0.00,,,0.00,VWS V14.01,2013-03-27 06:48:00,
2013-03-27 02:49:00,32.8,28.7,30.17,NW,318,9.0,9.0,85,0.00,,,0.00,VWS V14.01,2013-03-27 06:49:00,
2013-03-27 02:50:00,32.6,28.5,30.17,NW,326,8.8,9.0,84,0.00,,,0.00,VWS V14.01,2013-03-27 06:50:00,
2013-03-27 02:51:00,32.6,28.5,30.17,NW,326,8.8,9.0,84,0.00,,,0.00,VWS V14.01,2013-03-27 06:51:00,
2013-03-27 02:52:00,32.8,28.7,30.17,NW,325,7.8,7.8,85,0.00,,,0.00,VWS V14.01,2013-03-27 06:52:00,
2013-03-27 02:53:00,33.0,28.9,30.16,NNW,329,11.6,11.6,85,0.00,,,0.00,VWS V14.01,2013-03-27 06:53:00,
2013-03-27 02:54:00,32.9,28.7,30.16,NW,309,10.0,11.6,84,0.00,,,0.00,VWS V14.01,2013-03-27 06:54:00,
2013-03-27 02:55:00,32.6,28.4,30.17,NNW,329,10.4,12.8,84,0.00,,,0.00,VWS V14.01,2013-03-27 06:55:00,
2013-03-27 02:56:00,32.4,28.3,30.17,NW,313,8.5,10.4,84,0.00,,,0.00,VWS V14.01,2013-03-27 06:56:00,
2013-03-27 02:57:00,33.0,28.9,30.16,NNW,331,13.1,13.1,85,0.00,,,0.00,VWS V14.01,2013-03-27 06:57:00,
2013-03-27 02:58:00,32.5,28.3,30.16,NW,323,9.7,10.2,84,0.00,,,0.00,VWS V14.01,2013-03-27 06:58:00,
2013-03-27 02:59:00,32.9,28.7,30.16,NW,307,9.0,12.1,84,0.00,,,0.00,VWS V14.01,2013-03-27 06:59:00,
2013-03-27 03:00:00,32.7,28.5,30.16,NW,314,9.5,10.9,84,0.00,,,0.00,VWS V14.01,2013-03-27 07:00:00,
2013-03-27 03:01:00,33.0,28.8,30.16,NW,324,10.4,10.4,84,0.00,,,0.00,VWS V14.01,2013-03-27 07:01:00,
2013-03-27 03:02:00,32.7,28.6,30.21,NNW,330,12.9,12.9,85,0.00,,,0.00,VWS V14.01,2013-03-27 07:02:00,
2013-03-27 03:03:00,32.6,28.5,30.17,NW,318,11.1,12.9,85,0.00,,,0.00,VWS V14.01,2013-03-27 07:03:00,
2013-03-27 03:04:00,32.8,28.6,30.17,NNW,331,10.0,10.0,84,0.00,,,0.00,VWS V14.01,2013-03-27 07:04:00,
2013-03-27 03:05:00,32.9,28.8,30.16,NW,319,10.9,10.9,84,0.00,,,0.00,VWS V14.01,2013-03-27 07:05:00,
2013-03-27 03:06:00,32.5,28.4,30.16,NNW,336,10.4,11.2,85,0.00,,,0.00,VWS V14.01,2013-03-27 07:06:00,
2013-03-27 03:07:00,32.5,28.4,30.17,NNW,338,8.5,11.4,85,0.00,,,0.00,VWS V14.01,2013-03-27 07:07:00,
2013-03-27 03:08:00,32.8,28.7,30.21,NNW,332,12.8,12.8,85,0.00,,,0.00,VWS V14.01,2013-03-27 07:08:00,
2013-03-27 03:09:00,32.6,28.4,30.17,NW,306,8.8,10.4,84,0.00,,,0.00,VWS V14.01,2013-03-27 07:09:00,
2013-03-27 03:10:00,32.8,28.7,30.17,NW,318,6.8,7.3,85,0.00,,,0.00,VWS V14.01,2013-03-27 07:10:00,
2013-03-27 03:11:00,32.6,28.5,30.21,NW,320,8.3,9.9,84,0.00,,,0.00,VWS V14.01,2013-03-27 07:11:00,
2013-03-27 03:12:00,33.0,28.8,30.17,NNW,327,14.6,14.6,84,0.00,,,0.00,VWS V14.01,2013-03-27 07:12:00,
2013-03-27 03:13:00,32.8,28.5,30.16,NW,317,8.8,14.6,84,0.00,,,0.00,VWS V14.01,2013-03-27 07:13:00,
2013-03-27 03:14:00,32.3,28.2,30.17,NW,313,7.5,9.7,84,0.00,,,0.00,VWS V14.01,2013-03-27 07:14:00,
2013-03-27 03:15:00,32.5,28.4,30.16,NNW,334,11.4,11.4,85,0.00,,,0.00,VWS V14.01,2013-03-27 07:15:00,
2013-03-27 03:16:00,32.5,28.3,30.16,NNW,334,10.4,10.4,84,0.00,,,0.00,VWS V14.01,2013-03-27 07:16:00,
2013-03-27 03:17:00,32.9,28.6,30.17,NW,325,8.8,10.7,84,0.00,,,0.00,VWS V14.01,2013-03-27 07:17:00,
2013-03-27 03:18:00,32.6,28.5,30.16,NW,316,9.7,9.7,85,0.00,,,0.00,VWS V14.01,2013-03-27 07:18:00,
2013-03-27 03:19:00,32.7,28.5,30.17,NW,313,11.4,11.4,84,0.00,,,0.00,VWS V14.01,2013-03-27 07:19:00,
2013-03-27 03:20:00,32.5,28.4,30.16,NNW,327,9.3,9.3,85,0.00,,,0.00,VWS V14.01,2013-03-27 07:20:00,
2013-03-27 03:21:00,32.3,28.2,30.16,North,351,8.7,9.2,85,0.00,,,0.00,VWS V14.01,2013-03-27 07:21:00,
2013-03-27 03:22:00,32.7,28.5,30.17,NNW,332,8.3,10.5,84,0.00,,,0.00,VWS V14.01,2013-03-27 07:22:00,
2013-03-27 03:23:00,32.5,28.5,30.17,NW,320,9.7,9.7,85,0.00,,,0.00,VWS V14.01,2013-03-27 07:23:00,
2013-03-27 03:24:00,32.5,28.5,30.17,NW,320,9.7,9.7,85,0.00,,,0.00,VWS V14.01,2013-03-27 07:24:00,
2013-03-27 03:25:00,32.9,28.6,30.17,NNW,327,11.9,11.9,84,0.00,,,0.00,VWS V14.01,2013-03-27 07:25:00,
2013-03-27 03:26:00,32.5,28.5,30.16,NNW,328,9.2,10.9,85,0.00,,,0.00,VWS V14.01,2013-03-27 07:26:00,
2013-03-27 03:27:00,32.5,28.4,30.17,NW,314,9.5,10.9,85,0.00,,,0.00,VWS V14.01,2013-03-27 07:27:00,
2013-03-27 03:28:00,32.8,28.4,30.16,NW,313,11.7,11.7,84,0.00,,,0.00,VWS V14.01,2013-03-27 07:28:00,
2013-03-27 03:29:00,32.8,28.8,30.16,NW,323,12.4,12.4,85,0.00,,,0.00,VWS V14.01,2013-03-27 07:29:00,
2013-03-27 03:30:00,32.7,28.5,30.16,NNW,337,5.4,11.6,84,0.00,,,0.00,VWS V14.01,2013-03-27 07:30:00,
2013-03-27 03:31:00,32.8,27.4,30.21,NW,320,8.3,8.3,80,0.00,,,0.00,VWS V14.01,2013-03-27 07:31:00,
2013-03-27 03:32:00,32.5,28.4,30.17,NW,321,9.5,9.5,85,0.00,,,0.00,VWS V14.01,2013-03-27 07:32:00,
2013-03-27 03:33:00,32.3,28.3,30.17,WNW,298,5.1,9.5,85,0.00,,,0.00,VWS V14.01,2013-03-27 07:33:00,
2013-03-27 03:34:00,32.5,28.5,30.17,NNW,331,8.7,10.7,85,0.00,,,0.00,VWS V14.01,2013-03-27 07:34:00,
2013-03-27 03:35:00,32.7,28.3,30.17,NNW,339,9.7,12.4,84,0.00,,,0.00,VWS V14.01,2013-03-27 07:35:00,
2013-03-27 03:36:00,32.7,28.4,30.17,NNW,327,10.4,10.4,84,0.00,,,0.00,VWS V14.01,2013-03-27 07:36:00,
2013-03-27 03:37:00,32.4,28.4,30.16,NNW,328,10.9,10.9,85,0.00,,,0.00,VWS V14.01,2013-03-27 07:37:00,
2013-03-27 03:38:00,32.4,28.4,30.16,NNW,328,10.9,10.9,85,0.00,,,0.00,VWS V14.01,2013-03-27 07:38:00,
2013-03-27 03:39:00,32.8,28.5,30.17,WNW,295,11.1,11.1,84,0.00,,,0.00,VWS V14.01,2013-03-27 07:39:00,
2013-03-27 03:40:00,32.5,28.5,30.17,NW,318,10.9,10.9,85,0.00,,,0.00,VWS V14.01,2013-03-27 07:40:00,
2013-03-27 03:41:00,32.7,28.5,30.17,NNW,328,10.5,10.5,84,0.00,,,0.00,VWS V14.01,2013-03-27 07:41:00,
2013-03-27 03:42:00,32.8,28.6,30.17,NW,318,10.2,10.5,84,0.00,,,0.00,VWS V14.01,2013-03-27 07:42:00,
2013-03-27 03:43:00,32.7,28.6,30.17,NW,324,10.5,13.8,85,0.00,,,0.00,VWS V14.01,2013-03-27 07:43:00,
2013-03-27 03:44:00,32.5,28.4,30.17,NW,318,12.6,12.6,85,0.00,,,0.00,VWS V14.01,2013-03-27 07:44:00,
2013-03-27 03:45:00,32.7,28.6,30.16,NNW,329,9.9,9.9,85,0.00,,,0.00,VWS V14.01,2013-03-27 07:45:00,
2013-03-27 03:46:00,32.5,28.4,30.17,NW,320,10.2,11.4,85,0.00,,,0.00,VWS V14.01,2013-03-27 07:46:00,
2013-03-27 03:47:00,32.4,28.4,30.16,NW,319,6.3,7.3,85,0.00,,,0.00,VWS V14.01,2013-03-27 07:47:00,
2013-03-27 03:48:00,32.7,28.7,30.16,NW,325,9.7,9.7,85,0.00,,,0.00,VWS V14.01,2013-03-27 07:48:00,
2013-03-27 03:49:00,32.6,28.5,30.17,NW,315,8.1,9.9,85,0.00,,,0.00,VWS V14.01,2013-03-27 07:49:00,
2013-03-27 03:50:00,32.7,28.5,30.16,NNW,342,10.0,13.3,84,0.00,,,0.00,VWS V14.01,2013-03-27 07:50:00,
2013-03-27 03:51:00,32.5,28.3,30.17,NNW,328,10.7,10.7,84,0.00,,,0.00,VWS V14.01,2013-03-27 07:51:00,
2013-03-27 03:52:00,32.6,28.4,30.16,NW,322,13.6,13.6,84,0.00,,,0.00,VWS V14.01,2013-03-27 07:52:00,
2013-03-27 03:53:00,32.6,28.4,30.17,NW,311,8.3,8.3,84,0.00,,,0.00,VWS V14.01,2013-03-27 07:53:00,
2013-03-27 03:54:00,32.8,28.7,30.17,NNW,329,12.8,12.8,85,0.00,,,0.00,VWS V14.01,2013-03-27 07:54:00,
2013-03-27 03:55:00,32.5,28.4,30.16,NW,322,9.5,9.5,85,0.00,,,0.00,VWS V14.01,2013-03-27 07:55:00,
2013-03-27 03:56:00,32.8,28.7,30.17,NW,317,8.3,10.4,85,0.00,,,0.00,VWS V14.01,2013-03-27 07:56:00,
2013-03-27 03:57:00,32.4,28.3,30.17,NW,324,8.7,8.7,85,0.00,,,0.00,VWS V14.01,2013-03-27 07:57:00,
2013-03-27 03:58:00,32.3,28.2,30.17,NW,318,8.7,8.7,85,0.00,,,0.00,VWS V14.01,2013-03-27 07:58:00,
2013-03-27 03:59:00,32.5,28.2,30.17,NW,317,9.9,10.2,84,0.00,,,0.00,VWS V14.01,2013-03-27 07:59:00,
2013-03-27 04:00:00,32.7,28.5,30.16,NW,314,9.5,10.9,84,0.00,,,0.00,VWS V14.01,2013-03-27 08:00:00,
2013-03-27 04:01:00,32.5,28.4,30.17,NW,326,9.9,9.9,84,0.00,,,0.00,VWS V14.01,2013-03-27 08:01:00,
2013-03-27 04:02:00,32.4,28.3,30.17,NW,308,10.5,12.8,85,0.00,,,0.00,VWS V14.01,2013-03-27 08:02:00,
2013-03-27 04:03:00,32.6,28.5,30.17,NW,315,8.8,12.8,85,0.00,,,0.00,VWS V14.01,2013-03-27 08:03:00,
2013-03-27 04:04:00,32.6,28.5,30.17,NW,318,11.1,12.9,85,0.00,,,0.00,VWS V14.01,2013-03-27 08:04:00,
2013-03-27 04:05:00,32.7,28.6,30.16,NW,317,11.2,11.2,85,0.00,,,0.00,VWS V14.01,2013-03-27 08:05:00,
2013-03-27 04:06:00,32.5,28.5,30.17,NW,313,10.5,12.8,85,0.00,,,0.00,VWS V14.01,2013-03-27 08:06:00,
2013-03-27 04:07:00,32.4,28.5,30.17,NW,325,8.3,12.8,85,0.00,,,0.00,VWS V14.01,2013-03-27 08:07:00,
2013-03-27 04:08:00,32.4,28.5,30.17,NW,323,8.3,12.8,85,0.00,,,0.00,VWS V14.01,2013-03-27 08:08:00,
2013-03-27 04:09:00,32.7,28.6,30.22,NNW,339,10.4,12.8,85,0.00,,,0.00,VWS V14.01,2013-03-27 08:09:00,
2013-03-27 04:10:00,32.5,28.5,30.17,NNW,338,11.9,12.8,85,0.00,,,0.00,VWS V14.01,2013-03-27 08:10:00,
2013-03-27 04:11:00,32.6,28.5,30.17,NW,319,9.9,10.2,84,0.00,,,0.00,VWS V14.01,2013-03-27 08:11:00,
2013-03-27 04:12:00,32.6,28.5,30.21,NW,320,8.3,9.9,84,0.00,,,0.00,VWS V14.01,2013-03-27 08:12:00,
2013-03-27 04:13:00,32.5,28.5,30.17,NNW,329,10.2,12.8,85,0.00,,,0.00,VWS V14.01,2013-03-27 08:13:00,
2013-03-27 04:14:00,32.4,28.5,30.17,NW,321,10.9,12.8,85,0.00,,,0.00,VWS V14.01,2013-03-27 08:14:00,
2013-03-27 04:15:00,32.6,28.4,30.17,NW,316,9.0,11.4,84,0.00,,,0.00,VWS V14.01,2013-03-27 08:15:00,
2013-03-27 04:16:00,32.5,28.3,30.16,NNW,334,10.4,10.4,84,0.00,,,0.00,VWS V14.01,2013-03-27 08:16:00,
2013-03-27 04:17:00,32.4,28.3,30.17,NNW,341,5.6,10.4,85,0.00,,,0.00,VWS V14.01,2013-03-27 08:17:00,
2013-03-27 04:18:00,32.6,28.5,30.16,NW,316,9.7,9.7,85,0.00,,,0.00,VWS V14.01,2013-03-27 08:18:00,
2013-03-27 04:19:00,32.5,28.6,30.17,NW,320,11.2,12.8,86,0.00,,,0.00,VWS V14.01,2013-03-27 08:19:00,
2013-03-27 04:20:00,32.4,28.6,30.18,NW,314,10.7,12.8,85,0.00,,,0.00,VWS V14.01,2013-03-27 08:20:00,
2013-03-27 04:21:00,32.4,28.6,30.18,NW,314,10.7,12.8,85,0.00,,,0.00,VWS V14.01,2013-03-27 08:21:00,
2013-03-27 04:22:00,32.5,28.4,30.16,NW,322,8.5,9.2,85,0.00,,,0.00,VWS V14.01,2013-03-27 08:22:00,
2013-03-27 04:23:00,32.5,28.5,30.17,NW,320,9.7,9.7,85,0.00,,,0.00,VWS V14.01,2013-03-27 08:23:00,
2013-03-27 04:25:00,32.7,29.0,30.17,NNW,327,14.6,14.6,86,0.00,,,0.00,VWS V14.01,2013-03-27 08:25:00,
2013-03-27 04:26:00,32.7,28.8,30.16,NW,325,10.9,12.3,85,0.00,,,0.00,VWS V14.01,2013-03-27 08:26:00,
2013-03-27 04:27:00,32.4,28.5,30.17,NW,325,11.4,14.6,85,0.00,,,0.00,VWS V14.01,2013-03-27 08:27:00,
2013-03-27 04:28:00,32.3,28.5,30.17,NW,318,7.5,14.6,85,0.00,,,0.00,VWS V14.01,2013-03-27 08:28:00,
2013-03-27 04:29:00,32.8,28.8,30.16,NW,323,12.4,12.4,85,0.00,,,0.00,VWS V14.01,2013-03-27 08:29:00,
2013-03-27 04:30:00,32.3,28.4,30.17,NW,322,7.3,14.6,85,0.00,,,0.00,VWS V14.01,2013-03-27 08:30:00,
2013-03-27 04:31:00,32.4,28.3,30.16,NW,324,7.6,10.2,85,0.00,,,0.00,VWS V14.01,2013-03-27 08:31:00,
2013-03-27 04:32:00,32.5,28.4,30.17,NW,321,9.5,9.5,85,0.00,,,0.00,VWS V14.01,2013-03-27 08:32:00,
2013-03-27 04:33:00,32.3,28.4,30.17,North,351,5.7,14.6,85,0.00,,,0.00,VWS V14.01,2013-03-27 08:33:00,
2013-03-27 04:34:00,32.4,28.4,30.17,NNW,331,9.9,14.6,85,0.00,,,0.00,VWS V14.01,2013-03-27 08:34:00,
2013-03-27 04:35:00,32.5,28.5,30.17,NW,324,10.2,14.6,85,0.00,,,0.00,VWS V14.01,2013-03-27 08:35:00,
2013-03-27 04:36:00,32.3,28.2,30.17,NW,323,6.1,14.6,85,0.00,,,0.00,VWS V14.01,2013-03-27 08:36:00,
2013-03-27 04:37:00,32.6,28.6,30.16,NW,321,12.8,12.8,85,0.00,,,0.00,VWS V14.01,2013-03-27 08:37:00,
2013-03-27 04:38:00,32.3,28.3,30.17,NW,307,8.1,14.6,85,0.00,,,0.00,VWS V14.01,2013-03-27 08:38:00,
2013-03-27 04:39:00,32.4,28.4,30.18,NNW,331,5.4,14.6,85,0.00,,,0.00,VWS V14.01,2013-03-27 08:39:00,
2013-03-27 04:40:00,32.4,28.5,30.17,North,352,7.6,14.6,85,0.00,,,0.00,VWS V14.01,2013-03-27 08:40:00,
2013-03-27 04:41:00,32.5,28.4,30.17,WNW,294,10.4,11.7,85,0.00,,,0.00,VWS V14.01,2013-03-27 08:41:00,
2013-03-27 04:42:00,32.5,28.4,30.17,NNW,330,9.2,10.4,85,0.00,,,0.00,VWS V14.01,2013-03-27 08:42:00,
2013-03-27 04:43:00,32.6,28.6,30.18,NW,326,13.8,13.8,85,0.00,,,0.00,VWS V14.01,2013-03-27 08:43:00,
2013-03-27 04:44:00,32.6,28.5,30.17,NW,310,9.2,14.6,85,0.00,,,0.00,VWS V14.01,2013-03-27 08:44:00,
2013-03-27 04:45:00,32.6,28.5,30.17,NW,310,9.2,14.6,85,0.00,,,0.00,VWS V14.01,2013-03-27 08:45:00,
2013-03-27 04:46:00,32.4,28.2,30.16,NNW,336,5.7,14.6,84,0.00,,,0.00,VWS V14.01,2013-03-27 08:46:00,
2013-03-27 04:47:00,32.6,28.5,30.17,NNW,338,11.4,11.4,85,0.00,,,0.00,VWS V14.01,2013-03-27 08:47:00,
2013-03-27 04:48:00,32.2,28.1,30.17,NNW,336,7.8,14.6,84,0.00,,,0.00,VWS V14.01,2013-03-27 08:48:00,
2013-03-27 04:49:00,32.3,28.2,30.17,NW,319,5.7,14.6,85,0.00,,,0.00,VWS V14.01,2013-03-27 08:49:00,
2013-03-27 04:50:00,32.7,28.5,30.16,NNW,342,10.0,13.3,84,0.00,,,0.00,VWS V14.01,2013-03-27 08:50:00,
2013-03-27 04:51:00,32.5,28.3,30.16,NW,304,9.9,10.0,84,0.00,,,0.00,VWS V14.01,2013-03-27 08:51:00,
2013-03-27 04:52:00,32.3,28.2,30.17,NNW,337,7.6,14.6,85,0.00,,,0.00,VWS V14.01,2013-03-27 08:52:00,
2013-03-27 04:53:00,32.5,28.3,30.16,NNW,329,9.2,13.6,84,0.00,,,0.00,VWS V14.01,2013-03-27 08:53:00,
2013-03-27 04:54:00,32.7,28.5,30.22,NW,305,10.9,14.6,84,0.00,,,0.00,VWS V14.01,2013-03-27 08:54:00,
2013-03-27 04:55:00,32.6,28.3,30.19,WNW,301,8.7,14.6,84,0.00,,,0.00,VWS V14.01,2013-03-27 08:55:00,
2013-03-27 04:56:00,32.6,28.5,30.16,NW,304,10.0,10.0,85,0.00,,,0.00,VWS V14.01,2013-03-27 08:56:00,
2013-03-27 04:57:00,32.5,28.2,30.22,NW,307,10.9,14.6,84,0.00,,,0.00,VWS V14.01,2013-03-27 08:57:00,
2013-03-27 04:58:00,32.2,28.0,30.19,NNW,327,8.0,14.6,84,0.00,,,0.00,VWS V14.01,2013-03-27 08:58:00,
2013-03-27 04:59:00,32.4,28.4,30.17,NNW,344,7.6,9.0,85,0.00,,,0.00,VWS V14.01,2013-03-27 08:59:00,
2013-03-27 05:00:00,32.5,28.2,30.18,NW,323,10.2,14.6,84,0.00,,,0.00,VWS V14.01,2013-03-27 09:00:00,
2013-03-27 05:01:00,32.4,28.1,30.22,NW,323,7.5,14.6,84,0.00,,,0.00,VWS V14.01,2013-03-27 09:01:00,
2013-03-27 05:02:00,32.2,27.9,30.18,NW,324,7.6,8.1,84,0.00,,,0.00,VWS V14.01,2013-03-27 09:02:00,
2013-03-27 05:03:00,32.4,28.1,30.18,WNW,296,10.5,10.5,84,0.00,,,0.00,VWS V14.01,2013-03-27 09:03:00,
2013-03-27 05:04:00,32.2,27.8,30.17,NW,310,6.1,10.5,84,0.00,,,0.00,VWS V14.01,2013-03-27 09:04:00,
2013-03-27 05:05:00,32.2,27.9,30.17,NNW,332,7.8,7.8,84,0.00,,,0.00,VWS V14.01,2013-03-27 09:05:00,
2013-03-27 05:06:00,32.1,27.8,30.18,NW,324,7.1,10.5,84,0.00,,,0.00,VWS V14.01,2013-03-27 09:06:00,
2013-03-27 05:07:00,32.3,28.0,30.18,NNW,338,10.4,10.4,84,0.00,,,0.00,VWS V14.01,2013-03-27 09:07:00,
2013-03-27 05:08:00,32.0,27.6,30.17,NW,326,5.9,7.8,84,0.00,,,0.00,VWS V14.01,2013-03-27 09:08:00,
2013-03-27 05:09:00,31.6,27.2,30.17,NNW,327,4.9,7.8,84,0.00,,,0.00,VWS V14.01,2013-03-27 09:09:00,
2013-03-27 05:10:00,31.8,27.6,30.17,NW,308,6.8,6.8,84,0.00,,,0.00,VWS V14.01,2013-03-27 09:10:00,
2013-03-27 05:11:00,32.1,27.9,30.17,NW,320,8.3,8.3,84,0.00,,,0.00,VWS V14.01,2013-03-27 09:11:00,
2013-03-27 05:12:00,32.2,28.0,30.17,NNW,327,8.0,8.0,84,0.00,,,0.00,VWS V14.01,2013-03-27 09:12:00,
2013-03-27 05:13:00,32.0,27.8,30.16,NW,307,8.5,8.5,84,0.00,,,0.00,VWS V14.01,2013-03-27 09:13:00,
2013-03-27 05:14:00,32.2,28.0,30.17,NNW,328,10.2,10.2,85,0.00,,,0.00,VWS V14.01,2013-03-27 09:14:00,
2013-03-27 05:15:00,31.9,27.6,30.18,NW,315,8.3,10.2,84,0.00,,,0.00,VWS V14.01,2013-03-27 09:15:00,
2013-03-27 05:16:00,32.0,27.8,30.18,NW,316,8.3,8.3,84,0.00,,,0.00,VWS V14.01,2013-03-27 09:16:00,
2013-03-27 05:17:00,32.1,28.0,30.17,NW,318,10.4,10.4,85,0.00,,,0.00,VWS V14.01,2013-03-27 09:17:00,
2013-03-27 05:18:00,32.2,28.1,30.17,NNW,331,10.7,10.7,85,0.00,,,0.00,VWS V14.01,2013-03-27 09:18:00,
2013-03-27 05:19:00,32.0,27.8,30.18,NNW,337,9.7,10.0,84,0.00,,,0.00,VWS V14.01,2013-03-27 09:19:00,
2013-03-27 05:20:00,31.7,27.6,30.22,NW,316,9.5,9.9,85,0.00,,,0.00,VWS V14.01,2013-03-27 09:20:00,
2013-03-27 05:21:00,32.0,27.9,30.19,NW,325,9.5,9.9,85,0.00,,,0.00,VWS V14.01,2013-03-27 09:21:00,
2013-03-27 05:22:00,31.9,27.7,30.18,NW,322,9.2,11.1,85,0.00,,,0.00,VWS V14.01,2013-03-27 09:22:00,
2013-03-27 05:23:00,32.0,27.9,30.18,NNW,327,10.5,10.5,84,0.00,,,0.00,VWS V14.01,2013-03-27 09:23:00,
2013-03-27 05:24:00,32.0,27.8,30.17,NW,321,10.4,11.9,84,0.00,,,0.00,VWS V14.01,2013-03-27 09:24:00,
2013-03-27 05:25:00,31.9,27.7,30.17,WNW,302,10.5,10.5,84,0.00,,,0.00,VWS V14.01,2013-03-27 09:25:00,
2013-03-27 05:26:00,31.6,27.4,30.21,NW,307,8.8,9.0,84,0.00,,,0.00,VWS V14.01,2013-03-27 09:26:00,
2013-03-27 05:27:00,31.6,27.5,30.18,WNW,301,7.6,8.8,85,0.00,,,0.00,VWS V14.01,2013-03-27 09:27:00,
2013-03-27 05:28:00,31.4,27.5,30.19,NW,310,7.5,7.8,85,0.00,,,0.00,VWS V14.01,2013-03-27 09:28:00,
2013-03-27 05:29:00,31.6,27.8,30.19,NW,323,8.8,8.8,86,0.00,,,0.00,VWS V14.01,2013-03-27 09:29:00,
2013-03-27 05:30:00,31.7,27.9,30.18,NW,314,8.7,9.7,86,0.00,,,0.00,VWS V14.01,2013-03-27 09:30:00,
2013-03-27 05:31:00,31.5,27.7,30.18,NW,311,9.7,9.7,86,0.00,,,0.00,VWS V14.01,2013-03-27 09:31:00,
2013-03-27 05:32:00,31.5,27.7,30.18,NW,314,7.3,9.7,86,0.00,,,0.00,VWS V14.01,2013-03-27 09:32:00,
2013-03-27 05:33:00,31.5,27.7,30.18,NW,308,8.1,8.1,86,0.00,,,0.00,VWS V14.01,2013-03-27 09:33:00,
2013-03-27 05:34:00,31.3,27.6,30.19,NW,322,7.5,8.1,86,0.00,,,0.00,VWS V14.01,2013-03-27 09:34:00,
2013-03-27 05:35:00,31.3,27.6,30.19,NW,308,6.9,7.5,86,0.00,,,0.00,VWS V14.01,2013-03-27 09:35:00,
2013-03-27 05:36:00,31.3,27.6,30.19,NW,309,6.6,9.0,86,0.00,,,0.00,VWS V14.01,2013-03-27 09:36:00,
2013-03-27 05:37:00,31.2,27.6,30.19,WNW,303,8.3,8.3,86,0.00,,,0.00,VWS V14.01,2013-03-27 09:37:00,
2013-03-27 05:38:00,30.9,27.3,30.19,WNW,300,6.1,8.3,86,0.00,,,0.00,VWS V14.01,2013-03-27 09:38:00,
2013-03-27 05:39:00,31.1,27.6,30.20,NW,310,8.5,9.5,87,0.00,,,0.00,VWS V14.01,2013-03-27 09:39:00,
2013-03-27 05:40:00,31.4,27.7,30.19,NW,306,7.8,8.5,86,0.00,,,0.00,VWS V14.01,2013-03-27 09:40:00,
2013-03-27 05:41:00,31.2,27.5,30.18,NW,312,7.1,7.8,86,0.00,,,0.00,VWS V14.01,2013-03-27 09:41:00,
2013-03-27 05:42:00,30.9,27.2,30.18,NW,312,8.3,8.3,86,0.00,,,0.00,VWS V14.01,2013-03-27 09:42:00,
2013-03-27 05:43:00,31.3,27.7,30.18,NW,307,7.3,8.3,86,0.00,,,0.00,VWS V14.01,2013-03-27 09:43:00,
2013-03-27 05:44:00,30.6,27.0,30.18,WNW,302,6.8,7.3,86,0.00,,,0.00,VWS V14.01,2013-03-27 09:44:00,
2013-03-27 05:45:00,30.8,27.3,30.19,NW,312,8.1,8.1,87,0.00,,,0.00,VWS V14.01,2013-03-27 09:45:00,
2013-03-27 05:46:00,30.9,27.5,30.19,NW,306,8.8,8.8,87,0.00,,,0.00,VWS V14.01,2013-03-27 09:46:00,
2013-03-27 05:47:00,31.3,27.9,30.19,WNW,301,11.2,11.2,87,0.00,,,0.00,VWS V14.01,2013-03-27 09:47:00,
2013-03-27 05:48:00,31.2,27.6,30.19,WNW,287,8.5,11.2,86,0.00,,,0.00,VWS V14.01,2013-03-27 09:48:00,
2013-03-27 05:49:00,31.2,27.5,30.19,WNW,299,8.3,8.5,86,0.00,,,0.00,VWS V14.01,2013-03-27 09:49:00,
2013-03-27 05:50:00,31.2,27.5,30.18,WNW,285,8.0,9.2,86,0.00,,,0.00,VWS V14.01,2013-03-27 09:50:00,
2013-03-27 05:51:00,31.1,27.3,30.23,NW,306,7.8,8.0,86,0.00,,,0.00,VWS V14.01,2013-03-27 09:51:00,
2013-03-27 05:52:00,31.4,27.9,30.19,WNW,298,9.0,9.0,86,0.00,,,0.00,VWS V14.01,2013-03-27 09:52:00,
2013-03-27 05:53:00,30.8,27.3,30.19,NW,306,9.2,9.2,87,0.00,,,0.00,VWS V14.01,2013-03-27 09:53:00,
2013-03-27 05:54:00,30.9,27.3,30.20,NW,306,7.6,9.2,86,0.00,,,0.00,VWS V14.01,2013-03-27 09:54:00,
2013-03-27 05:55:00,30.7,27.1,30.20,WNW,302,6.6,7.6,86,0.00,,,0.00,VWS V14.01,2013-03-27 09:55:00,
2013-03-27 05:56:00,31.1,27.7,30.19,NW,310,9.9,9.9,87,0.00,,,0.00,VWS V14.01,2013-03-27 09:56:00,
2013-03-27 05:57:00,30.8,27.3,30.19,NW,325,8.5,9.9,87,0.00,,,0.00,VWS V14.01,2013-03-27 09:57:00,
2013-03-27 05:58:00,30.5,27.0,30.19,NW,316,6.3,8.5,87,0.00,,,0.00,VWS V14.01,2013-03-27 09:58:00,
2013-03-27 05:59:00,30.5,27.0,30.18,NW,314,6.1,6.8,87,0.00,,,0.00,VWS V14.01,2013-03-27 09:59:00,
2013-03-27 06:00:00,30.9,27.5,30.24,NW,322,6.9,8.8,87,0.00,,,0.00,VWS V14.01,2013-03-27 10:00:00,
2013-03-27 06:01:00,30.5,27.0,30.20,WNW,303,5.7,6.9,87,0.00,,,0.00,VWS V14.01,2013-03-27 10:01:00,
2013-03-27 06:02:00,30.5,26.9,30.18,NW,315,6.3,6.4,87,0.00,,,0.00,VWS V14.01,2013-03-27 10:02:00,
2013-03-27 06:03:00,30.2,26.8,30.19,NW,322,5.9,6.3,87,0.00,,,0.00,VWS V14.01,2013-03-27 10:03:00,
2013-03-27 06:04:00,30.5,27.2,30.19,NW,319,6.6,6.6,87,0.00,,,0.00,VWS V14.01,2013-03-27 10:04:00,
2013-03-27 06:05:00,30.5,27.3,30.20,NW,308,6.1,6.1,88,0.00,,,0.00,VWS V14.01,2013-03-27 10:05:00,
2013-03-27 06:06:00,29.8,26.5,30.19,NW,304,5.1,6.1,87,0.00,,,0.00,VWS V14.01,2013-03-27 10:06:00,
2013-03-27 06:07:00,30.7,27.4,30.19,NW,314,6.9,6.9,87,0.00,,,0.00,VWS V14.01,2013-03-27 10:07:00,
2013-03-27 06:08:00,30.4,27.2,30.20,NW,317,7.1,7.1,88,0.00,,,0.00,VWS V14.01,2013-03-27 10:08:00,
2013-03-27 06:09:00,30.2,27.0,30.20,NW,325,6.8,7.6,88,0.00,,,0.00,VWS V14.01,2013-03-27 10:09:00,
2013-03-27 06:10:00,30.5,27.3,30.20,NW,319,8.1,8.1,88,0.00,,,0.00,VWS V14.01,2013-03-27 10:10:00,
2013-03-27 06:11:00,30.6,27.4,30.20,NW,315,7.5,7.5,88,0.00,,,0.00,VWS V14.01,2013-03-27 10:11:00,
2013-03-27 06:12:00,30.3,27.2,30.25,NW,308,7.5,7.5,88,0.00,,,0.00,VWS V14.01,2013-03-27 10:12:00,
2013-03-27 06:13:00,30.9,27.8,30.20,NW,322,8.1,8.1,88,0.00,,,0.00,VWS V14.01,2013-03-27 10:13:00,
2013-03-27 06:14:00,30.8,27.6,30.20,NW,310,7.5,8.1,88,0.00,,,0.00,VWS V14.01,2013-03-27 10:14:00,
2013-03-27 06:15:00,29.9,26.7,30.20,NW,309,6.8,7.5,88,0.00,,,0.00,VWS V14.01,2013-03-27 10:15:00,
2013-03-27 06:16:00,29.7,26.6,30.19,NW,311,6.3,6.8,88,0.00,,,0.00,VWS V14.01,2013-03-27 10:16:00,
2013-03-27 06:17:00,29.9,26.8,30.19,NW,315,6.3,6.3,88,0.00,,,0.00,VWS V14.01,2013-03-27 10:17:00,
2013-03-27 06:18:00,30.9,27.9,30.19,West,278,8.7,8.7,89,0.00,,,0.00,VWS V14.01,2013-03-27 10:18:00,
2013-03-27 06:19:00,30.0,26.9,30.19,NW,313,6.1,8.7,88,0.00,,,0.00,VWS V14.01,2013-03-27 10:19:00,
2013-03-27 06:20:00,30.2,27.1,30.20,NW,311,6.4,6.4,88,0.00,,,0.00,VWS V14.01,2013-03-27 10:20:00,
2013-03-27 06:21:00,30.0,26.9,30.20,NW,319,6.1,6.9,88,0.00,,,0.00,VWS V14.01,2013-03-27 10:21:00,
2013-03-27 06:22:00,29.8,26.7,30.20,WNW,303,5.7,6.1,88,0.00,,,0.00,VWS V14.01,2013-03-27 10:22:00,
2013-03-27 06:23:00,29.5,26.4,30.20,NW,310,5.1,5.4,88,0.00,,,0.00,VWS V14.01,2013-03-27 10:23:00,
2013-03-27 06:24:00,29.9,27.0,30.20,NW,317,6.1,6.1,89,0.00,,,0.00,VWS V14.01,2013-03-27 10:24:00,
2013-03-27 06:25:00,29.7,26.8,30.20,NW,308,4.9,6.1,89,0.00,,,0.00,VWS V14.01,2013-03-27 10:25:00,
2013-03-27 06:26:00,29.5,26.7,30.20,NW,318,5.6,5.9,89,0.00,,,0.00,VWS V14.01,2013-03-27 10:26:00,
2013-03-27 06:27:00,29.9,27.2,30.21,NW,306,5.4,5.9,89,0.00,,,0.00,VWS V14.01,2013-03-27 10:27:00,
2013-03-27 06:28:00,29.9,27.2,30.21,NW,306,5.4,5.9,89,0.00,,,0.00,VWS V14.01,2013-03-27 10:28:00,
2013-03-27 06:29:00,29.8,27.1,30.20,NW,308,6.1,6.6,90,0.00,,,0.00,VWS V14.01,2013-03-27 10:29:00,
2013-03-27 06:30:00,29.9,27.2,30.24,NW,306,6.3,6.3,90,0.00,,,0.00,VWS V14.01,2013-03-27 10:30:00,
2013-03-27 06:31:00,29.6,26.8,30.20,NW,308,6.1,6.4,89,0.00,,,0.00,VWS V14.01,2013-03-27 10:31:00,
2013-03-27 06:32:00,29.7,27.0,30.20,NW,315,6.1,6.1,89,0.00,,,0.00,VWS V14.01,2013-03-27 10:32:00,
2013-03-27 06:33:00,29.9,27.3,30.25,WNW,296,4.9,6.1,90,0.00,,,0.00,VWS V14.01,2013-03-27 10:33:00,
2013-03-27 06:34:00,29.7,27.0,30.21,WNW,289,5.6,5.6,89,0.00,,,0.00,VWS V14.01,2013-03-27 10:34:00,
2013-03-27 06:35:00,29.9,27.3,30.21,WNW,302,5.6,6.1,90,0.00,,,0.00,VWS V14.01,2013-03-27 10:35:00,
2013-03-27 06:36:00,29.8,27.2,30.21,NW,314,6.4,6.4,90,0.00,,,0.00,VWS V14.01,2013-03-27 10:36:00,
2013-03-27 06:37:00,29.9,27.3,30.21,NW,310,6.3,6.4,90,0.00,,,0.00,VWS V14.01,2013-03-27 10:37:00,
2013-03-27 06:38:00,29.7,27.1,30.21,WNW,301,5.9,6.4,90,0.00,,,0.00,VWS V14.01,2013-03-27 10:38:00,
2013-03-27 06:39:00,29.5,26.9,30.21,NW,307,6.3,6.3,90,0.00,,,0.00,VWS V14.01,2013-03-27 10:39:00,
2013-03-27 06:40:00,29.5,26.9,30.21,NW,308,5.4,6.3,90,0.00,,,0.00,VWS V14.01,2013-03-27 10:40:00,
2013-03-27 06:41:00,30.0,27.6,30.21,NW,309,6.9,6.9,90,0.00,,,0.00,VWS V14.01,2013-03-27 10:41:00,
2013-03-27 06:42:00,29.6,27.2,30.21,NW,307,6.3,6.9,91,0.00,,,0.00,VWS V14.01,2013-03-27 10:42:00,
2013-03-27 06:43:00,29.5,27.1,30.20,WNW,299,5.9,6.3,91,0.00,,,0.00,VWS V14.01,2013-03-27 10:43:00,
2013-03-27 06:44:00,30.1,27.7,30.20,NW,304,6.1,6.8,91,0.00,,,0.00,VWS V14.01,2013-03-27 10:44:00,
2013-03-27 06:45:00,29.8,27.5,30.21,NW,319,6.4,6.4,91,0.00,,,0.00,VWS V14.01,2013-03-27 10:45:00,
2013-03-27 06:46:00,30.5,28.0,30.25,NW,314,8.3,8.3,91,0.00,,,0.00,VWS V14.01,2013-03-27 10:46:00,
2013-03-27 06:47:00,29.8,27.2,30.22,NW,304,5.6,8.3,90,0.00,,,0.00,VWS V14.01,2013-03-27 10:47:00,
2013-03-27 06:48:00,30.6,28.1,30.21,NW,304,8.3,8.3,90,0.00,,,0.00,VWS V14.01,2013-03-27 10:48:00,
2013-03-27 06:49:00,30.1,27.5,30.21,WNW,297,6.6,8.3,90,0.00,,,0.00,VWS V14.01,2013-03-27 10:49:00,
2013-03-27 06:50:00,29.7,27.2,30.21,NW,305,6.6,6.6,90,0.00,,,0.00,VWS V14.01,2013-03-27 10:50:00,
2013-03-27 06:51:00,29.7,27.2,30.21,WNW,286,6.1,6.1,90,0.00,,,0.00,VWS V14.01,2013-03-27 10:51:00,
2013-03-27 06:52:00,30.0,27.6,30.21,WNW,298,6.4,6.4,90,0.00,,,0.00,VWS V14.01,2013-03-27 10:52:00,
2013-03-27 06:53:00,30.0,27.6,30.21,WNW,296,8.0,8.0,91,0.00,,,0.00,VWS V14.01,2013-03-27 10:53:00,
2013-03-27 06:54:00,29.4,27.0,30.21,NW,305,5.9,8.0,90,0.00,,,0.00,VWS V14.01,2013-03-27 10:54:00,
2013-03-27 06:55:00,29.1,26.6,30.22,NW,307,6.3,6.3,90,0.00,,,0.00,VWS V14.01,2013-03-27 10:55:00,
2013-03-27 06:56:00,29.2,26.8,30.21,WNW,302,5.9,6.3,91,0.00,,,0.00,VWS V14.01,2013-03-27 10:56:00,
2013-03-27 06:57:00,30.0,27.9,30.22,WNW,302,7.6,7.6,91,0.00,,,0.00,VWS V14.01,2013-03-27 10:57:00,
2013-03-27 06:58:00,29.9,27.7,30.21,WNW,293,6.3,7.6,91,0.00,,,0.00,VWS V14.01,2013-03-27 10:58:00,
2013-03-27 06:59:00,29.5,27.3,30.21,WNW,303,6.1,6.3,91,0.00,,,0.00,VWS V14.01,2013-03-27 10:59:00,
2013-03-27 07:00:00,29.4,27.3,30.21,WNW,303,6.4,6.6,92,0.00,,,0.00,VWS V14.01,2013-03-27 11:00:00,
2013-03-27 07:03:00,29.5,27.5,30.21,WNW,301,7.1,7.3,92,0.00,,,0.00,VWS V14.01,2013-03-27 11:03:00,
2013-03-27 07:05:00,29.7,27.7,30.21,WNW,293,6.6,6.9,92,0.00,,,0.00,VWS V14.01,2013-03-27 11:05:00,
2013-03-27 07:06:00,29.2,27.2,30.21,WNW,291,5.7,6.9,92,0.00,,,0.00,VWS V14.01,2013-03-27 11:06:00,
2013-03-27 07:10:00,29.5,27.6,30.23,WNW,292,7.1,7.1,92,0.00,,,0.00,VWS V14.01,2013-03-27 11:10:00,
2013-03-27 07:11:00,29.4,27.4,30.21,WNW,287,5.6,7.1,92,0.00,,,0.00,VWS V14.01,2013-03-27 11:11:00,
2013-03-27 07:12:00,29.6,27.7,30.21,WNW,294,7.5,7.5,92,0.00,,,0.00,VWS V14.01,2013-03-27 11:12:00,
2013-03-27 07:15:00,29.8,28.1,30.26,West,281,8.0,8.0,93,0.00,,,0.00,VWS V14.01,2013-03-27 11:15:00,
2013-03-27 07:17:00,29.7,27.9,30.21,West,277,8.3,8.3,93,0.00,,,0.00,VWS V14.01,2013-03-27 11:17:00,
2013-03-27 07:18:00,29.6,27.7,30.22,NW,316,6.4,8.3,93,0.00,,,0.00,VWS V14.01,2013-03-27 11:18:00,
2013-03-27 07:19:00,29.5,27.6,30.21,NW,309,6.8,6.8,93,0.00,,,0.00,VWS V14.01,2013-03-27 11:19:00,
2013-03-27 07:21:00,29.3,27.5,30.21,WNW,294,5.7,5.7,93,0.00,,,0.00,VWS V14.01,2013-03-27 11:21:00,
2013-03-27 07:22:00,29.8,28.1,30.21,WNW,284,6.6,6.6,93,0.00,,,0.00,VWS V14.01,2013-03-27 11:22:00,
2013-03-27 07:24:00,29.4,27.7,30.21,WNW,287,6.6,6.9,93,0.00,,,0.00,VWS V14.01,2013-03-27 11:24:00,
2013-03-27 07:27:00,29.9,28.3,30.23,WNW,299,8.3,8.3,94,0.00,,,0.00,VWS V14.01,2013-03-27 11:27:00,
2013-03-27 07:29:00,29.5,28.0,30.21,WNW,291,7.3,7.3,94,0.00,,,0.00,VWS V14.01,2013-03-27 11:29:00,
2013-03-27 07:30:00,29.8,28.2,30.21,WNW,289,7.8,7.8,94,0.00,,,0.00,VWS V14.01,2013-03-27 11:30:00,
2013-03-27 07:32:00,29.2,27.6,30.21,WNW,296,5.6,7.3,94,0.00,,,0.00,VWS V14.01,2013-03-27 11:32:00,
2013-03-27 07:33:00,29.4,27.8,30.21,West,281,6.6,6.6,94,0.00,,,0.00,VWS V14.01,2013-03-27 11:33:00,
2013-03-27 07:35:00,29.1,27.4,30.23,WNW,294,4.7,5.9,93,0.00,,,0.00,VWS V14.01,2013-03-27 11:35:00,
2013-03-27 07:37:00,29.7,28.1,30.22,WNW,296,6.3,6.6,93,0.00,,,0.00,VWS V14.01,2013-03-27 11:37:00,
2013-03-27 07:38:00,29.9,28.2,30.22,NW,306,6.9,6.9,93,0.00,,,0.00,VWS V14.01,2013-03-27 11:38:00,
2013-03-27 07:39:00,29.8,28.1,30.21,WNW,293,6.9,6.9,93,0.00,,,0.00,VWS V14.01,2013-03-27 11:39:00,
2013-03-27 07:41:00,29.9,28.0,30.26,NW,310,7.5,7.5,93,0.00,,,0.00,VWS V14.01,2013-03-27 11:41:00,
2013-03-27 07:42:00,29.5,27.5,30.22,WNW,292,6.6,7.6,92,0.00,,,0.00,VWS V14.01,2013-03-27 11:42:00,
2013-03-27 07:43:00,29.7,27.8,30.27,WNW,295,7.5,7.5,92,0.00,,,0.00,VWS V14.01,2013-03-27 11:43:00,
2013-03-27 07:44:00,30.1,28.1,30.23,WNW,300,7.6,7.6,92,0.00,,,0.00,VWS V14.01,2013-03-27 11:44:00,
2013-03-27 07:46:00,29.6,27.5,30.26,WNW,293,6.8,7.5,92,0.00,,,0.00,VWS V14.01,2013-03-27 11:46:00,
2013-03-27 07:47:00,29.6,27.4,30.22,WNW,288,5.9,6.9,92,0.00,,,0.00,VWS V14.01,2013-03-27 11:47:00,
2013-03-27 07:50:00,30.0,27.7,30.23,NW,305,6.6,7.1,91,0.00,,,0.00,VWS V14.01,2013-03-27 11:50:00,
2013-03-27 07:52:00,29.9,27.5,30.22,WNW,298,6.1,7.1,91,0.00,,,0.00,VWS V14.01,2013-03-27 11:52:00,
2013-03-27 07:55:00,29.9,27.4,30.22,WNW,285,6.1,6.1,90,0.00,,,0.00,VWS V14.01,2013-03-27 11:55:00,
2013-03-27 07:56:00,29.9,27.4,30.22,West,281,6.6,6.8,90,0.00,,,0.00,VWS V14.01,2013-03-27 11:56:00,
2013-03-27 07:57:00,29.9,27.4,30.22,WNW,287,5.6,6.9,90,0.00,,,0.00,VWS V14.01,2013-03-27 11:57:00,
2013-03-27 07:59:00,30.1,27.6,30.22,WNW,282,6.6,6.6,90,0.00,,,0.00,VWS V14.01,2013-03-27 11:59:00,
2013-03-27 08:00:00,30.1,27.5,30.22,West,278,5.7,6.6,90,0.00,,,0.00,VWS V14.01,2013-03-27 12:00:00,
2013-03-27 08:01:00,30.4,27.7,30.23,WNW,301,6.8,6.8,90,0.00,,,0.00,VWS V14.01,2013-03-27 12:01:00,
2013-03-27 08:02:00,29.8,27.7,30.22,WNW,296,7.3,7.3,92,0.00,,,0.00,VWS V14.01,2013-03-27 12:02:00,
2013-03-27 08:03:00,29.4,27.3,30.21,WNW,300,5.7,7.3,92,0.00,,,0.00,VWS V14.01,2013-03-27 12:03:00,
2013-03-27 08:04:00,30.6,27.8,30.22,WNW,287,6.6,6.6,89,0.00,,,0.00,VWS V14.01,2013-03-27 12:04:00,
2013-03-27 08:05:00,30.7,27.8,30.23,WNW,284,7.5,7.5,89,0.00,,,0.00,VWS V14.01,2013-03-27 12:05:00,
2013-03-27 08:06:00,30.9,27.9,30.22,WNW,295,6.6,6.9,88,0.00,,,0.00,VWS V14.01,2013-03-27 12:06:00,
2013-03-27 08:07:00,29.7,27.7,30.21,WNW,301,6.6,6.6,92,0.00,,,0.00,VWS V14.01,2013-03-27 12:07:00,
2013-03-27 08:08:00,30.9,27.8,30.22,WNW,283,5.6,7.3,88,0.00,,,0.00,VWS V14.01,2013-03-27 12:08:00,
2013-03-27 08:09:00,31.1,27.9,30.22,WNW,298,5.9,5.9,88,0.00,,,0.00,VWS V14.01,2013-03-27 12:09:00,
2013-03-27 08:10:00,31.1,27.9,30.22,WNW,297,5.9,6.9,88,0.00,,,0.00,VWS V14.01,2013-03-27 12:10:00,
2013-03-27 08:11:00,29.4,27.4,30.21,WNW,287,5.6,7.1,92,0.00,,,0.00,VWS V14.01,2013-03-27 12:11:00,
2013-03-27 08:12:00,29.6,27.7,30.21,WNW,294,7.5,7.5,92,0.00,,,0.00,VWS V14.01,2013-03-27 12:12:00,
2013-03-27 08:13:00,31.4,27.5,30.26,WNW,301,7.6,7.6,85,0.00,,,0.00,VWS V14.01,2013-03-27 12:13:00,
2013-03-27 08:14:00,29.5,27.6,30.22,NW,312,6.9,6.9,93,0.00,,,0.00,VWS V14.01,2013-03-27 12:14:00,
2013-03-27 08:15:00,31.5,27.9,30.22,WNW,295,7.1,7.6,86,0.00,,,0.00,VWS V14.01,2013-03-27 12:15:00,
2013-03-27 08:16:00,31.6,27.8,30.21,WNW,289,5.9,8.1,86,0.00,,,0.00,VWS V14.01,2013-03-27 12:16:00,
2013-03-27 08:17:00,29.7,27.9,30.21,West,277,8.3,8.3,93,0.00,,,0.00,VWS V14.01,2013-03-27 12:17:00,
2013-03-27 08:18:00,29.6,27.7,30.22,NW,316,6.4,8.3,93,0.00,,,0.00,VWS V14.01,2013-03-27 12:18:00,
2013-03-27 08:19:00,31.9,27.8,30.23,WNW,303,7.1,7.5,85,0.00,,,0.00,VWS V14.01,2013-03-27 12:19:00,
2013-03-27 08:20:00,31.9,27.6,30.22,WNW,286,6.3,9.5,84,0.00,,,0.00,VWS V14.01,2013-03-27 12:20:00,
2013-03-27 08:21:00,29.3,27.5,30.21,WNW,294,5.7,8.0,93,0.00,,,0.00,VWS V14.01,2013-03-27 12:21:00,
2013-03-27 08:22:00,32.0,27.6,30.23,NW,304,7.3,7.5,84,0.00,,,0.00,VWS V14.01,2013-03-27 12:22:00,
2013-03-27 08:23:00,31.9,27.5,30.22,WNW,296,8.1,8.8,84,0.00,,,0.00,VWS V14.01,2013-03-27 12:23:00,
2013-03-27 08:24:00,29.4,27.7,30.21,WNW,287,6.6,6.9,93,0.00,,,0.00,VWS V14.01,2013-03-27 12:24:00,
2013-03-27 08:25:00,32.2,27.9,30.22,West,278,6.3,7.6,84,0.00,,,0.00,VWS V14.01,2013-03-27 12:25:00,
2013-03-27 08:26:00,32.1,27.5,30.23,WNW,303,7.6,9.3,83,0.00,,,0.00,VWS V14.01,2013-03-27 12:26:00,
2013-03-27 08:27:00,31.9,27.4,30.22,WNW,289,8.8,9.3,83,0.00,,,0.00,VWS V14.01,2013-03-27 12:27:00,
2013-03-27 08:28:00,32.1,27.4,30.22,WNW,296,9.5,10.5,83,0.00,,,0.00,VWS V14.01,2013-03-27 12:28:00,
2013-03-27 08:29:00,29.6,28.0,30.21,WNW,295,5.7,6.6,94,0.00,,,0.00,VWS V14.01,2013-03-27 12:29:00,
2013-03-27 08:30:00,32.0,27.5,30.23,WNW,292,8.5,8.5,83,0.00,,,0.00,VWS V14.01,2013-03-27 12:30:00,
2013-03-27 08:31:00,32.3,27.6,30.21,WNW,285,7.3,8.8,82,0.00,,,0.00,VWS V14.01,2013-03-27 12:31:00,
2013-03-27 08:32:00,32.3,27.6,30.21,WNW,285,7.3,8.8,82,0.00,,,0.00,VWS V14.01,2013-03-27 12:32:00,
2013-03-27 08:33:00,32.4,27.6,30.23,WNW,295,6.3,7.6,82,0.00,,,0.00,VWS V14.01,2013-03-27 12:33:00,
2013-03-27 08:34:00,29.7,28.1,30.21,NW,306,5.9,8.5,94,0.00,,,0.00,VWS V14.01,2013-03-27 12:34:00,
2013-03-27 08:35:00,29.1,27.4,30.23,WNW,294,4.7,5.9,93,0.00,,,0.00,VWS V14.01,2013-03-27 12:35:00,
2013-03-27 08:36:00,32.2,26.9,30.23,NW,306,7.8,9.0,81,0.00,,,0.00,VWS V14.01,2013-03-27 12:36:00,
2013-03-27 08:37:00,32.2,26.9,30.23,NW,306,7.8,9.0,81,0.00,,,0.00,VWS V14.01,2013-03-27 12:37:00,
2013-03-27 08:38:00,32.5,27.3,30.22,West,279,7.1,8.7,81,0.00,,,0.00,VWS V14.01,2013-03-27 12:38:00,
2013-03-27 08:39:00,29.8,28.1,30.20,WNW,293,6.9,6.9,93,0.00,,,0.00,VWS V14.01,2013-03-27 12:39:00,
2013-03-27 08:40:00,32.4,27.0,30.22,NW,309,8.1,9.2,80,0.00,,,0.00,VWS V14.01,2013-03-27 12:40:00,
2013-03-27 08:41:00,32.8,27.0,30.22,NW,304,8.8,8.8,79,0.00,,,0.00,VWS V14.01,2013-03-27 12:41:00,
2013-03-27 08:42:00,32.2,26.2,30.22,WNW,286,10.5,10.5,78,0.00,,,0.00,VWS V14.01,2013-03-27 12:42:00,
2013-03-27 08:43:00,32.4,26.4,30.22,NW,306,11.9,11.9,78,0.00,,,0.00,VWS V14.01,2013-03-27 12:43:00,
2013-03-27 08:44:00,29.9,27.9,30.22,WNW,300,6.3,7.6,92,0.00,,,0.00,VWS V14.01,2013-03-27 12:44:00,
2013-03-27 08:45:00,32.7,26.4,30.22,NW,316,10.5,12.4,77,0.00,,,0.00,VWS V14.01,2013-03-27 12:45:00,
2013-03-27 08:46:00,29.6,27.5,30.26,WNW,293,6.8,7.5,92,0.00,,,0.00,VWS V14.01,2013-03-27 12:46:00,
2013-03-27 08:47:00,32.8,26.3,30.22,WNW,294,9.7,10.9,77,0.00,,,0.00,VWS V14.01,2013-03-27 12:47:00,
2013-03-27 08:48:00,32.8,26.5,30.22,WNW,292,9.0,9.7,77,0.00,,,0.00,VWS V14.01,2013-03-27 12:48:00,
2013-03-27 08:49:00,33.1,26.5,30.23,WNW,300,10.0,10.9,77,0.00,,,0.00,VWS V14.01,2013-03-27 12:49:00,
2013-03-27 08:50:00,30.0,27.8,30.23,WNW,303,7.1,7.1,91,0.00,,,0.00,VWS V14.01,2013-03-27 12:50:00,
2013-03-27 08:51:00,33.7,27.2,30.22,West,281,6.8,9.5,77,0.00,,,0.00,VWS V14.01,2013-03-27 12:51:00,
2013-03-27 08:52:00,30.1,27.6,30.23,WNW,297,5.7,7.1,90,0.00,,,0.00,VWS V14.01,2013-03-27 12:52:00,
2013-03-27 08:53:00,33.1,26.1,30.21,West,271,12.6,12.6,75,0.00,,,0.00,VWS V14.01,2013-03-27 12:53:00,
2013-03-27 08:54:00,33.6,26.2,30.23,WNW,291,10.4,11.4,74,0.00,,,0.00,VWS V14.01,2013-03-27 12:54:00,
2013-03-27 08:55:00,30.0,27.5,30.22,WNW,288,6.8,6.8,90,0.00,,,0.00,VWS V14.01,2013-03-27 12:55:00,
2013-03-27 08:56:00,33.5,26.1,30.22,NW,311,11.9,12.8,74,0.00,,,0.00,VWS V14.01,2013-03-27 12:56:00,
2013-03-27 08:57:00,29.9,27.4,30.22,WNW,287,5.6,6.9,90,0.00,,,0.00,VWS V14.01,2013-03-27 12:57:00,
2013-03-27 08:58:00,30.0,27.5,30.22,West,281,6.3,6.3,90,0.00,,,0.00,VWS V14.01,2013-03-27 12:58:00,
2013-03-27 08:59:00,30.3,27.8,30.21,West,281,6.3,6.3,90,0.00,,,0.00,VWS V14.01,2013-03-27 12:59:00,
2013-03-27 09:00:00,34.0,26.4,30.23,NW,312,10.4,10.4,73,0.00,,,0.00,VWS V14.01,2013-03-27 13:00:00,
2013-03-27 09:01:00,30.4,27.7,30.22,West,276,6.3,7.8,90,0.00,,,0.00,VWS V14.01,2013-03-27 13:01:00,
2013-03-27 09:02:00,34.3,26.0,30.22,NW,308,10.2,10.7,71,0.00,,,0.00,VWS V14.01,2013-03-27 13:02:00,
2013-03-27 09:03:00,30.4,27.5,30.22,West,279,6.1,7.1,89,0.00,,,0.00,VWS V14.01,2013-03-27 13:03:00,
2013-03-27 09:04:00,30.6,27.8,30.22,WNW,287,6.6,6.6,89,0.00,,,0.00,VWS V14.01,2013-03-27 13:04:00,
2013-03-27 09:05:00,35.0,26.5,30.22,West,278,7.8,12.6,71,0.00,,,0.00,VWS V14.01,2013-03-27 13:05:00,
2013-03-27 09:06:00,30.8,27.9,30.22,WNW,301,6.9,7.5,89,0.00,,,0.00,VWS V14.01,2013-03-27 13:06:00,
2013-03-27 09:07:00,34.0,24.5,30.23,WNW,298,12.3,12.6,68,0.00,,,0.00,VWS V14.01,2013-03-27 13:07:00,
2013-03-27 09:08:00,34.6,25.3,30.22,NNW,336,10.4,12.6,69,0.00,,,0.00,VWS V14.01,2013-03-27 13:08:00,
2013-03-27 09:09:00,31.1,27.9,30.22,WNW,299,6.9,6.9,88,0.00,,,0.00,VWS V14.01,2013-03-27 13:09:00,
2013-03-27 09:10:00,31.3,28.0,30.23,NW,304,6.4,6.9,88,0.00,,,0.00,VWS V14.01,2013-03-27 13:10:00,
2013-03-27 09:11:00,31.4,28.1,30.23,NW,306,8.3,8.3,87,0.00,,,0.00,VWS V14.01,2013-03-27 13:11:00,
2013-03-27 09:12:00,31.4,28.0,30.22,WNW,302,6.8,8.3,87,0.00,,,0.00,VWS V14.01,2013-03-27 13:12:00,
2013-03-27 09:13:00,34.4,24.4,30.24,NW,306,10.7,12.6,67,0.00,,,0.00,VWS V14.01,2013-03-27 13:13:00,
2013-03-27 09:14:00,35.0,25.0,30.23,WNW,291,10.0,12.6,67,0.00,,,0.00,VWS V14.01,2013-03-27 13:14:00,
2013-03-27 09:15:00,34.7,24.9,30.22,WNW,283,11.2,12.6,67,0.00,,,0.00,VWS V14.01,2013-03-27 13:15:00,
2013-03-27 09:16:00,31.6,27.8,30.21,WNW,289,5.9,8.1,86,0.00,,,0.00,VWS V14.01,2013-03-27 13:16:00,
2013-03-27 09:17:00,31.7,27.9,30.22,NW,305,6.6,6.6,86,0.00,,,0.00,VWS V14.01,2013-03-27 13:17:00,
2013-03-27 09:18:00,31.8,27.8,30.22,NW,304,7.5,8.8,85,0.00,,,0.00,VWS V14.01,2013-03-27 13:18:00,
2013-03-27 09:19:00,31.9,27.8,30.23,WNW,303,7.1,7.5,85,0.00,,,0.00,VWS V14.01,2013-03-27 13:19:00,
2013-03-27 09:20:00,34.3,24.0,30.23,NW,312,13.1,13.5,65,0.00,,,0.00,VWS V14.01,2013-03-27 13:20:00,
2013-03-27 09:21:00,31.9,27.6,30.23,West,280,7.5,8.3,84,0.00,,,0.00,VWS V14.01,2013-03-27 13:21:00,
2013-03-27 09:22:00,34.6,24.2,30.22,WNW,296,10.0,13.5,65,0.00,,,0.00,VWS V14.01,2013-03-27 13:22:00,
2013-03-27 09:23:00,34.6,24.2,30.22,WNW,296,10.0,13.5,65,0.00,,,0.00,VWS V14.01,2013-03-27 13:23:00,
2013-03-27 09:24:00,34.9,24.5,30.22,West,263,10.7,13.5,66,0.00,,,0.00,VWS V14.01,2013-03-27 13:24:00,
2013-03-27 09:25:00,32.2,27.9,30.22,West,278,6.3,7.6,84,0.00,,,0.00,VWS V14.01,2013-03-27 13:25:00,
2013-03-27 09:26:00,34.5,23.5,30.23,NW,312,13.8,13.8,64,0.00,,,0.00,VWS V14.01,2013-03-27 13:26:00,
2013-03-27 09:27:00,34.3,23.1,30.22,NW,304,13.3,13.8,63,0.00,,,0.00,VWS V14.01,2013-03-27 13:27:00,
2013-03-27 09:28:00,34.6,23.6,30.22,NW,314,11.7,13.8,64,0.00,,,0.00,VWS V14.01,2013-03-27 13:28:00,
2013-03-27 09:29:00,35.4,24.1,30.22,NW,316,9.7,13.8,63,0.00,,,0.00,VWS V14.01,2013-03-27 13:29:00,
2013-03-27 09:30:00,32.0,27.5,30.23,WNW,292,8.5,8.5,83,0.00,,,0.00,VWS V14.01,2013-03-27 13:30:00,
2013-03-27 09:31:00,32.1,27.3,30.22,WNW,298,8.8,8.8,82,0.00,,,0.00,VWS V14.01,2013-03-27 13:31:00,
2013-03-27 09:32:00,35.4,23.4,30.22,NW,322,12.3,13.8,61,0.00,,,0.00,VWS V14.01,2013-03-27 13:32:00,
2013-03-27 09:33:00,35.7,24.1,30.22,NW,313,10.4,13.8,62,0.00,,,0.00,VWS V14.01,2013-03-27 13:33:00,
2013-03-27 09:34:00,32.6,27.8,30.22,WNW,290,6.3,7.6,82,0.00,,,0.00,VWS V14.01,2013-03-27 13:34:00,
2013-03-27 09:35:00,35.6,23.0,30.22,NW,311,11.1,13.8,60,0.00,,,0.00,VWS V14.01,2013-03-27 13:35:00,
2013-03-27 09:36:00,32.2,26.9,30.23,NW,306,7.8,9.0,81,0.00,,,0.00,VWS V14.01,2013-03-27 13:36:00,
2013-03-27 09:37:00,36.5,24.2,30.22,NW,326,8.3,13.8,60,0.00,,,0.00,VWS V14.01,2013-03-27 13:37:00,
2013-03-27 09:38:00,32.3,26.8,30.22,WNW,287,9.5,9.5,80,0.00,,,0.00,VWS V14.01,2013-03-27 13:38:00,
2013-03-27 09:39:00,36.7,23.9,30.22,WNW,303,8.5,13.8,59,0.00,,,0.00,VWS V14.01,2013-03-27 13:39:00,
2013-03-27 09:40:00,35.4,21.4,30.22,NW,309,14.6,14.6,56,0.00,,,0.00,VWS V14.01,2013-03-27 13:40:00,
2013-03-27 09:41:00,32.8,27.0,30.22,NW,304,8.8,8.8,79,0.00,,,0.00,VWS V14.01,2013-03-27 13:41:00,
2013-03-27 09:42:00,32.8,27.0,30.22,NW,306,8.7,10.5,79,0.00,,,0.00,VWS V14.01,2013-03-27 13:42:00,
2013-03-27 09:43:00,36.3,21.3,30.22,NNW,329,10.4,16.2,54,0.00,,,0.00,VWS V14.01,2013-03-27 13:43:00,
2013-03-27 09:44:00,36.5,22.3,30.22,NW,314,10.2,16.2,56,0.00,,,0.00,VWS V14.01,2013-03-27 13:44:00,
2013-03-27 09:45:00,37.3,22.3,30.21,NW,316,6.4,16.2,54,0.00,,,0.00,VWS V14.01,2013-03-27 13:45:00,
2013-03-27 09:46:00,32.6,26.3,30.22,WNW,299,10.9,10.9,77,0.00,,,0.00,VWS V14.01,2013-03-27 13:46:00,
2013-03-27 09:47:00,32.8,26.3,30.22,WNW,294,9.7,10.9,77,0.00,,,0.00,VWS V14.01,2013-03-27 13:47:00,
2013-03-27 09:48:00,32.9,26.3,30.23,WNW,302,10.9,10.9,76,0.00,,,0.00,VWS V14.01,2013-03-27 13:48:00,
2013-03-27 09:49:00,36.6,21.0,30.22,NW,304,9.0,16.2,53,0.00,,,0.00,VWS V14.01,2013-03-27 13:49:00,
2013-03-27 09:50:00,33.3,26.5,30.22,NW,305,9.5,9.9,76,0.00,,,0.00,VWS V14.01,2013-03-27 13:50:00,
2013-03-27 09:51:00,36.1,20.1,30.22,WNW,302,12.4,16.2,52,0.00,,,0.00,VWS V14.01,2013-03-27 13:51:00,
2013-03-27 09:52:00,33.1,26.0,30.21,WNW,297,11.4,11.4,75,0.00,,,0.00,VWS V14.01,2013-03-27 13:52:00,
2013-03-27 09:53:00,36.9,19.0,30.22,NW,307,10.4,16.2,48,0.00,,,0.00,VWS V14.01,2013-03-27 13:53:00,
2013-03-27 09:54:00,35.7,18.8,30.22,NNW,330,18.8,18.8,50,0.00,,,0.00,VWS V14.01,2013-03-27 13:54:00,
2013-03-27 09:55:00,33.9,26.6,30.23,WNW,291,9.5,11.4,74,0.00,,,0.00,VWS V14.01,2013-03-27 13:55:00,
2013-03-27 09:56:00,33.5,26.1,30.22,NW,311,11.9,12.8,74,0.00,,,0.00,VWS V14.01,2013-03-27 13:56:00,
2013-03-27 09:57:00,36.1,19.3,30.22,NW,318,13.6,18.8,50,0.00,,,0.00,VWS V14.01,2013-03-27 13:57:00,
2013-03-27 09:58:00,36.7,21.1,30.22,WNW,303,12.4,18.8,53,0.00,,,0.00,VWS V14.01,2013-03-27 13:58:00,
2013-03-27 09:59:00,33.8,26.4,30.23,WNW,293,8.1,11.6,74,0.00,,,0.00,VWS V14.01,2013-03-27 13:59:00,
2013-03-27 10:00:00,33.8,26.2,30.23,WNW,294,10.0,10.4,73,0.00,,,0.00,VWS V14.01,2013-03-27 14:00:00,
2013-03-27 10:01:00,37.1,20.7,30.22,NW,320,12.9,18.8,51,0.00,,,0.00,VWS V14.01,2013-03-27 14:01:00,
2013-03-27 10:02:00,37.4,20.6,30.21,NNE,21,6.6,12.9,50,0.00,,,0.00,VWS V14.01,2013-03-27 14:02:00,
2013-03-27 10:03:00,37.0,19.6,30.22,NNW,345,9.9,9.9,49,0.00,,,0.00,VWS V14.01,2013-03-27 14:03:00,
2013-03-27 10:04:00,36.2,18.9,30.21,NW,315,13.3,13.3,49,0.00,,,0.00,VWS V14.01,2013-03-27 14:04:00,
2013-03-27 10:05:00,39.0,22.4,30.21,WNW,286,10.4,13.3,51,0.00,,,0.00,VWS V14.01,2013-03-27 14:05:00,
2013-03-27 10:06:00,37.2,20.2,30.21,NW,314,13.6,15.7,50,0.00,,,0.00,VWS V14.01,2013-03-27 14:06:00,
2013-03-27 10:07:00,36.6,19.1,30.21,NW,306,15.3,15.3,49,0.00,,,0.00,VWS V14.01,2013-03-27 14:07:00,
2013-03-27 10:08:00,36.8,19.9,30.22,NW,323,15.0,15.3,50,0.00,,,0.00,VWS V14.01,2013-03-27 14:08:00,
2013-03-27 10:09:00,37.2,19.8,30.22,NW,317,12.3,15.0,49,0.00,,,0.00,VWS V14.01,2013-03-27 14:09:00,
2013-03-27 10:10:00,37.9,20.7,30.21,NW,310,12.1,12.3,50,0.00,,,0.00,VWS V14.01,2013-03-27 14:10:00,
2013-03-27 10:11:00,37.1,19.8,30.21,NW,313,11.2,12.1,49,0.00,,,0.00,VWS V14.01,2013-03-27 14:11:00,
2013-03-27 10:12:00,36.8,18.7,30.22,WNW,297,14.8,14.8,48,0.00,,,0.00,VWS V14.01,2013-03-27 14:12:00,
2013-03-27 10:13:00,36.3,17.8,30.22,NW,323,18.9,18.9,46,0.00,,,0.00,VWS V14.01,2013-03-27 14:13:00,
2013-03-27 10:14:00,36.6,18.2,30.25,NW,326,16.7,18.9,47,0.00,,,0.00,VWS V14.01,2013-03-27 14:14:00,
2013-03-27 10:15:00,37.7,20.0,30.22,NW,315,16.4,16.4,48,0.00,,,0.00,VWS V14.01,2013-03-27 14:15:00,
2013-03-27 10:16:00,37.1,19.7,30.22,NW,307,13.8,13.8,49,0.00,,,0.00,VWS V14.01,2013-03-27 14:16:00,
2013-03-27 10:17:00,37.4,18.8,30.21,NNW,327,13.3,13.3,47,0.00,,,0.00,VWS V14.01,2013-03-27 14:17:00,
2013-03-27 10:18:00,37.5,19.4,30.22,NW,312,12.9,13.3,48,0.00,,,0.00,VWS V14.01,2013-03-27 14:18:00,
2013-03-27 10:19:00,37.4,18.5,30.21,NW,320,17.7,17.7,46,0.00,,,0.00,VWS V14.01,2013-03-27 14:19:00,
2013-03-27 10:20:00,36.6,18.3,30.22,WNW,302,14.5,14.5,47,0.00,,,0.00,VWS V14.01,2013-03-27 14:20:00,
2013-03-27 10:21:00,39.2,21.4,30.22,NNW,343,5.6,14.6,49,0.00,,,0.00,VWS V14.01,2013-03-27 14:21:00,
2013-03-27 10:22:00,37.8,18.6,30.22,NW,312,11.7,11.7,45,0.00,,,0.00,VWS V14.01,2013-03-27 14:22:00,
2013-03-27 10:23:00,39.6,20.8,30.21,NNE,15,4.4,11.7,47,0.00,,,0.00,VWS V14.01,2013-03-27 14:23:00,
2013-03-27 10:24:00,39.0,19.9,30.20,NNW,327,9.9,9.9,46,0.00,,,0.00,VWS V14.01,2013-03-27 14:24:00,
2013-03-27 10:25:00,38.1,19.9,30.21,NNW,331,7.6,8.1,47,0.00,,,0.00,VWS V14.01,2013-03-27 14:25:00,
2013-03-27 10:26:00,38.4,19.2,30.22,NNW,329,7.6,8.1,46,0.00,,,0.00,VWS V14.01,2013-03-27 14:26:00,
2013-03-27 10:27:00,38.6,19.5,30.21,NNW,338,8.5,8.5,46,0.00,,,0.00,VWS V14.01,2013-03-27 14:27:00,
2013-03-27 10:28:00,38.7,19.4,30.21,NNW,329,6.3,6.9,45,0.00,,,0.00,VWS V14.01,2013-03-27 14:28:00,
2013-03-27 10:29:00,38.2,18.7,30.21,West,281,14.3,14.3,45,0.00,,,0.00,VWS V14.01,2013-03-27 14:29:00,
2013-03-27 10:30:00,37.4,17.6,30.22,NW,323,15.5,17.9,44,0.00,,,0.00,VWS V14.01,2013-03-27 14:30:00,
2013-03-27 10:31:00,37.2,18.1,30.21,NW,315,16.5,16.5,46,0.00,,,0.00,VWS V14.01,2013-03-27 14:31:00,
2013-03-27 10:32:00,37.9,18.4,30.22,NNW,348,8.8,17.7,45,0.00,,,0.00,VWS V14.01,2013-03-27 14:32:00,
2013-03-27 10:33:00,39.3,20.4,30.21,NW,317,13.8,13.8,46,0.00,,,0.00,VWS V14.01,2013-03-27 14:33:00,
2013-03-27 10:34:00,37.4,17.4,30.22,NW,305,11.9,13.8,44,0.00,,,0.00,VWS V14.01,2013-03-27 14:34:00,
2013-03-27 10:35:00,38.2,19.0,30.21,WNW,300,6.6,11.9,45,0.00,,,0.00,VWS V14.01,2013-03-27 14:35:00,
2013-03-27 10:36:00,38.5,18.5,30.22,NW,326,11.7,11.7,44,0.00,,,0.00,VWS V14.01,2013-03-27 14:36:00,
2013-03-27 10:37:00,37.8,17.2,30.26,WNW,298,12.3,12.3,43,0.00,,,0.00,VWS V14.01,2013-03-27 14:37:00,
2013-03-27 10:38:00,37.7,17.5,30.22,NW,312,13.1,14.6,44,0.00,,,0.00,VWS V14.01,2013-03-27 14:38:00,
2013-03-27 10:39:00,39.3,19.6,30.21,WNW,298,13.6,13.6,45,0.00,,,0.00,VWS V14.01,2013-03-27 14:39:00,
2013-03-27 10:40:00,37.7,17.9,30.21,NNW,328,15.2,15.2,44,0.00,,,0.00,VWS V14.01,2013-03-27 14:40:00,
2013-03-27 10:41:00,38.7,19.8,30.22,WNW,301,11.2,15.2,46,0.00,,,0.00,VWS V14.01,2013-03-27 14:41:00,
2013-03-27 10:42:00,39.2,19.8,30.21,NW,308,9.3,11.2,45,0.00,,,0.00,VWS V14.01,2013-03-27 14:42:00,
2013-03-27 10:43:00,39.5,20.0,30.22,NNW,332,10.7,11.6,45,0.00,,,0.00,VWS V14.01,2013-03-27 14:43:00,
2013-03-27 10:44:00,40.0,20.0,30.22,NW,306,10.2,10.7,44,0.00,,,0.00,VWS V14.01,2013-03-27 14:44:00,
2013-03-27 10:45:00,40.0,19.1,30.22,North,0,5.6,10.2,43,0.00,,,0.00,VWS V14.01,2013-03-27 14:45:00,
2013-03-27 10:46:00,39.8,18.7,30.21,NW,321,6.1,7.3,42,0.00,,,0.00,VWS V14.01,2013-03-27 14:46:00,
2013-03-27 10:47:00,38.9,17.4,30.22,NW,322,6.9,10.7,41,0.00,,,0.00,VWS V14.01,2013-03-27 14:47:00,
2013-03-27 10:48:00,39.3,18.0,30.21,NW,322,9.5,13.1,42,0.00,,,0.00,VWS V14.01,2013-03-27 14:48:00,
2013-03-27 10:49:00,39.3,18.7,30.21,NNW,328,10.0,10.0,43,0.00,,,0.00,VWS V14.01,2013-03-27 14:49:00,
2013-03-27 10:50:00,37.8,15.5,30.22,NW,325,18.1,18.1,40,0.00,,,0.00,VWS V14.01,2013-03-27 14:50:00,
2013-03-27 10:51:00,39.5,17.3,30.21,NW,317,14.5,18.1,40,0.00,,,0.00,VWS V14.01,2013-03-27 14:51:00,
2013-03-27 10:52:00,38.0,16.5,30.21,NW,309,14.1,15.5,41,0.00,,,0.00,VWS V14.01,2013-03-27 14:52:00,
2013-03-27 10:53:00,39.0,17.9,30.22,NW,324,11.7,11.7,42,0.00,,,0.00,VWS V14.01,2013-03-27 14:53:00,
2013-03-27 10:54:00,39.0,16.9,30.26,NNW,343,9.9,11.7,40,0.00,,,0.00,VWS V14.01,2013-03-27 14:54:00,
2013-03-27 10:55:00,39.4,18.2,30.22,NW,314,15.8,15.8,42,0.00,,,0.00,VWS V14.01,2013-03-27 14:55:00,
2013-03-27 10:56:00,39.4,18.3,30.22,NW,311,16.2,16.2,42,0.00,,,0.00,VWS V14.01,2013-03-27 14:56:00,
2013-03-27 10:57:00,39.9,18.6,30.22,NNW,340,13.1,16.2,42,0.00,,,0.00,VWS V14.01,2013-03-27 14:57:00,
2013-03-27 10:58:00,39.0,17.9,30.22,NW,326,12.6,14.5,42,0.00,,,0.00,VWS V14.01,2013-03-27 14:58:00,
2013-03-27 10:59:00,40.0,17.4,30.21,NNW,340,13.5,14.3,40,0.00,,,0.00,VWS V14.01,2013-03-27 14:59:00,
2013-03-27 11:00:00,37.2,14.8,30.21,NNW,330,14.8,14.8,40,0.00,,,0.00,VWS V14.01,2013-03-27 15:00:00,
2013-03-27 11:02:00,38.5,17.8,30.22,NW,325,14.0,16.2,43,0.00,,,0.00,VWS V14.01,2013-03-27 15:02:00,
2013-03-27 11:03:00,38.5,17.5,30.22,NW,320,14.1,16.2,42,0.00,,,0.00,VWS V14.01,2013-03-27 15:03:00,
2013-03-27 11:04:00,38.5,17.6,30.22,NW,313,17.6,17.6,42,0.00,,,0.00,VWS V14.01,2013-03-27 15:04:00,
2013-03-27 11:05:00,39.9,19.1,30.22,WNW,303,15.7,17.6,43,0.00,,,0.00,VWS V14.01,2013-03-27 15:05:00,
2013-03-27 11:08:00,38.6,16.6,30.22,NNW,336,15.3,19.8,40,0.00,,,0.00,VWS V14.01,2013-03-27 15:08:00,
2013-03-27 11:09:00,38.9,15.8,30.22,NNW,346,14.6,19.8,39,0.00,,,0.00,VWS V14.01,2013-03-27 15:09:00,
2013-03-27 11:10:00,41.9,21.0,30.22,NW,305,13.5,19.8,43,0.00,,,0.00,VWS V14.01,2013-03-27 15:10:00,
2013-03-27 11:12:00,39.6,16.6,30.22,WNW,302,16.4,19.8,39,0.00,,,0.00,VWS V14.01,2013-03-27 15:12:00,
2013-03-27 11:13:00,38.9,16.2,30.22,NW,307,20.6,20.6,39,0.00,,,0.00,VWS V14.01,2013-03-27 15:13:00,
2013-03-27 11:15:00,38.2,14.4,30.20,NW,309,15.7,20.6,37,0.00,,,0.00,VWS V14.01,2013-03-27 15:15:00,
2013-03-27 11:16:00,38.7,14.7,30.21,NE,39,12.1,20.6,37,0.00,,,0.00,VWS V14.01,2013-03-27 15:16:00,
2013-03-27 11:17:00,38.9,15.8,30.21,NW,324,16.2,20.6,38,0.00,,,0.00,VWS V14.01,2013-03-27 15:17:00,
2013-03-27 11:19:00,40.3,17.9,30.22,NW,316,13.6,20.6,40,0.00,,,0.00,VWS V14.01,2013-03-27 15:19:00,
2013-03-27 11:21:00,38.6,16.1,30.22,NW,321,17.6,24.4,40,0.00,,,0.00,VWS V14.01,2013-03-27 15:21:00,
2013-03-27 11:22:00,38.4,16.2,30.21,WNW,303,13.8,24.4,40,0.00,,,0.00,VWS V14.01,2013-03-27 15:22:00,
2013-03-27 11:25:00,39.3,17.1,30.21,NNW,327,17.0,24.4,40,0.00,,,0.00,VWS V14.01,2013-03-27 15:25:00,
2013-03-27 11:26:00,37.8,14.8,30.22,NW,324,16.5,24.4,38,0.00,,,0.00,VWS V14.01,2013-03-27 15:26:00,
2013-03-27 11:27:00,40.0,18.4,30.22,NW,305,16.0,24.4,41,0.00,,,0.00,VWS V14.01,2013-03-27 15:27:00,
2013-03-27 11:29:00,41.4,19.5,30.22,WNW,303,12.6,24.4,41,0.00,,,0.00,VWS V14.01,2013-03-27 15:29:00,
2013-03-27 11:31:00,38.8,17.7,30.22,NW,311,14.1,24.4,42,0.00,,,0.00,VWS V14.01,2013-03-27 15:31:00,
2013-03-27 11:32:00,38.0,17.0,30.21,NW,320,12.9,24.4,42,0.00,,,0.00,VWS V14.01,2013-03-27 15:32:00,
2013-03-27 11:33:00,37.8,16.0,30.22,NNW,345,15.5,24.4,41,0.00,,,0.00,VWS V14.01,2013-03-27 15:33:00,
2013-03-27 11:35:00,38.3,17.8,30.22,NNW,345,8.8,24.4,43,0.00,,,0.00,VWS V14.01,2013-03-27 15:35:00,
2013-03-27 11:38:00,38.5,17.3,30.21,NW,305,14.8,24.4,42,0.00,,,0.00,VWS V14.01,2013-03-27 15:38:00,
2013-03-27 11:39:00,41.1,20.1,30.21,WNW,292,11.2,24.4,43,0.00,,,0.00,VWS V14.01,2013-03-27 15:39:00,
2013-03-27 11:40:00,42.0,20.6,30.22,WNW,300,11.7,24.4,42,0.00,,,0.00,VWS V14.01,2013-03-27 15:40:00,
2013-03-27 11:41:00,39.5,16.8,30.21,WNW,301,16.9,24.4,39,0.00,,,0.00,VWS V14.01,2013-03-27 15:41:00,
2013-03-27 11:43:00,39.6,15.3,30.21,NNW,327,13.8,24.4,37,0.00,,,0.00,VWS V14.01,2013-03-27 15:43:00,
2013-03-27 11:44:00,41.2,17.8,30.21,NNW,327,13.1,24.4,38,0.00,,,0.00,VWS V14.01,2013-03-27 15:44:00,
2013-03-27 11:48:00,42.9,19.2,30.21,NNW,333,10.2,24.4,38,0.00,,,0.00,VWS V14.01,2013-03-27 15:48:00,
2013-03-27 11:50:00,39.9,14.7,30.21,NNW,336,12.3,24.4,35,0.00,,,0.00,VWS V14.01,2013-03-27 15:50:00,
2013-03-27 11:52:00,40.3,16.0,30.21,NNW,338,15.0,24.4,37,0.00,,,0.00,VWS V14.01,2013-03-27 15:52:00,
2013-03-27 11:54:00,39.4,16.6,30.22,NW,315,18.1,24.4,39,0.00,,,0.00,VWS V14.01,2013-03-27 15:54:00,
2013-03-27 11:55:00,40.3,17.9,30.22,North,1,11.6,24.4,40,0.00,,,0.00,VWS V14.01,2013-03-27 15:55:00,
2013-03-27 11:57:00,40.8,17.6,30.22,NW,316,19.4,24.4,39,0.00,,,0.00,VWS V14.01,2013-03-27 15:57:00,
2013-03-27 11:58:00,40.2,16.1,30.21,North,1,20.5,24.4,37,0.00,,,0.00,VWS V14.01,2013-03-27 15:58:00,
2013-03-27 12:00:00,39.8,15.7,30.25,NW,314,15.7,24.4,37,0.00,,,0.00,VWS V14.01,2013-03-27 16:00:00,
2013-03-27 12:03:00,40.0,15.8,30.21,NNW,341,6.9,22.0,37,0.00,,,0.00,VWS V14.01,2013-03-27 16:03:00,
2013-03-27 12:04:00,39.9,15.7,30.20,NNW,335,6.6,22.0,37,0.00,,,0.00,VWS V14.01,2013-03-27 16:04:00,
2013-03-27 12:05:00,40.8,16.4,30.20,NNW,330,9.0,22.0,37,0.00,,,0.00,VWS V14.01,2013-03-27 16:05:00,
2013-03-27 12:07:00,39.3,16.1,30.21,NNW,347,14.0,22.0,38,0.00,,,0.00,VWS V14.01,2013-03-27 16:07:00,
2013-03-27 12:09:00,39.4,16.5,30.21,NW,318,7.6,22.0,39,0.00,,,0.00,VWS V14.01,2013-03-27 16:09:00,
2013-03-27 12:10:00,40.2,17.1,30.21,NNW,335,11.2,22.0,39,0.00,,,0.00,VWS V14.01,2013-03-27 16:10:00,
2013-03-27 12:13:00,40.4,15.9,30.21,WNW,293,14.8,22.0,36,0.00,,,0.00,VWS V14.01,2013-03-27 16:13:00,
2013-03-27 12:14:00,41.6,18.9,30.21,WNW,296,12.8,22.0,40,0.00,,,0.00,VWS V14.01,2013-03-27 16:14:00,
2013-03-27 12:17:00,40.5,17.4,30.21,NW,319,19.8,22.0,39,0.00,,,0.00,VWS V14.01,2013-03-27 16:17:00,
2013-03-27 12:19:00,40.2,16.5,30.21,NW,305,17.2,22.0,38,0.00,,,0.00,VWS V14.01,2013-03-27 16:19:00,
2013-03-27 12:20:00,40.3,15.7,30.21,NW,321,16.9,22.0,36,0.00,,,0.00,VWS V14.01,2013-03-27 16:20:00,
2013-03-27 12:22:00,40.9,16.1,30.21,NNW,330,17.0,22.2,36,0.00,,,0.00,VWS V14.01,2013-03-27 16:22:00,
2013-03-27 12:23:00,39.2,14.0,30.20,NW,309,20.5,22.2,35,0.00,,,0.00,VWS V14.01,2013-03-27 16:23:00,
2013-03-27 12:24:00,41.7,17.2,30.21,NNW,333,13.3,22.2,37,0.00,,,0.00,VWS V14.01,2013-03-27 16:24:00,
2013-03-27 12:26:00,40.0,13.9,30.21,NNW,328,23.0,24.7,34,0.00,,,0.00,VWS V14.01,2013-03-27 16:26:00,
2013-03-27 12:30:00,39.0,14.6,30.21,NW,322,18.2,24.7,36,0.00,,,0.00,VWS V14.01,2013-03-27 16:30:00,
2013-03-27 12:32:00,39.5,16.1,30.21,NW,320,10.5,24.7,38,0.00,,,0.00,VWS V14.01,2013-03-27 16:32:00,
2013-03-27 12:34:00,40.7,17.5,30.20,NW,313,17.4,24.7,39,0.00,,,0.00,VWS V14.01,2013-03-27 16:34:00,
2013-03-27 12:37:00,40.5,16.7,30.21,NW,314,14.5,24.7,38,0.00,,,0.00,VWS V14.01,2013-03-27 16:37:00,
2013-03-27 12:38:00,40.2,16.5,30.21,NW,320,20.6,24.7,38,0.00,,,0.00,VWS V14.01,2013-03-27 16:38:00,
2013-03-27 12:40:00,40.3,17.0,30.21,West,281,17.2,24.7,38,0.00,,,0.00,VWS V14.01,2013-03-27 16:40:00,
2013-03-27 12:42:00,40.0,17.0,30.22,NW,315,16.2,24.7,39,0.00,,,0.00,VWS V14.01,2013-03-27 16:42:00,
2013-03-27 12:45:00,39.6,16.3,30.21,NW,313,12.9,24.7,38,0.00,,,0.00,VWS V14.01,2013-03-27 16:45:00,
2013-03-27 12:46:00,40.0,17.1,30.21,NW,326,18.2,24.7,39,0.00,,,0.00,VWS V14.01,2013-03-27 16:46:00,
2013-03-27 12:50:00,39.8,16.2,30.20,NNW,334,14.1,24.7,38,0.00,,,0.00,VWS V14.01,2013-03-27 16:50:00,
2013-03-27 12:51:00,40.0,16.3,30.20,NNW,327,16.0,24.7,38,0.00,,,0.00,VWS V14.01,2013-03-27 16:51:00,
2013-03-27 12:56:00,43.6,18.8,30.20,NW,320,16.2,24.7,37,0.00,,,0.00,VWS V14.01,2013-03-27 16:56:00,
2013-03-27 12:57:00,44.3,19.6,30.21,NW,304,14.8,24.7,37,0.00,,,0.00,VWS V14.01,2013-03-27 16:57:00,
2013-03-27 12:58:00,40.3,14.3,30.20,WNW,299,9.7,24.7,34,0.00,,,0.00,VWS V14.01,2013-03-27 16:58:00,
2013-03-27 12:59:00,40.3,14.3,30.20,WNW,299,9.7,24.7,34,0.00,,,0.00,VWS V14.01,2013-03-27 16:59:00,
2013-03-27 13:00:00,41.2,17.9,30.21,WNW,301,13.8,13.8,39,0.00,,,0.00,VWS V14.01,2013-03-27 17:00:00,
2013-03-27 13:01:00,41.2,16.2,30.21,NW,312,14.6,24.7,36,0.00,,,0.00,VWS V14.01,2013-03-27 17:01:00,
2013-03-27 13:02:00,41.1,16.1,30.21,NW,323,14.5,14.6,36,0.00,,,0.00,VWS V14.01,2013-03-27 17:02:00,
2013-03-27 13:03:00,43.6,19.6,30.22,NNW,327,16.9,16.9,38,0.00,,,0.00,VWS V14.01,2013-03-27 17:03:00,
2013-03-27 13:04:00,40.6,13.9,30.21,NW,320,12.3,12.3,33,0.00,,,0.00,VWS V14.01,2013-03-27 17:04:00,
2013-03-27 13:05:00,42.0,17.6,30.21,NW,319,16.4,16.4,37,0.00,,,0.00,VWS V14.01,2013-03-27 17:05:00,
2013-03-27 13:06:00,40.4,16.7,30.20,WNW,290,12.6,16.4,38,0.00,,,0.00,VWS V14.01,2013-03-27 17:06:00,
2013-03-27 13:07:00,41.2,16.2,30.21,West,281,16.4,16.4,36,0.00,,,0.00,VWS V14.01,2013-03-27 17:07:00,
2013-03-27 13:08:00,39.9,14.0,30.21,WNW,286,19.4,19.4,34,0.00,,,0.00,VWS V14.01,2013-03-27 17:08:00,
2013-03-27 13:09:00,40.1,14.6,30.20,NW,325,20.5,20.5,35,0.00,,,0.00,VWS V14.01,2013-03-27 17:09:00,
2013-03-27 13:10:00,39.5,14.4,30.21,WNW,296,19.4,19.4,35,0.00,,,0.00,VWS V14.01,2013-03-27 17:10:00,
2013-03-27 13:11:00,39.3,13.7,30.21,NW,313,15.2,19.4,35,0.00,,,0.00,VWS V14.01,2013-03-27 17:11:00,
2013-03-27 13:12:00,40.6,16.5,30.21,NNW,329,13.1,15.2,37,0.00,,,0.00,VWS V14.01,2013-03-27 17:12:00,
2013-03-27 13:13:00,40.7,16.9,30.20,NW,312,15.2,15.8,38,0.00,,,0.00,VWS V14.01,2013-03-27 17:13:00,
2013-03-27 13:14:00,40.9,17.1,30.20,NW,322,14.8,16.2,38,0.00,,,0.00,VWS V14.01,2013-03-27 17:14:00,
2013-03-27 13:15:00,41.1,17.7,30.20,WNW,289,16.4,21.0,38,0.00,,,0.00,VWS V14.01,2013-03-27 17:15:00,
2013-03-27 13:16:00,39.9,14.2,30.21,NW,313,21.7,21.7,35,0.00,,,0.00,VWS V14.01,2013-03-27 17:16:00,
2013-03-27 13:17:00,40.7,16.7,30.20,NW,321,16.0,21.7,37,0.00,,,0.00,VWS V14.01,2013-03-27 17:17:00,
2013-03-27 13:18:00,40.7,14.6,30.20,NNW,331,15.7,16.0,34,0.00,,,0.00,VWS V14.01,2013-03-27 17:18:00,
2013-03-27 13:19:00,42.2,16.6,30.21,NNE,14,8.0,15.7,35,0.00,,,0.00,VWS V14.01,2013-03-27 17:19:00,
2013-03-27 13:20:00,42.4,14.9,30.21,NNW,328,15.3,15.3,32,0.00,,,0.00,VWS V14.01,2013-03-27 17:20:00,
2013-03-27 13:21:00,41.4,13.1,30.21,NW,324,13.5,13.5,31,0.00,,,0.00,VWS V14.01,2013-03-27 17:21:00,
2013-03-27 13:22:00,42.0,13.4,30.20,NW,322,9.5,12.4,31,0.00,,,0.00,VWS V14.01,2013-03-27 17:22:00,
2013-03-27 13:23:00,41.9,14.6,30.19,NW,314,11.9,11.9,33,0.00,,,0.00,VWS V14.01,2013-03-27 17:23:00,
2013-03-27 13:25:00,40.7,13.0,30.20,NW,324,16.7,16.7,32,0.00,,,0.00,VWS V14.01,2013-03-27 17:25:00,
2013-03-27 13:26:00,41.6,14.8,30.21,NNW,333,18.9,18.9,33,0.00,,,0.00,VWS V14.01,2013-03-27 17:26:00,
2013-03-27 13:27:00,42.2,15.3,30.20,NNW,327,14.6,14.6,33,0.00,,,0.00,VWS V14.01,2013-03-27 17:27:00,
2013-03-27 13:28:00,41.6,16.0,30.24,NW,314,19.1,19.4,35,0.00,,,0.00,VWS V14.01,2013-03-27 17:28:00,
2013-03-27 13:29:00,42.8,17.6,30.21,NNW,327,15.8,19.1,36,0.00,,,0.00,VWS V14.01,2013-03-27 17:29:00,
2013-03-27 13:30:00,41.0,13.6,30.21,NW,311,18.2,18.2,32,0.00,,,0.00,VWS V14.01,2013-03-27 17:30:00,
2013-03-27 13:31:00,41.0,12.9,30.21,NW,325,15.0,18.2,31,0.00,,,0.00,VWS V14.01,2013-03-27 17:31:00,
2013-03-27 13:32:00,42.8,17.2,30.20,NW,306,14.5,15.3,35,0.00,,,0.00,VWS V14.01,2013-03-27 17:32:00,
2013-03-27 13:33:00,41.9,14.8,30.20,West,281,12.8,15.3,33,0.00,,,0.00,VWS V14.01,2013-03-27 17:33:00,
2013-03-27 13:34:00,42.5,15.7,30.20,NW,321,16.0,16.2,33,0.00,,,0.00,VWS V14.01,2013-03-27 17:34:00,
2013-03-27 13:35:00,41.6,12.1,30.20,NNW,330,14.5,16.0,29,0.00,,,0.00,VWS V14.01,2013-03-27 17:35:00,
2013-03-27 13:36:00,41.4,11.9,30.20,NW,309,12.9,14.5,29,0.00,,,0.00,VWS V14.01,2013-03-27 17:36:00,
2013-03-27 13:37:00,43.2,15.3,30.20,NW,324,12.6,12.9,32,0.00,,,0.00,VWS V14.01,2013-03-27 17:37:00,
2013-03-27 13:38:00,42.0,12.7,30.19,NW,305,14.0,14.0,30,0.00,,,0.00,VWS V14.01,2013-03-27 17:38:00,
2013-03-27 13:39:00,41.6,13.4,30.19,WNW,297,11.9,15.8,31,0.00,,,0.00,VWS V14.01,2013-03-27 17:39:00,
2013-03-27 13:40:00,42.0,14.6,30.20,NNW,329,8.5,8.5,32,0.00,,,0.00,VWS V14.01,2013-03-27 17:40:00,
2013-03-27 13:41:00,40.7,12.7,30.20,NNW,340,16.0,16.0,31,0.00,,,0.00,VWS V14.01,2013-03-27 17:41:00,
2013-03-27 13:42:00,41.0,13.5,30.20,NW,322,12.4,16.0,32,0.00,,,0.00,VWS V14.01,2013-03-27 17:42:00,
2013-03-27 13:43:00,40.9,13.2,30.20,NNW,329,11.7,15.7,32,0.00,,,0.00,VWS V14.01,2013-03-27 17:43:00,
2013-03-27 13:44:00,41.3,13.9,30.24,NW,309,12.6,12.6,32,0.00,,,0.00,VWS V14.01,2013-03-27 17:44:00,
2013-03-27 13:45:00,41.5,12.4,30.20,NNW,348,10.0,13.3,30,0.00,,,0.00,VWS V14.01,2013-03-27 17:45:00,
2013-03-27 13:46:00,43.0,15.1,30.18,NNW,331,8.5,10.0,32,0.00,,,0.00,VWS V14.01,2013-03-27 17:46:00,
2013-03-27 13:47:00,43.0,13.1,30.18,NNW,331,8.8,8.8,29,0.00,,,0.00,VWS V14.01,2013-03-27 17:47:00,
2013-03-27 13:48:00,42.5,11.8,30.19,WNW,288,18.8,18.8,28,0.00,,,0.00,VWS V14.01,2013-03-27 17:48:00,
2013-03-27 13:49:00,41.2,11.0,30.20,NW,305,21.2,21.2,28,0.00,,,0.00,VWS V14.01,2013-03-27 17:49:00,
2013-03-27 13:50:00,42.6,12.8,30.20,NW,307,17.7,21.2,29,0.00,,,0.00,VWS V14.01,2013-03-27 17:50:00,
2013-03-27 13:51:00,44.7,16.5,30.19,WNW,285,13.8,13.8,32,0.00,,,0.00,VWS V14.01,2013-03-27 17:51:00,
2013-03-27 13:52:00,43.4,14.1,30.19,NW,304,13.4,14.3,30,0.00,,,0.00,VWS V14.01,2013-03-27 17:52:00,
2013-03-27 13:53:00,45.4,17.2,30.20,NW,314,15.2,15.2,32,0.00,,,0.00,VWS V14.01,2013-03-27 17:53:00,
2013-03-27 13:54:00,41.8,10.8,30.19,NNW,328,14.0,16.0,28,0.00,,,0.00,VWS V14.01,2013-03-27 17:54:00,
2013-03-27 13:55:00,42.6,12.5,30.18,NW,307,11.6,14.0,29,0.00,,,0.00,VWS V14.01,2013-03-27 17:55:00,
2013-03-27 13:56:00,43.8,14.9,30.18,NW,319,12.9,14.3,31,0.00,,,0.00,VWS V14.01,2013-03-27 17:56:00,
2013-03-27 13:57:00,42.4,12.1,30.18,West,280,19.8,19.8,29,0.00,,,0.00,VWS V14.01,2013-03-27 17:57:00,
2013-03-27 13:58:00,42.9,14.1,30.19,NW,318,15.2,19.8,31,0.00,,,0.00,VWS V14.01,2013-03-27 17:58:00,
2013-03-27 13:59:00,42.8,12.6,30.19,NW,314,14.0,15.2,29,0.00,,,0.00,VWS V14.01,2013-03-27 17:59:00,
2013-03-27 14:00:00,41.7,11.5,30.18,NNE,14,9.9,21.2,29,0.00,,,0.00,VWS V14.01,2013-03-27 18:00:00,
2013-03-27 14:01:00,41.7,12.4,30.18,NNW,327,11.6,17.7,30,0.00,,,0.00,VWS V14.01,2013-03-27 18:01:00,
2013-03-27 14:02:00,41.0,11.2,30.19,NNW,336,11.2,12.8,29,0.00,,,0.00,VWS V14.01,2013-03-27 18:02:00,
2013-03-27 14:03:00,41.5,12.4,30.19,NW,320,11.6,15.0,30,0.00,,,0.00,VWS V14.01,2013-03-27 18:03:00,
2013-03-27 14:04:00,41.6,12.6,30.18,NNW,327,14.5,14.5,30,0.00,,,0.00,VWS V14.01,2013-03-27 18:04:00,
2013-03-27 14:05:00,42.1,13.7,30.19,NW,308,19.6,19.6,31,0.00,,,0.00,VWS V14.01,2013-03-27 18:05:00,
2013-03-27 14:06:00,43.7,15.9,30.19,NW,311,17.4,19.6,32,0.00,,,0.00,VWS V14.01,2013-03-27 18:06:00,
2013-03-27 14:07:00,42.2,11.9,30.18,NW,320,17.9,17.9,28,0.00,,,0.00,VWS V14.01,2013-03-27 18:07:00,
2013-03-27 14:08:00,42.9,13.2,30.17,NW,311,18.4,18.4,29,0.00,,,0.00,VWS V14.01,2013-03-27 18:08:00,
2013-03-27 14:09:00,46.5,18.8,30.19,WNW,300,13.6,18.4,33,0.00,,,0.00,VWS V14.01,2013-03-27 18:09:00,
2013-03-27 14:10:00,43.9,14.2,30.19,WNW,303,17.2,18.4,30,0.00,,,0.00,VWS V14.01,2013-03-27 18:10:00,
2013-03-27 14:11:00,43.0,13.7,30.19,WNW,300,17.2,17.2,30,0.00,,,0.00,VWS V14.01,2013-03-27 18:11:00,
2013-03-27 14:12:00,43.2,15.4,30.18,NW,310,12.8,17.2,32,0.00,,,0.00,VWS V14.01,2013-03-27 18:12:00,
2013-03-27 14:13:00,47.2,17.6,30.17,WNW,292,15.2,16.5,30,0.00,,,0.00,VWS V14.01,2013-03-27 18:13:00,
2013-03-27 14:14:00,45.1,16.5,30.18,WNW,302,14.3,15.2,31,0.00,,,0.00,VWS V14.01,2013-03-27 18:14:00,
2013-03-27 14:15:00,43.7,14.1,30.19,NW,322,15.2,15.2,30,0.00,,,0.00,VWS V14.01,2013-03-27 18:15:00,
2013-03-27 14:16:00,44.9,15.0,30.18,NW,318,13.8,15.2,30,0.00,,,0.00,VWS V14.01,2013-03-27 18:16:00,
2013-03-27 14:17:00,42.9,15.0,30.19,WNW,302,11.9,13.8,32,0.00,,,0.00,VWS V14.01,2013-03-27 18:17:00,
2013-03-27 14:18:00,42.8,13.9,30.19,WSW,240,16.4,16.4,31,0.00,,,0.00,VWS V14.01,2013-03-27 18:18:00,
2013-03-27 14:20:00,40.8,12.5,30.18,NW,308,23.0,23.0,31,0.00,,,0.00,VWS V14.01,2013-03-27 18:20:00,
2013-03-27 14:21:00,40.9,12.6,30.19,NW,314,15.8,23.0,31,0.00,,,0.00,VWS V14.01,2013-03-27 18:21:00,
2013-03-27 14:22:00,41.1,12.6,30.18,NNW,337,18.2,18.2,31,0.00,,,0.00,VWS V14.01,2013-03-27 18:22:00,
2013-03-27 14:23:00,41.5,13.8,30.19,NW,304,16.4,20.3,32,0.00,,,0.00,VWS V14.01,2013-03-27 18:23:00,
2013-03-27 14:24:00,42.1,12.9,30.19,NNW,335,13.1,16.4,30,0.00,,,0.00,VWS V14.01,2013-03-27 18:24:00,
2013-03-27 14:25:00,43.0,13.8,30.18,NW,321,14.0,14.0,30,0.00,,,0.00,VWS V14.01,2013-03-27 18:25:00,
2013-03-27 14:26:00,45.3,14.8,30.18,NW,326,14.5,14.5,29,0.00,,,0.00,VWS V14.01,2013-03-27 18:26:00,
2013-03-27 14:27:00,41.4,11.1,30.18,NW,307,18.4,18.4,28,0.00,,,0.00,VWS V14.01,2013-03-27 18:27:00,
2013-03-27 14:28:00,42.3,10.7,30.18,WNW,295,15.7,20.1,27,0.00,,,0.00,VWS V14.01,2013-03-27 18:28:00,
2013-03-27 14:29:00,41.8,9.9,30.19,WNW,303,10.5,10.5,26,0.00,,,0.00,VWS V14.01,2013-03-27 18:29:00,
2013-03-27 14:30:00,42.1,12.2,30.19,WNW,302,8.5,10.9,29,0.00,,,0.00,VWS V14.01,2013-03-27 18:30:00,
2013-03-27 14:31:00,42.9,12.8,30.22,NW,325,8.7,10.5,29,0.00,,,0.00,VWS V14.01,2013-03-27 18:31:00,
2013-03-27 14:32:00,43.9,13.9,30.20,NNW,348,8.3,8.3,29,0.00,,,0.00,VWS V14.01,2013-03-27 18:32:00,
2013-03-27 14:33:00,42.3,12.0,30.18,NNW,339,8.5,8.5,29,0.00,,,0.00,VWS V14.01,2013-03-27 18:33:00,
2013-03-27 14:34:00,42.9,13.6,30.18,NNW,332,13.3,13.3,30,0.00,,,0.00,VWS V14.01,2013-03-27 18:34:00,
2013-03-27 14:35:00,43.5,15.0,30.18,West,281,14.8,14.8,31,0.00,,,0.00,VWS V14.01,2013-03-27 18:35:00,
2013-03-27 14:36:00,45.2,17.5,30.19,West,271,13.6,15.2,33,0.00,,,0.00,VWS V14.01,2013-03-27 18:36:00,
2013-03-27 14:37:00,45.2,17.5,30.19,West,271,13.6,15.2,33,0.00,,,0.00,VWS V14.01,2013-03-27 18:37:00,
2013-03-27 14:38:00,42.6,12.9,30.19,WNW,287,15.0,15.5,29,0.00,,,0.00,VWS V14.01,2013-03-27 18:38:00,
2013-03-27 14:39:00,43.4,14.0,30.19,NW,317,11.7,12.8,30,0.00,,,0.00,VWS V14.01,2013-03-27 18:39:00,
2013-03-27 14:40:00,43.0,11.1,30.18,NW,321,14.0,14.3,27,0.00,,,0.00,VWS V14.01,2013-03-27 18:40:00,
2013-03-27 14:41:00,42.5,11.7,30.18,NW,321,13.3,15.8,28,0.00,,,0.00,VWS V14.01,2013-03-27 18:41:00,
2013-03-27 14:42:00,41.9,10.7,30.19,NW,319,17.7,17.7,27,0.00,,,0.00,VWS V14.01,2013-03-27 18:42:00,
2013-03-27 14:43:00,43.8,12.1,30.18,NW,322,11.4,17.7,27,0.00,,,0.00,VWS V14.01,2013-03-27 18:43:00,
2013-03-27 14:44:00,45.0,13.7,30.19,NW,325,11.9,11.9,28,0.00,,,0.00,VWS V14.01,2013-03-27 18:44:00,
2013-03-27 14:45:00,45.6,14.8,30.18,NW,312,13.6,13.6,28,0.00,,,0.00,VWS V14.01,2013-03-27 18:45:00,
2013-03-27 14:46:00,44.3,12.8,30.17,NW,317,16.0,16.2,27,0.00,,,0.00,VWS V14.01,2013-03-27 18:46:00,
2013-03-27 14:47:00,43.2,12.6,30.18,West,268,16.0,16.0,28,0.00,,,0.00,VWS V14.01,2013-03-27 18:47:00,
2013-03-27 14:48:00,43.3,13.5,30.17,West,277,15.3,16.0,29,0.00,,,0.00,VWS V14.01,2013-03-27 18:48:00,
2013-03-27 14:49:00,43.4,13.9,30.18,WNW,284,13.3,15.3,30,0.00,,,0.00,VWS V14.01,2013-03-27 18:49:00,
2013-03-27 14:50:00,44.4,15.7,30.17,West,273,13.3,13.3,31,0.00,,,0.00,VWS V14.01,2013-03-27 18:50:00,
2013-03-27 14:51:00,42.9,13.3,30.18,West,266,12.6,16.5,30,0.00,,,0.00,VWS V14.01,2013-03-27 18:51:00,
2013-03-27 14:52:00,43.7,15.0,30.17,West,266,12.9,16.4,31,0.00,,,0.00,VWS V14.01,2013-03-27 18:52:00,
2013-03-27 14:53:00,42.1,11.2,30.17,NW,308,20.5,20.5,28,0.00,,,0.00,VWS V14.01,2013-03-27 18:53:00,
2013-03-27 14:54:00,41.9,11.9,30.17,WNW,293,19.1,20.5,29,0.00,,,0.00,VWS V14.01,2013-03-27 18:54:00,
2013-03-27 14:55:00,42.0,12.4,30.17,WNW,290,16.7,19.1,29,0.00,,,0.00,VWS V14.01,2013-03-27 18:55:00,
2013-03-27 14:56:00,43.1,14.1,30.17,NW,311,18.6,18.6,30,0.00,,,0.00,VWS V14.01,2013-03-27 18:56:00,
2013-03-27 14:57:00,41.7,9.9,30.19,WNW,296,14.6,18.6,27,0.00,,,0.00,VWS V14.01,2013-03-27 18:57:00,
2013-03-27 14:58:00,42.1,9.5,30.18,NW,317,15.5,15.5,26,0.00,,,0.00,VWS V14.01,2013-03-27 18:58:00,
2013-03-27 14:59:00,42.6,10.0,30.18,NW,320,14.6,15.5,26,0.00,,,0.00,VWS V14.01,2013-03-27 18:59:00,
2013-03-27 15:00:00,43.0,14.4,30.18,WNW,284,15.3,15.3,31,0.00,,,0.00,VWS V14.01,2013-03-27 19:00:00,
2013-03-27 15:01:00,41.7,11.1,30.19,WNW,282,20.5,20.5,28,0.00,,,0.00,VWS V14.01,2013-03-27 19:01:00,
2013-03-27 15:02:00,42.4,12.7,30.19,WNW,293,18.6,20.5,29,0.00,,,0.00,VWS V14.01,2013-03-27 19:02:00,
2013-03-27 15:03:00,43.9,14.5,30.18,WNW,297,14.1,18.6,30,0.00,,,0.00,VWS V14.01,2013-03-27 19:03:00,
2013-03-27 15:04:00,43.0,13.6,30.18,NW,312,15.8,16.4,30,0.00,,,0.00,VWS V14.01,2013-03-27 19:04:00,
2013-03-27 15:05:00,42.9,9.6,30.18,WNW,294,17.2,17.2,25,0.00,,,0.00,VWS V14.01,2013-03-27 19:05:00,
2013-03-27 15:06:00,42.6,13.9,30.18,West,264,19.1,21.2,31,0.00,,,0.00,VWS V14.01,2013-03-27 19:06:00,
2013-03-27 15:07:00,42.7,13.9,30.18,WNW,287,19.3,19.3,31,0.00,,,0.00,VWS V14.01,2013-03-27 19:07:00,
2013-03-27 15:08:00,41.8,13.0,30.18,NW,309,21.0,21.0,30,0.00,,,0.00,VWS V14.01,2013-03-27 19:08:00,
2013-03-27 15:09:00,41.8,14.0,30.18,NW,313,17.7,17.7,32,0.00,,,0.00,VWS V14.01,2013-03-27 19:09:00,
2013-03-27 15:10:00,42.9,14.9,30.19,NW,315,14.3,20.8,32,0.00,,,0.00,VWS V14.01,2013-03-27 19:10:00,
2013-03-27 15:11:00,42.4,13.9,30.18,NW,319,15.0,15.5,31,0.00,,,0.00,VWS V14.01,2013-03-27 19:11:00,
2013-03-27 15:12:00,42.7,13.9,30.18,NW,319,16.5,16.5,31,0.00,,,0.00,VWS V14.01,2013-03-27 19:12:00,
2013-03-27 15:13:00,42.3,12.0,30.19,North,351,14.5,16.7,29,0.00,,,0.00,VWS V14.01,2013-03-27 19:13:00,
2013-03-27 15:14:00,41.9,11.4,30.19,WNW,300,16.7,16.7,28,0.00,,,0.00,VWS V14.01,2013-03-27 19:14:00,
2013-03-27 15:15:00,41.6,10.9,30.22,WNW,298,18.2,18.2,28,0.00,,,0.00,VWS V14.01,2013-03-27 19:15:00,
2013-03-27 15:16:00,41.7,11.6,30.19,WNW,301,16.9,18.2,29,0.00,,,0.00,VWS V14.01,2013-03-27 19:16:00,
2013-03-27 15:17:00,42.3,13.0,30.18,WNW,303,13.6,13.6,30,0.00,,,0.00,VWS V14.01,2013-03-27 19:17:00,
2013-03-27 15:18:00,43.6,15.3,30.18,NW,326,11.1,13.6,31,0.00,,,0.00,VWS V14.01,2013-03-27 19:18:00,
2013-03-27 15:19:00,44.0,16.4,30.18,NW,310,12.1,12.1,32,0.00,,,0.00,VWS V14.01,2013-03-27 19:19:00,
2013-03-27 15:20:00,42.1,11.9,30.18,WNW,301,16.4,16.4,29,0.00,,,0.00,VWS V14.01,2013-03-27 19:20:00,
2013-03-27 15:21:00,44.8,15.6,30.17,West,274,19.3,19.3,30,0.00,,,0.00,VWS V14.01,2013-03-27 19:21:00,
2013-03-27 15:22:00,43.1,13.9,30.18,WNW,290,20.1,20.1,30,0.00,,,0.00,VWS V14.01,2013-03-27 19:22:00,
2013-03-27 15:23:00,44.2,15.8,30.17,WNW,302,14.6,18.2,32,0.00,,,0.00,VWS V14.01,2013-03-27 19:23:00,
2013-03-27 15:24:00,42.8,12.5,30.18,WNW,295,17.4,17.4,29,0.00,,,0.00,VWS V14.01,2013-03-27 19:24:00,
2013-03-27 15:25:00,43.3,11.9,30.18,WNW,296,15.0,17.4,27,0.00,,,0.00,VWS V14.01,2013-03-27 19:25:00,
2013-03-27 15:26:00,42.9,12.8,30.18,West,280,12.9,15.0,29,0.00,,,0.00,VWS V14.01,2013-03-27 19:26:00,
2013-03-27 15:27:00,43.0,12.7,30.19,NW,319,16.9,16.9,29,0.00,,,0.00,VWS V14.01,2013-03-27 19:27:00,
2013-03-27 15:28:00,42.5,11.6,30.18,NW,304,15.8,21.5,28,0.00,,,0.00,VWS V14.01,2013-03-27 19:28:00,
2013-03-27 15:29:00,42.9,11.0,30.18,WNW,302,15.2,15.8,27,0.00,,,0.00,VWS V14.01,2013-03-27 19:29:00,
2013-03-27 15:30:00,44.7,15.9,30.18,NW,308,13.8,15.2,31,0.00,,,0.00,VWS V14.01,2013-03-27 19:30:00,
2013-03-27 15:31:00,42.7,11.7,30.18,WNW,291,14.1,14.1,28,0.00,,,0.00,VWS V14.01,2013-03-27 19:31:00,
2013-03-27 15:32:00,44.0,13.8,30.18,NW,309,18.4,18.4,29,0.00,,,0.00,VWS V14.01,2013-03-27 19:32:00,
2013-03-27 15:33:00,44.0,13.9,30.18,West,260,13.1,19.4,29,0.00,,,0.00,VWS V14.01,2013-03-27 19:33:00,
2013-03-27 15:34:00,42.4,11.2,30.17,West,277,15.2,15.2,28,0.00,,,0.00,VWS V14.01,2013-03-27 19:34:00,
2013-03-27 15:35:00,43.1,3.9,30.17,NNW,327,22.4,22.4,19,0.00,,,0.00,VWS V14.01,2013-03-27 19:35:00,
2013-03-27 15:36:00,43.1,12.3,30.18,NW,321,19.4,22.4,28,0.00,,,0.00,VWS V14.01,2013-03-27 19:36:00,
2013-03-27 15:37:00,42.2,12.4,30.18,WNW,289,19.8,23.0,29,0.00,,,0.00,VWS V14.01,2013-03-27 19:37:00,
2013-03-27 15:38:00,41.8,9.4,30.18,WNW,301,20.6,20.6,26,0.00,,,0.00,VWS V14.01,2013-03-27 19:38:00,
2013-03-27 15:39:00,42.2,13.1,30.19,NNW,327,17.0,17.0,30,0.00,,,0.00,VWS V14.01,2013-03-27 19:39:00,
2013-03-27 15:40:00,42.1,11.9,30.19,NW,322,24.1,24.1,29,0.00,,,0.00,VWS V14.01,2013-03-27 19:40:00,
2013-03-27 15:41:00,41.9,11.3,30.18,NW,320,19.4,24.1,28,0.00,,,0.00,VWS V14.01,2013-03-27 19:41:00,
2013-03-27 15:42:00,41.8,11.2,30.21,NW,317,20.6,20.6,28,0.00,,,0.00,VWS V14.01,2013-03-27 19:42:00,
2013-03-27 15:43:00,42.6,13.3,30.19,WNW,290,16.4,20.6,30,0.00,,,0.00,VWS V14.01,2013-03-27 19:43:00,
2013-03-27 15:44:00,43.5,15.0,30.19,NW,309,14.0,16.4,31,0.00,,,0.00,VWS V14.01,2013-03-27 19:44:00,
2013-03-27 15:45:00,42.9,13.7,30.18,WNW,289,15.2,15.8,30,0.00,,,0.00,VWS V14.01,2013-03-27 19:45:00,
2013-03-27 15:46:00,41.9,11.9,30.18,NW,306,15.3,15.3,29,0.00,,,0.00,VWS V14.01,2013-03-27 19:46:00,
2013-03-27 15:47:00,42.2,11.6,30.19,WNW,293,15.3,15.3,28,0.00,,,0.00,VWS V14.01,2013-03-27 19:47:00,
2013-03-27 15:48:00,42.3,12.0,30.18,NW,305,18.6,18.6,29,0.00,,,0.00,VWS V14.01,2013-03-27 19:48:00,
2013-03-27 15:49:00,42.3,11.6,30.19,NW,322,15.8,18.6,28,0.00,,,0.00,VWS V14.01,2013-03-27 19:49:00,
2013-03-27 15:50:00,42.5,11.2,30.19,NW,322,17.7,19.6,27,0.00,,,0.00,VWS V14.01,2013-03-27 19:50:00,
2013-03-27 15:51:00,43.0,13.4,30.18,WNW,298,13.5,13.5,30,0.00,,,0.00,VWS V14.01,2013-03-27 19:51:00,
2013-03-27 15:52:00,44.3,15.6,30.18,NW,322,10.7,14.0,31,0.00,,,0.00,VWS V14.01,2013-03-27 19:52:00,
2013-03-27 15:53:00,43.1,13.9,30.18,WNW,290,11.9,15.8,30,0.00,,,0.00,VWS V14.01,2013-03-27 19:53:00,
2013-03-27 15:54:00,42.8,12.4,30.18,West,280,13.5,13.5,29,0.00,,,0.00,VWS V14.01,2013-03-27 19:54:00,
2013-03-27 15:55:00,41.9,8.6,30.18,West,277,18.1,18.1,25,0.00,,,0.00,VWS V14.01,2013-03-27 19:55:00,
2013-03-27 15:56:00,41.9,12.1,30.19,West,277,12.6,18.1,29,0.00,,,0.00,VWS V14.01,2013-03-27 19:56:00,
2013-03-27 15:57:00,42.6,12.1,30.18,WNW,295,13.3,13.3,28,0.00,,,0.00,VWS V14.01,2013-03-27 19:57:00,
2013-03-27 15:58:00,42.6,13.2,30.18,WNW,291,15.3,17.9,30,0.00,,,0.00,VWS V14.01,2013-03-27 19:58:00,
2013-03-27 15:59:00,42.8,13.8,30.18,NW,305,16.5,18.6,30,0.00,,,0.00,VWS V14.01,2013-03-27 19:59:00,
2013-03-27 16:00:00,42.2,12.8,30.18,NW,316,18.4,18.4,30,0.00,,,0.00,VWS V14.01,2013-03-27 20:00:00,
2013-03-27 16:01:00,41.8,12.6,30.17,WNW,299,14.8,18.2,30,0.00,,,0.00,VWS V14.01,2013-03-27 20:01:00,
2013-03-27 16:02:00,41.6,11.7,30.18,WNW,285,15.0,15.0,29,0.00,,,0.00,VWS V14.01,2013-03-27 20:02:00,
2013-03-27 16:03:00,41.9,13.4,30.17,WNW,303,14.0,15.0,31,0.00,,,0.00,VWS V14.01,2013-03-27 20:03:00,
2013-03-27 16:04:00,42.3,13.2,30.18,NW,314,17.6,17.6,30,0.00,,,0.00,VWS V14.01,2013-03-27 20:04:00,
2013-03-27 16:05:00,43.6,16.1,30.18,NW,307,11.7,17.6,33,0.00,,,0.00,VWS V14.01,2013-03-27 20:05:00,
2013-03-27 16:06:00,43.3,15.0,30.18,NNW,342,14.5,14.5,31,0.00,,,0.00,VWS V14.01,2013-03-27 20:06:00,
2013-03-27 16:07:00,42.5,12.5,30.18,NW,324,16.4,16.4,29,0.00,,,0.00,VWS V14.01,2013-03-27 20:07:00,
2013-03-27 16:08:00,42.6,14.0,30.18,NW,315,13.1,16.4,31,0.00,,,0.00,VWS V14.01,2013-03-27 20:08:00,
2013-03-27 16:09:00,43.0,14.0,30.18,NW,321,16.2,16.2,30,0.00,,,0.00,VWS V14.01,2013-03-27 20:09:00,
2013-03-27 16:10:00,43.8,15.0,30.18,NW,309,14.6,18.4,31,0.00,,,0.00,VWS V14.01,2013-03-27 20:10:00,
2013-03-27 16:11:00,42.3,12.0,30.18,NW,323,17.9,17.9,29,0.00,,,0.00,VWS V14.01,2013-03-27 20:11:00,
2013-03-27 16:12:00,42.7,13.7,30.18,NW,311,13.1,17.9,30,0.00,,,0.00,VWS V14.01,2013-03-27 20:12:00,
2013-03-27 16:13:00,42.6,11.6,30.18,WNW,299,15.0,15.0,28,0.00,,,0.00,VWS V14.01,2013-03-27 20:13:00,
2013-03-27 16:14:00,42.0,11.0,30.18,NW,315,15.8,16.7,28,0.00,,,0.00,VWS V14.01,2013-03-27 20:14:00,
2013-03-27 16:15:00,42.3,12.0,30.18,NW,304,13.1,15.8,29,0.00,,,0.00,VWS V14.01,2013-03-27 20:15:00,
2013-03-27 16:16:00,41.7,11.5,30.18,WNW,289,14.8,14.8,29,0.00,,,0.00,VWS V14.01,2013-03-27 20:16:00,
2013-03-27 16:17:00,42.9,13.9,30.18,WNW,303,14.0,14.8,30,0.00,,,0.00,VWS V14.01,2013-03-27 20:17:00,
2013-03-27 16:18:00,43.1,14.1,30.18,WNW,286,14.0,14.0,30,0.00,,,0.00,VWS V14.01,2013-03-27 20:18:00,
2013-03-27 16:19:00,42.9,11.2,30.18,NW,304,12.8,14.0,27,0.00,,,0.00,VWS V14.01,2013-03-27 20:19:00,
2013-03-27 16:20:00,43.1,14.7,30.18,West,277,11.9,11.9,31,0.00,,,0.00,VWS V14.01,2013-03-27 20:20:00,
2013-03-27 16:21:00,44.0,14.8,30.18,West,279,11.1,12.3,30,0.00,,,0.00,VWS V14.01,2013-03-27 20:21:00,
2013-03-27 16:22:00,42.2,11.5,30.18,West,277,18.8,18.8,28,0.00,,,0.00,VWS V14.01,2013-03-27 20:22:00,
2013-03-27 16:23:00,43.2,13.8,30.18,West,279,18.1,18.8,30,0.00,,,0.00,VWS V14.01,2013-03-27 20:23:00,
2013-03-27 16:24:00,42.8,14.5,30.18,NW,314,14.1,18.1,31,0.00,,,0.00,VWS V14.01,2013-03-27 20:24:00,
2013-03-27 16:25:00,42.5,14.0,30.18,WNW,285,15.5,19.3,31,0.00,,,0.00,VWS V14.01,2013-03-27 20:25:00,
2013-03-27 16:26:00,41.8,12.2,30.18,WNW,286,18.1,19.3,29,0.00,,,0.00,VWS V14.01,2013-03-27 20:26:00,
2013-03-27 16:27:00,42.2,12.2,30.18,WNW,296,14.8,18.1,29,0.00,,,0.00,VWS V14.01,2013-03-27 20:27:00,
2013-03-27 16:28:00,42.3,12.4,30.17,NW,317,20.0,20.0,29,0.00,,,0.00,VWS V14.01,2013-03-27 20:28:00,
2013-03-27 16:29:00,43.5,15.1,30.18,NW,310,12.6,19.4,31,0.00,,,0.00,VWS V14.01,2013-03-27 20:29:00,
2013-03-27 16:30:00,42.7,12.8,30.19,NNW,327,15.3,19.4,29,0.00,,,0.00,VWS V14.01,2013-03-27 20:30:00,
2013-03-27 16:31:00,41.9,7.2,30.18,NW,318,19.4,19.4,23,0.00,,,0.00,VWS V14.01,2013-03-27 20:31:00,
2013-03-27 16:32:00,42.9,13.3,30.18,NW,305,14.1,19.4,30,0.00,,,0.00,VWS V14.01,2013-03-27 20:32:00,
2013-03-27 16:33:00,42.8,12.7,30.18,NW,306,16.7,16.7,29,0.00,,,0.00,VWS V14.01,2013-03-27 20:33:00,
2013-03-27 16:34:00,42.0,11.3,30.18,NW,306,15.2,16.7,28,0.00,,,0.00,VWS V14.01,2013-03-27 20:34:00,
2013-03-27 16:35:00,43.2,12.8,30.18,NNW,327,13.1,15.2,29,0.00,,,0.00,VWS V14.01,2013-03-27 20:35:00,
2013-03-27 16:36:00,43.5,13.9,30.18,WNW,301,14.1,15.2,30,0.00,,,0.00,VWS V14.01,2013-03-27 20:36:00,
2013-03-27 16:37:00,42.3,12.5,30.18,West,281,16.4,16.7,29,0.00,,,0.00,VWS V14.01,2013-03-27 20:37:00,
2013-03-27 16:38:00,42.4,12.3,30.18,WNW,297,17.4,17.4,29,0.00,,,0.00,VWS V14.01,2013-03-27 20:38:00,
2013-03-27 16:39:00,42.5,13.1,30.18,WNW,293,16.0,17.4,30,0.00,,,0.00,VWS V14.01,2013-03-27 20:39:00,
2013-03-27 16:40:00,41.9,12.1,30.18,WNW,292,21.2,21.2,29,0.00,,,0.00,VWS V14.01,2013-03-27 20:40:00,
2013-03-27 16:41:00,42.1,12.6,30.18,WNW,285,19.6,21.2,30,0.00,,,0.00,VWS V14.01,2013-03-27 20:41:00,
2013-03-27 16:42:00,42.7,7.2,30.18,NW,317,12.4,18.6,23,0.00,,,0.00,VWS V14.01,2013-03-27 20:42:00,
2013-03-27 16:43:00,41.9,12.6,30.18,NW,314,16.9,16.9,30,0.00,,,0.00,VWS V14.01,2013-03-27 20:43:00,
2013-03-27 16:44:00,42.2,12.7,30.18,NW,313,19.6,21.7,30,0.00,,,0.00,VWS V14.01,2013-03-27 20:44:00,
2013-03-27 16:45:00,42.1,12.1,30.18,NW,312,17.7,19.6,29,0.00,,,0.00,VWS V14.01,2013-03-27 20:45:00,
2013-03-27 16:46:00,42.5,13.1,30.19,NW,313,12.3,17.7,30,0.00,,,0.00,VWS V14.01,2013-03-27 20:46:00,
2013-03-27 16:47:00,42.6,12.7,30.18,NNW,331,10.0,15.2,29,0.00,,,0.00,VWS V14.01,2013-03-27 20:47:00,
2013-03-27 16:48:00,43.4,12.6,30.19,NW,318,14.6,14.6,28,0.00,,,0.00,VWS V14.01,2013-03-27 20:48:00,
2013-03-27 16:49:00,43.4,13.8,30.19,NNW,339,12.3,14.6,30,0.00,,,0.00,VWS V14.01,2013-03-27 20:49:00,
2013-03-27 16:50:00,43.0,13.1,30.18,NW,308,12.6,13.6,29,0.00,,,0.00,VWS V14.01,2013-03-27 20:50:00,
2013-03-27 16:51:00,42.3,11.2,30.18,WNW,285,16.7,16.7,28,0.00,,,0.00,VWS V14.01,2013-03-27 20:51:00,
2013-03-27 16:52:00,43.7,14.7,30.18,WNW,296,12.4,16.7,30,0.00,,,0.00,VWS V14.01,2013-03-27 20:52:00,
2013-03-27 16:53:00,43.7,12.7,30.18,NW,312,16.2,16.2,28,0.00,,,0.00,VWS V14.01,2013-03-27 20:53:00,
2013-03-27 16:54:00,42.9,11.1,30.18,NW,326,13.4,16.2,27,0.00,,,0.00,VWS V14.01,2013-03-27 20:54:00,
2013-03-27 16:55:00,43.0,11.7,30.18,NNW,342,15.7,15.7,27,0.00,,,0.00,VWS V14.01,2013-03-27 20:55:00,
2013-03-27 16:56:00,42.2,11.7,30.18,WNW,299,16.9,16.9,28,0.00,,,0.00,VWS V14.01,2013-03-27 20:56:00,
2013-03-27 16:57:00,43.5,15.1,30.18,NW,312,12.3,12.3,31,0.00,,,0.00,VWS V14.01,2013-03-27 20:57:00,
2013-03-27 16:58:00,43.5,14.8,30.18,WNW,303,14.0,17.9,31,0.00,,,0.00,VWS V14.01,2013-03-27 20:58:00,
2013-03-27 16:59:00,42.1,12.4,30.17,West,276,17.7,17.7,29,0.00,,,0.00,VWS V14.01,2013-03-27 20:59:00,
2013-03-27 17:00:00,42.1,11.9,30.17,WNW,289,18.9,18.9,29,0.00,,,0.00,VWS V14.01,2013-03-27 21:00:00,
2013-03-27 17:03:00,42.9,11.3,30.17,WNW,287,16.0,16.9,27,0.00,,,0.00,VWS V14.01,2013-03-27 21:03:00,
2013-03-27 17:04:00,42.9,11.3,30.17,WNW,287,16.0,16.9,27,0.00,,,0.00,VWS V14.01,2013-03-27 21:04:00,
2013-03-27 17:05:00,43.5,12.8,30.17,WNW,292,18.4,18.4,28,0.00,,,0.00,VWS V14.01,2013-03-27 21:05:00,
2013-03-27 17:09:00,43.5,10.4,30.18,WNW,302,14.6,14.6,25,0.00,,,0.00,VWS V14.01,2013-03-27 21:09:00,
2013-03-27 17:10:00,42.7,12.2,30.17,NW,306,16.2,16.2,28,0.00,,,0.00,VWS V14.01,2013-03-27 21:10:00,
2013-03-27 17:11:00,43.2,11.2,30.18,NW,321,15.2,16.2,27,0.00,,,0.00,VWS V14.01,2013-03-27 21:11:00,
2013-03-27 17:14:00,42.4,10.6,30.18,NW,319,18.8,18.8,27,0.00,,,0.00,VWS V14.01,2013-03-27 21:14:00,
2013-03-27 17:15:00,42.0,10.9,30.18,NW,304,17.0,17.0,27,0.00,,,0.00,VWS V14.01,2013-03-27 21:15:00,
2013-03-27 17:16:00,42.2,11.4,30.18,NW,310,18.8,18.8,28,0.00,,,0.00,VWS V14.01,2013-03-27 21:16:00,
2013-03-27 17:18:00,42.1,11.6,30.18,NNW,336,15.5,15.5,28,0.00,,,0.00,VWS V14.01,2013-03-27 21:18:00,
2013-03-27 17:19:00,42.3,11.9,30.18,NW,314,18.1,18.1,28,0.00,,,0.00,VWS V14.01,2013-03-27 21:19:00,
2013-03-27 17:21:00,42.6,11.5,30.17,WNW,294,11.4,11.4,28,0.00,,,0.00,VWS V14.01,2013-03-27 21:21:00,
2013-03-27 17:24:00,41.8,10.7,30.19,NW,313,16.7,16.7,28,0.00,,,0.00,VWS V14.01,2013-03-27 21:24:00,
2013-03-27 17:25:00,41.9,12.9,30.18,NW,319,14.1,14.1,30,0.00,,,0.00,VWS V14.01,2013-03-27 21:25:00,
2013-03-27 17:30:00,41.8,13.7,30.18,WNW,287,19.3,19.3,31,0.00,,,0.00,VWS V14.01,2013-03-27 21:30:00,
2013-03-27 17:31:00,41.7,13.7,30.18,NW,304,15.7,18.8,32,0.00,,,0.00,VWS V14.01,2013-03-27 21:31:00,
2013-03-27 17:32:00,42.0,14.5,30.18,WNW,291,15.2,15.2,32,0.00,,,0.00,VWS V14.01,2013-03-27 21:32:00,
2013-03-27 17:35:00,42.1,13.9,30.19,WNW,299,13.6,16.4,31,0.00,,,0.00,VWS V14.01,2013-03-27 21:35:00,
2013-03-27 17:36:00,41.7,12.6,30.18,NW,309,16.2,16.2,30,0.00,,,0.00,VWS V14.01,2013-03-27 21:36:00,
2013-03-27 17:39:00,41.9,12.1,30.19,NW,313,19.6,19.6,29,0.00,,,0.00,VWS V14.01,2013-03-27 21:39:00,
2013-03-27 17:40:00,42.7,14.1,30.18,NW,317,15.0,16.9,31,0.00,,,0.00,VWS V14.01,2013-03-27 21:40:00,
2013-03-27 17:44:00,42.6,12.1,30.19,NW,307,13.6,13.6,28,0.00,,,0.00,VWS V14.01,2013-03-27 21:44:00,
2013-03-27 17:46:00,42.5,11.5,30.19,NNW,329,12.8,12.8,28,0.00,,,0.00,VWS V14.01,2013-03-27 21:46:00,
2013-03-27 17:49:00,42.2,11.6,30.18,NNW,327,17.7,17.7,28,0.00,,,0.00,VWS V14.01,2013-03-27 21:49:00,
2013-03-27 17:50:00,42.2,11.6,30.18,NNW,327,17.7,17.7,28,0.00,,,0.00,VWS V14.01,2013-03-27 21:50:00,
2013-03-27 17:51:00,42.7,13.3,30.18,NW,316,13.3,13.3,30,0.00,,,0.00,VWS V14.01,2013-03-27 21:51:00,
2013-03-27 17:54:00,42.5,11.9,30.19,NW,318,18.8,18.8,28,0.00,,,0.00,VWS V14.01,2013-03-27 21:54:00,
2013-03-27 17:55:00,44.3,13.1,30.19,NW,326,12.1,18.8,28,0.00,,,0.00,VWS V14.01,2013-03-27 21:55:00,
2013-03-27 17:57:00,43.0,12.3,30.19,NNW,331,17.2,17.2,28,0.00,,,0.00,VWS V14.01,2013-03-27 21:57:00,
2013-03-27 17:58:00,42.1,10.4,30.19,NW,310,18.8,21.2,27,0.00,,,0.00,VWS V14.01,2013-03-27 21:58:00,
2013-03-27 18:01:00,41.5,10.8,30.19,NW,308,13.8,15.2,28,0.00,,,0.00,VWS V14.01,2013-03-27 22:01:00,
2013-03-27 18:03:00,41.7,12.2,30.18,NW,315,12.6,12.6,30,0.00,,,0.00,VWS V14.01,2013-03-27 22:03:00,
2013-03-27 18:06:00,43.6,15.2,30.18,NW,315,11.7,14.1,31,0.00,,,0.00,VWS V14.01,2013-03-27 22:06:00,
2013-03-27 18:08:00,43.4,13.2,30.19,NW,307,14.5,16.5,29,0.00,,,0.00,VWS V14.01,2013-03-27 22:08:00,
2013-03-27 18:09:00,42.6,12.5,30.19,WNW,303,16.2,16.2,29,0.00,,,0.00,VWS V14.01,2013-03-27 22:09:00,
2013-03-27 18:11:00,43.1,13.1,30.18,NW,316,15.3,17.0,29,0.00,,,0.00,VWS V14.01,2013-03-27 22:11:00,
2013-03-27 18:13:00,43.5,12.6,30.19,NW,310,14.8,16.7,28,0.00,,,0.00,VWS V14.01,2013-03-27 22:13:00,
2013-03-27 18:17:00,42.5,11.8,30.18,NW,307,17.7,17.7,28,0.00,,,0.00,VWS V14.01,2013-03-27 22:17:00,
2013-03-27 18:18:00,42.3,11.6,30.18,WNW,296,13.8,17.7,28,0.00,,,0.00,VWS V14.01,2013-03-27 22:18:00,
2013-03-27 18:19:00,41.9,10.2,30.18,WNW,288,18.4,21.2,27,0.00,,,0.00,VWS V14.01,2013-03-27 22:19:00,
2013-03-27 18:24:00,42.6,11.3,30.19,NW,319,14.0,14.0,27,0.00,,,0.00,VWS V14.01,2013-03-27 22:24:00,
2013-03-27 18:25:00,42.7,12.4,30.18,NW,309,14.1,14.1,29,0.00,,,0.00,VWS V14.01,2013-03-27 22:25:00,
2013-03-27 18:26:00,43.1,13.0,30.22,NW,317,12.1,12.1,29,0.00,,,0.00,VWS V14.01,2013-03-27 22:26:00,
2013-03-27 18:29:00,42.1,10.6,30.18,NW,325,7.1,12.1,27,0.00,,,0.00,VWS V14.01,2013-03-27 22:29:00,
2013-03-27 18:30:00,42.2,11.1,30.18,NW,324,11.9,12.1,28,0.00,,,0.00,VWS V14.01,2013-03-27 22:30:00,
2013-03-27 18:31:00,43.0,12.0,30.18,NE,41,14.8,14.8,28,0.00,,,0.00,VWS V14.01,2013-03-27 22:31:00,
2013-03-27 18:34:00,42.9,13.1,30.19,NNW,327,14.1,14.1,29,0.00,,,0.00,VWS V14.01,2013-03-27 22:34:00,
2013-03-27 18:35:00,41.9,11.1,30.19,NW,324,16.0,16.0,28,0.00,,,0.00,VWS V14.01,2013-03-27 22:35:00,
2013-03-27 18:36:00,42.4,12.1,30.19,NW,309,11.4,13.6,29,0.00,,,0.00,VWS V14.01,2013-03-27 22:36:00,
2013-03-27 18:38:00,43.0,14.3,30.19,NE,41,8.1,16.4,31,0.00,,,0.00,VWS V14.01,2013-03-27 22:38:00,
2013-03-27 18:40:00,43.3,13.9,30.18,NNW,341,11.1,11.1,30,0.00,,,0.00,VWS V14.01,2013-03-27 22:40:00,
2013-03-27 18:42:00,42.6,13.9,30.18,NW,309,8.1,9.7,31,0.00,,,0.00,VWS V14.01,2013-03-27 22:42:00,
2013-03-27 18:45:00,41.6,12.1,30.20,NW,314,13.5,15.8,29,0.00,,,0.00,VWS V14.01,2013-03-27 22:45:00,
2013-03-27 18:48:00,40.9,12.2,30.19,NW,308,13.5,14.5,30,0.00,,,0.00,VWS V14.01,2013-03-27 22:48:00,
2013-03-27 18:51:00,40.9,13.4,30.19,NNW,333,15.2,18.2,32,0.00,,,0.00,VWS V14.01,2013-03-27 22:51:00,
2013-03-27 18:52:00,40.9,13.6,30.20,NNW,329,16.2,16.2,32,0.00,,,0.00,VWS V14.01,2013-03-27 22:52:00,
2013-03-27 18:53:00,41.2,13.5,30.23,North,0,14.5,14.5,32,0.00,,,0.00,VWS V14.01,2013-03-27 22:53:00,
2013-03-27 18:56:00,41.0,12.8,30.19,NNW,338,12.1,12.3,31,0.00,,,0.00,VWS V14.01,2013-03-27 22:56:00,
2013-03-27 18:58:00,40.7,13.4,30.18,WNW,297,15.2,15.2,32,0.00,,,0.00,VWS V14.01,2013-03-27 22:58:00,
2013-03-27 19:00:00,40.9,13.7,30.19,NNW,336,14.6,15.5,33,0.00,,,0.00,VWS V14.01,2013-03-27 23:00:00,
2013-03-27 19:02:00,40.7,12.6,30.19,NW,322,20.6,20.6,31,0.00,,,0.00,VWS V14.01,2013-03-27 23:02:00,
2013-03-27 19:04:00,40.6,12.3,30.19,NW,308,15.5,20.6,31,0.00,,,0.00,VWS V14.01,2013-03-27 23:04:00,
2013-03-27 19:05:00,40.7,12.6,30.19,NNW,333,14.5,20.6,31,0.00,,,0.00,VWS V14.01,2013-03-27 23:05:00,
2013-03-27 19:08:00,40.4,13.1,30.20,NW,316,12.1,20.6,32,0.00,,,0.00,VWS V14.01,2013-03-27 23:08:00,
2013-03-27 19:10:00,40.5,13.6,30.20,NW,317,12.1,20.6,33,0.00,,,0.00,VWS V14.01,2013-03-27 23:10:00,
2013-03-27 19:11:00,40.6,13.8,30.20,NNW,340,10.9,20.6,33,0.00,,,0.00,VWS V14.01,2013-03-27 23:11:00,
2013-03-27 19:14:00,40.5,13.1,30.20,North,350,13.6,20.6,32,0.00,,,0.00,VWS V14.01,2013-03-27 23:14:00,
2013-03-27 19:16:00,40.3,12.5,30.20,NW,315,15.0,20.6,32,0.00,,,0.00,VWS V14.01,2013-03-27 23:16:00,
2013-03-27 19:17:00,40.3,13.4,30.20,North,360,11.2,20.6,33,0.00,,,0.00,VWS V14.01,2013-03-27 23:17:00,
2013-03-27 19:19:00,40.6,12.9,30.20,NW,322,12.6,20.6,32,0.00,,,0.00,VWS V14.01,2013-03-27 23:19:00,
2013-03-27 19:22:00,40.3,9.1,30.20,NW,306,11.6,20.6,27,0.00,,,0.00,VWS V14.01,2013-03-27 23:22:00,
2013-03-27 19:24:00,40.3,14.4,30.21,NW,306,14.5,20.6,34,0.00,,,0.00,VWS V14.01,2013-03-27 23:24:00,
2013-03-27 19:27:00,40.3,13.3,30.20,NW,326,15.3,20.6,33,0.00,,,0.00,VWS V14.01,2013-03-27 23:27:00,
2013-03-27 19:28:00,40.1,12.9,30.20,NNW,334,16.5,20.6,32,0.00,,,0.00,VWS V14.01,2013-03-27 23:28:00,
2013-03-27 19:29:00,39.8,13.3,30.21,WNW,286,12.9,20.6,33,0.00,,,0.00,VWS V14.01,2013-03-27 23:29:00,
2013-03-27 19:30:00,39.7,13.8,30.21,NW,325,12.3,20.6,34,0.00,,,0.00,VWS V14.01,2013-03-27 23:30:00,
2013-03-27 19:33:00,39.1,13.8,30.21,NW,310,10.4,20.6,35,0.00,,,0.00,VWS V14.01,2013-03-27 23:33:00,
2013-03-27 19:34:00,39.7,14.2,30.20,NNW,334,13.1,20.6,35,0.00,,,0.00,VWS V14.01,2013-03-27 23:34:00,
2013-03-27 19:35:00,39.7,14.4,30.21,NNW,348,12.6,20.6,35,0.00,,,0.00,VWS V14.01,2013-03-27 23:35:00,
2013-03-27 19:37:00,39.9,14.6,30.21,NW,321,11.7,20.6,35,0.00,,,0.00,VWS V14.01,2013-03-27 23:37:00,
2013-03-27 19:39:00,39.7,14.3,30.21,NNW,335,12.4,20.6,35,0.00,,,0.00,VWS V14.01,2013-03-27 23:39:00,
2013-03-27 19:43:00,39.2,14.2,30.21,NW,323,13.8,20.6,35,0.00,,,0.00,VWS V14.01,2013-03-27 23:43:00,
2013-03-27 19:44:00,39.3,14.7,30.22,WNW,302,12.9,20.6,36,0.00,,,0.00,VWS V14.01,2013-03-27 23:44:00,
2013-03-27 19:48:00,38.5,14.8,30.22,NW,311,10.4,20.6,38,0.00,,,0.00,VWS V14.01,2013-03-27 23:48:00,
2013-03-27 19:50:00,38.2,14.4,30.22,NW,312,10.4,20.6,37,0.00,,,0.00,VWS V14.01,2013-03-27 23:50:00,
2013-03-27 19:53:00,37.9,14.4,30.22,NW,310,9.3,20.6,38,0.00,,,0.00,VWS V14.01,2013-03-27 23:53:00,
2013-03-27 19:54:00,38.1,14.5,30.22,West,278,12.1,20.6,38,0.00,,,0.00,VWS V14.01,2013-03-27 23:54:00,
2013-03-27 19:55:00,38.6,14.4,30.22,NW,322,15.5,20.6,37,0.00,,,0.00,VWS V14.01,2013-03-27 23:55:00,
2013-03-27 19:58:00,37.4,14.5,30.23,NW,306,11.4,20.6,39,0.00,,,0.00,VWS V14.01,2013-03-27 23:58:00,
2013-03-27 19:59:00,37.8,15.0,30.22,NW,310,10.2,20.6,39,0.00,,,0.00,VWS V14.01,2013-03-27 23:59:00,
2013-03-27 20:00:00,37.5,14.9,30.22,NW,310,8.5,20.6,39,0.00,,,0.00,VWS V14.01,2013-03-28 00:00:00,
2013-03-27 20:01:00,43.2,13.6,30.17,WNW,299,16.2,16.2,30,0.00,,,0.00,VWS V14.01,2013-03-28 00:01:00,
2013-03-27 20:02:00,43.8,14.8,30.17,WNW,296,12.9,16.2,31,0.00,,,0.00,VWS V14.01,2013-03-28 00:02:00,
2013-03-27 20:03:00,45.6,16.4,30.17,WNW,302,13.8,13.8,30,0.00,,,0.00,VWS V14.01,2013-03-28 00:03:00,
2013-03-27 20:04:00,42.9,11.3,30.17,WNW,287,16.0,16.9,27,0.00,,,0.00,VWS V14.01,2013-03-28 00:04:00,
2013-03-27 20:05:00,37.0,14.8,30.23,NW,316,8.1,20.6,40,0.00,,,0.00,VWS V14.01,2013-03-28 00:05:00,
2013-03-27 20:06:00,37.4,15.2,30.23,NNW,330,10.0,20.6,40,0.00,,,0.00,VWS V14.01,2013-03-28 00:06:00,
2013-03-27 20:07:00,36.8,14.8,30.23,NW,313,9.7,20.6,40,0.00,,,0.00,VWS V14.01,2013-03-28 00:07:00,
2013-03-27 20:08:00,43.3,12.6,30.18,NW,311,14.1,19.8,28,0.00,,,0.00,VWS V14.01,2013-03-28 00:08:00,
2013-03-27 20:09:00,43.5,13.5,30.18,WNW,302,14.0,15.7,29,0.00,,,0.00,VWS V14.01,2013-03-28 00:09:00,
2013-03-27 20:10:00,37.2,14.9,30.24,NW,319,10.7,20.6,40,0.00,,,0.00,VWS V14.01,2013-03-28 00:10:00,
2013-03-27 20:11:00,37.2,15.1,30.23,NW,321,10.5,20.6,40,0.00,,,0.00,VWS V14.01,2013-03-28 00:11:00,
2013-03-27 20:12:00,36.8,14.8,30.22,NW,307,9.5,20.6,40,0.00,,,0.00,VWS V14.01,2013-03-28 00:12:00,
2013-03-27 20:13:00,42.4,8.4,30.18,NW,310,15.5,15.5,24,0.00,,,0.00,VWS V14.01,2013-03-28 00:13:00,
2013-03-27 20:14:00,43.2,11.2,30.17,NW,310,17.4,19.1,27,0.00,,,0.00,VWS V14.01,2013-03-28 00:14:00,
2013-03-27 20:15:00,42.5,11.7,30.18,WNW,301,15.8,18.8,28,0.00,,,0.00,VWS V14.01,2013-03-28 00:15:00,
2013-03-27 20:16:00,36.3,14.4,30.23,North,350,8.8,20.6,40,0.00,,,0.00,VWS V14.01,2013-03-28 00:16:00,
2013-03-27 20:17:00,37.2,14.6,30.23,NW,315,11.2,20.6,39,0.00,,,0.00,VWS V14.01,2013-03-28 00:17:00,
2013-03-27 20:18:00,37.2,14.6,30.23,NW,315,11.2,20.6,39,0.00,,,0.00,VWS V14.01,2013-03-28 00:18:00,
2013-03-27 20:19:00,42.4,11.7,30.18,NW,313,16.0,16.0,28,0.00,,,0.00,VWS V14.01,2013-03-28 00:19:00,
2013-03-27 20:20:00,42.5,11.6,30.18,NW,313,17.9,18.1,28,0.00,,,0.00,VWS V14.01,2013-03-28 00:20:00,
2013-03-27 20:21:00,36.6,14.7,30.24,NW,315,10.0,20.6,40,0.00,,,0.00,VWS V14.01,2013-03-28 00:21:00,
2013-03-27 20:22:00,36.1,14.6,30.24,NNW,333,9.0,20.6,41,0.00,,,0.00,VWS V14.01,2013-03-28 00:22:00,
2013-03-27 20:23:00,36.5,15.1,30.23,NW,320,9.7,20.6,41,0.00,,,0.00,VWS V14.01,2013-03-28 00:23:00,
2013-03-27 20:24:00,36.3,15.2,30.23,NW,322,7.6,20.6,41,0.00,,,0.00,VWS V14.01,2013-03-28 00:24:00,
2013-03-27 20:25:00,42.4,13.2,30.18,WNW,286,13.8,16.7,30,0.00,,,0.00,VWS V14.01,2013-03-28 00:25:00,
2013-03-27 20:26:00,42.6,14.1,30.18,NW,325,8.3,14.1,31,0.00,,,0.00,VWS V14.01,2013-03-28 00:26:00,
2013-03-27 20:27:00,42.2,12.6,30.19,NW,317,10.4,11.9,29,0.00,,,0.00,VWS V14.01,2013-03-28 00:27:00,
2013-03-27 20:28:00,36.4,15.5,30.23,NW,318,9.7,20.6,42,0.00,,,0.00,VWS V14.01,2013-03-28 00:28:00,
2013-03-27 20:29:00,36.4,15.5,30.23,NW,318,9.7,20.6,42,0.00,,,0.00,VWS V14.01,2013-03-28 00:29:00,
2013-03-27 20:30:00,41.8,13.7,30.18,WNW,287,19.3,19.3,31,0.00,,,0.00,VWS V14.01,2013-03-28 00:30:00,
2013-03-27 20:31:00,36.4,15.9,30.24,NW,311,8.3,20.6,43,0.00,,,0.00,VWS V14.01,2013-03-28 00:31:00,
2013-03-27 20:32:00,42.0,14.5,30.18,WNW,291,15.2,18.8,32,0.00,,,0.00,VWS V14.01,2013-03-28 00:32:00,
2013-03-27 20:33:00,41.7,13.6,30.18,NW,308,17.6,17.6,31,0.00,,,0.00,VWS V14.01,2013-03-28 00:33:00,
2013-03-27 20:34:00,36.1,15.6,30.24,NW,308,10.4,20.6,43,0.00,,,0.00,VWS V14.01,2013-03-28 00:34:00,
2013-03-27 20:35:00,41.7,13.7,30.18,NNW,334,16.4,19.3,32,0.00,,,0.00,VWS V14.01,2013-03-28 00:35:00,
2013-03-27 20:36:00,35.8,15.7,30.24,NW,308,8.0,20.6,43,0.00,,,0.00,VWS V14.01,2013-03-28 00:36:00,
2013-03-27 20:37:00,41.5,12.1,30.17,NNW,328,19.1,19.1,30,0.00,,,0.00,VWS V14.01,2013-03-28 00:37:00,
2013-03-27 20:38:00,41.9,11.4,30.17,NW,316,14.8,19.1,28,0.00,,,0.00,VWS V14.01,2013-03-28 00:38:00,
2013-03-27 20:39:00,42.1,13.4,30.18,NW,307,16.2,16.2,31,0.00,,,0.00,VWS V14.01,2013-03-28 00:39:00,
2013-03-27 20:40:00,35.7,15.7,30.29,NW,314,9.2,20.6,44,0.00,,,0.00,VWS V14.01,2013-03-28 00:40:00,
2013-03-27 20:41:00,36.1,16.1,30.25,WNW,302,10.0,20.6,44,0.00,,,0.00,VWS V14.01,2013-03-28 00:41:00,
2013-03-27 20:42:00,36.1,15.6,30.25,NW,308,10.2,20.6,43,0.00,,,0.00,VWS V14.01,2013-03-28 00:42:00,
2013-03-27 20:43:00,43.8,15.4,30.18,NW,304,11.9,16.4,31,0.00,,,0.00,VWS V14.01,2013-03-28 00:43:00,
2013-03-27 20:44:00,42.6,12.1,30.19,NW,307,13.6,13.6,28,0.00,,,0.00,VWS V14.01,2013-03-28 00:44:00,
2013-03-27 20:45:00,44.1,13.8,30.18,WNW,286,10.2,13.6,29,0.00,,,0.00,VWS V14.01,2013-03-28 00:45:00,
2013-03-27 20:46:00,35.6,15.8,30.24,NW,309,10.7,20.6,44,0.00,,,0.00,VWS V14.01,2013-03-28 00:46:00,
2013-03-27 20:47:00,35.6,15.8,30.24,NW,309,10.7,20.6,44,0.00,,,0.00,VWS V14.01,2013-03-28 00:47:00,
2013-03-27 20:48:00,43.1,12.4,30.18,NNW,336,10.4,11.9,28,0.00,,,0.00,VWS V14.01,2013-03-28 00:48:00,
2013-03-27 20:49:00,35.2,15.4,30.25,NW,311,10.0,20.6,44,0.00,,,0.00,VWS V14.01,2013-03-28 00:49:00,
2013-03-27 20:50:00,42.2,11.6,30.18,NNW,327,17.7,17.7,28,0.00,,,0.00,VWS V14.01,2013-03-28 00:50:00,
2013-03-27 20:51:00,42.1,12.8,30.19,West,279,13.3,17.7,30,0.00,,,0.00,VWS V14.01,2013-03-28 00:51:00,
2013-03-27 20:52:00,34.9,15.3,30.24,NW,325,8.1,20.6,44,0.00,,,0.00,VWS V14.01,2013-03-28 00:52:00,
2013-03-27 20:53:00,43.0,11.9,30.18,NNW,343,16.7,16.7,28,0.00,,,0.00,VWS V14.01,2013-03-28 00:53:00,
2013-03-27 20:54:00,34.9,15.4,30.29,WNW,300,8.8,20.6,44,0.00,,,0.00,VWS V14.01,2013-03-28 00:54:00,
2013-03-27 20:55:00,35.2,15.8,30.25,NW,308,9.3,20.6,45,0.00,,,0.00,VWS V14.01,2013-03-28 00:55:00,
2013-03-27 20:56:00,44.3,13.1,30.19,NW,326,12.1,18.8,28,0.00,,,0.00,VWS V14.01,2013-03-28 00:56:00,
2013-03-27 20:57:00,43.0,12.3,30.19,NNW,331,17.2,17.2,28,0.00,,,0.00,VWS V14.01,2013-03-28 00:57:00,
2013-03-27 20:58:00,35.1,15.3,30.24,NNW,328,10.2,20.6,44,0.00,,,0.00,VWS V14.01,2013-03-28 00:58:00,
2013-03-27 20:59:00,41.9,10.7,30.19,NW,317,15.3,18.8,27,0.00,,,0.00,VWS V14.01,2013-03-28 00:59:00,
2013-03-27 21:00:00,34.6,15.3,30.25,NW,304,8.0,20.6,45,0.00,,,0.00,VWS V14.01,2013-03-28 01:00:00,
2013-03-27 21:01:00,35.2,15.5,30.24,NW,309,12.8,20.6,44,0.00,,,0.00,VWS V14.01,2013-03-28 01:01:00,
2013-03-27 21:02:00,42.0,12.3,30.18,NW,320,10.9,13.8,29,0.00,,,0.00,VWS V14.01,2013-03-28 01:02:00,
2013-03-27 21:03:00,35.5,15.9,30.25,WNW,295,10.7,20.6,44,0.00,,,0.00,VWS V14.01,2013-03-28 01:03:00,
2013-03-27 21:04:00,41.8,11.6,30.18,NW,308,11.2,14.0,29,0.00,,,0.00,VWS V14.01,2013-03-28 01:04:00,
2013-03-27 21:05:00,35.3,15.7,30.24,NW,309,10.7,20.6,44,0.00,,,0.00,VWS V14.01,2013-03-28 01:05:00,
2013-03-27 21:06:00,35.5,15.8,30.25,NW,310,10.7,20.6,44,0.00,,,0.00,VWS V14.01,2013-03-28 01:06:00,
2013-03-27 21:07:00,42.3,12.0,30.19,NW,310,16.5,16.5,29,0.00,,,0.00,VWS V14.01,2013-03-28 01:07:00,
2013-03-27 21:08:00,43.4,13.2,30.19,NW,307,14.5,16.5,29,0.00,,,0.00,VWS V14.01,2013-03-28 01:08:00,
2013-03-27 21:09:00,34.3,15.5,30.29,WNW,301,8.3,20.6,46,0.00,,,0.00,VWS V14.01,2013-03-28 01:09:00,
2013-03-27 21:10:00,43.8,13.3,30.18,WNW,282,22.0,22.0,29,0.00,,,0.00,VWS V14.01,2013-03-28 01:10:00,
2013-03-27 21:11:00,34.2,15.6,30.25,WNW,300,7.6,20.6,46,0.00,,,0.00,VWS V14.01,2013-03-28 01:11:00,
2013-03-27 21:12:00,44.7,14.9,30.19,NW,326,8.1,17.0,30,0.00,,,0.00,VWS V14.01,2013-03-28 01:12:00,
2013-03-27 21:13:00,34.8,16.1,30.25,WNW,296,7.6,20.6,46,0.00,,,0.00,VWS V14.01,2013-03-28 01:13:00,
2013-03-27 21:14:00,34.6,16.1,30.24,NW,306,7.1,20.6,46,0.00,,,0.00,VWS V14.01,2013-03-28 01:14:00,
2013-03-27 21:15:00,43.7,13.1,30.19,NNW,328,13.6,13.6,28,0.00,,,0.00,VWS V14.01,2013-03-28 01:15:00,
2013-03-27 21:16:00,42.1,11.3,30.18,WNW,294,15.7,16.7,28,0.00,,,0.00,VWS V14.01,2013-03-28 01:16:00,
2013-03-27 21:17:00,33.8,15.6,30.25,WNW,302,6.3,20.6,47,0.00,,,0.00,VWS V14.01,2013-03-28 01:17:00,
2013-03-27 21:18:00,42.8,12.7,30.18,NW,306,14.1,17.7,29,0.00,,,0.00,VWS V14.01,2013-03-28 01:18:00,
2013-03-27 21:19:00,33.6,15.5,30.25,WNW,292,6.8,20.6,47,0.00,,,0.00,VWS V14.01,2013-03-28 01:19:00,
2013-03-27 21:20:00,33.6,15.9,30.25,WNW,296,6.1,20.6,48,0.00,,,0.00,VWS V14.01,2013-03-28 01:20:00,
2013-03-27 21:21:00,43.5,14.1,30.18,West,279,14.0,18.4,30,0.00,,,0.00,VWS V14.01,2013-03-28 01:21:00,
2013-03-27 21:22:00,42.5,12.3,30.18,NW,312,17.0,17.0,29,0.00,,,0.00,VWS V14.01,2013-03-28 01:22:00,
2013-03-27 21:23:00,33.6,16.2,30.25,WNW,288,5.4,20.6,48,0.00,,,0.00,VWS V14.01,2013-03-28 01:23:00,
2013-03-27 21:24:00,33.2,16.1,30.25,WNW,295,5.4,20.6,49,0.00,,,0.00,VWS V14.01,2013-03-28 01:24:00,
2013-03-27 21:25:00,42.7,12.4,30.18,NW,309,14.1,14.1,29,0.00,,,0.00,VWS V14.01,2013-03-28 01:25:00,
2013-03-27 21:26:00,43.1,13.0,30.22,NW,317,12.1,14.1,29,0.00,,,0.00,VWS V14.01,2013-03-28 01:26:00,
2013-03-27 21:27:00,42.2,11.8,30.18,NNW,329,11.1,12.1,28,0.00,,,0.00,VWS V14.01,2013-03-28 01:27:00,
2013-03-27 21:28:00,32.9,16.0,30.25,WNW,300,5.7,20.6,49,0.00,,,0.00,VWS V14.01,2013-03-28 01:28:00,
2013-03-27 21:29:00,33.2,16.1,30.25,NW,310,5.9,20.6,49,0.00,,,0.00,VWS V14.01,2013-03-28 01:29:00,
2013-03-27 21:30:00,34.3,16.9,30.26,WNW,300,9.7,20.6,49,0.00,,,0.00,VWS V14.01,2013-03-28 01:30:00,
2013-03-27 21:31:00,43.0,12.0,30.18,NE,41,14.8,14.8,28,0.00,,,0.00,VWS V14.01,2013-03-28 01:31:00,
2013-03-27 21:32:00,43.2,13.6,30.18,WNW,302,15.0,15.0,30,0.00,,,0.00,VWS V14.01,2013-03-28 01:32:00,
2013-03-27 21:33:00,42.6,12.5,30.22,NW,313,12.6,17.4,29,0.00,,,0.00,VWS V14.01,2013-03-28 01:33:00,
2013-03-27 21:34:00,34.0,12.8,30.25,NW,305,7.6,20.6,41,0.00,,,0.00,VWS V14.01,2013-03-28 01:34:00,
2013-03-27 21:35:00,34.0,16.5,30.26,WNW,301,8.5,20.6,48,0.00,,,0.00,VWS V14.01,2013-03-28 01:35:00,
2013-03-27 21:36:00,41.9,12.1,30.23,NW,319,13.6,16.0,29,0.00,,,0.00,VWS V14.01,2013-03-28 01:36:00,
2013-03-27 21:37:00,33.2,13.8,30.25,NW,314,7.3,20.6,44,0.00,,,0.00,VWS V14.01,2013-03-28 01:37:00,
2013-03-27 21:38:00,43.0,14.3,30.19,NE,41,8.1,16.4,31,0.00,,,0.00,VWS V14.01,2013-03-28 01:38:00,
2013-03-27 21:39:00,33.6,16.2,30.26,NW,310,8.8,20.6,48,0.00,,,0.00,VWS V14.01,2013-03-28 01:39:00,
2013-03-27 21:40:00,33.9,16.4,30.25,NW,304,9.5,20.6,48,0.00,,,0.00,VWS V14.01,2013-03-28 01:40:00,
2013-03-27 21:41:00,41.8,11.7,30.17,NW,312,16.9,16.9,29,0.00,,,0.00,VWS V14.01,2013-03-28 01:41:00,
2013-03-27 21:42:00,33.7,16.3,30.25,NW,312,6.1,20.6,48,0.00,,,0.00,VWS V14.01,2013-03-28 01:42:00,
2013-03-27 21:43:00,41.9,12.2,30.18,WNW,302,9.7,9.7,29,0.00,,,0.00,VWS V14.01,2013-03-28 01:43:00,
2013-03-27 21:44:00,33.3,15.7,30.25,NW,314,6.6,20.6,48,0.00,,,0.00,VWS V14.01,2013-03-28 01:44:00,
2013-03-27 21:45:00,33.2,15.9,30.25,NW,308,6.8,20.6,49,0.00,,,0.00,VWS V14.01,2013-03-28 01:45:00,
2013-03-27 21:46:00,41.6,13.3,30.19,NW,307,11.7,15.8,31,0.00,,,0.00,VWS V14.01,2013-03-28 01:46:00,
2013-03-27 21:47:00,41.6,12.8,30.19,NE,44,9.5,11.7,30,0.00,,,0.00,VWS V14.01,2013-03-28 01:47:00,
2013-03-27 21:48:00,40.9,12.2,30.19,NW,308,13.4,14.5,30,0.00,,,0.00,VWS V14.01,2013-03-28 01:48:00,
2013-03-27 21:49:00,33.4,16.3,30.25,NW,323,7.1,20.6,49,0.00,,,0.00,VWS V14.01,2013-03-28 01:49:00,
2013-03-27 21:50:00,33.3,16.4,30.25,NW,304,7.3,20.6,49,0.00,,,0.00,VWS V14.01,2013-03-28 01:50:00,
2013-03-27 21:51:00,40.9,13.4,30.19,NNW,333,15.2,18.2,32,0.00,,,0.00,VWS V14.01,2013-03-28 01:51:00,
2013-03-27 21:52:00,33.4,16.0,30.25,WNW,300,7.3,20.6,48,0.00,,,0.00,VWS V14.01,2013-03-28 01:52:00,
2013-03-27 21:53:00,41.0,14.0,30.19,NNW,338,6.8,13.4,33,0.00,,,0.00,VWS V14.01,2013-03-28 01:53:00,
2013-03-27 21:54:00,33.4,14.0,30.26,WNW,299,8.8,20.6,44,0.00,,,0.00,VWS V14.01,2013-03-28 01:54:00,
2013-03-27 21:55:00,33.8,16.0,30.26,NW,305,8.0,20.6,48,0.00,,,0.00,VWS V14.01,2013-03-28 01:55:00,
2013-03-27 21:56:00,40.8,13.1,30.19,NW,324,12.3,15.3,32,0.00,,,0.00,VWS V14.01,2013-03-28 01:56:00,
2013-03-27 21:57:00,40.9,13.0,30.19,WNW,296,14.8,14.8,32,0.00,,,0.00,VWS V14.01,2013-03-28 01:57:00,
2013-03-27 21:58:00,33.7,16.0,30.25,WNW,298,9.7,20.6,48,0.00,,,0.00,VWS V14.01,2013-03-28 01:58:00,
2013-03-27 21:59:00,34.0,16.2,30.25,WNW,291,8.1,20.6,48,0.00,,,0.00,VWS V14.01,2013-03-28 01:59:00,
2013-03-27 22:00:00,40.9,13.7,30.19,NNW,336,14.6,15.5,33,0.00,,,0.00,VWS V14.01,2013-03-28 02:00:00,
2013-03-27 22:01:00,33.0,15.6,30.25,NW,313,8.3,20.6,48,0.00,,,0.00,VWS V14.01,2013-03-28 02:01:00,
2013-03-27 22:02:00,33.8,16.4,30.26,WNW,302,7.5,7.5,48,0.00,,,0.00,VWS V14.01,2013-03-28 02:02:00,
2013-03-27 22:03:00,33.7,16.4,30.26,WNW,303,6.6,7.5,49,0.00,,,0.00,VWS V14.01,2013-03-28 02:03:00,
2013-03-27 22:04:00,32.4,15.3,30.26,WNW,283,5.9,7.3,49,0.00,,,0.00,VWS V14.01,2013-03-28 02:04:00,
2013-03-27 22:05:00,33.9,16.7,30.26,NW,324,7.8,7.8,49,0.00,,,0.00,VWS V14.01,2013-03-28 02:05:00,
2013-03-27 22:06:00,33.3,16.1,30.26,WNW,291,6.3,7.5,49,0.00,,,0.00,VWS V14.01,2013-03-28 02:06:00,
2013-03-27 22:07:00,33.3,16.1,30.26,WNW,291,6.3,7.5,49,0.00,,,0.00,VWS V14.01,2013-03-28 02:07:00,
2013-03-27 22:08:00,32.7,15.8,30.26,WNW,292,5.9,6.8,49,0.00,,,0.00,VWS V14.01,2013-03-28 02:08:00,
2013-03-27 22:09:00,32.5,15.8,30.26,WNW,292,5.4,6.8,50,0.00,,,0.00,VWS V14.01,2013-03-28 02:09:00,
2013-03-27 22:10:00,32.5,16.0,30.31,WNW,294,5.7,5.7,50,0.00,,,0.00,VWS V14.01,2013-03-28 02:10:00,
2013-03-27 22:11:00,33.2,16.7,30.27,WNW,293,6.9,6.9,50,0.00,,,0.00,VWS V14.01,2013-03-28 02:11:00,
2013-03-27 22:12:00,32.3,15.9,30.26,NW,304,5.9,6.9,50,0.00,,,0.00,VWS V14.01,2013-03-28 02:12:00,
2013-03-27 22:13:00,32.7,16.4,30.26,WNW,296,6.6,6.6,50,0.00,,,0.00,VWS V14.01,2013-03-28 02:13:00,
2013-03-27 22:14:00,33.0,16.7,30.27,NW,318,8.5,8.5,51,0.00,,,0.00,VWS V14.01,2013-03-28 02:14:00,
2013-03-27 22:15:00,32.5,14.1,30.26,WNW,297,7.3,7.5,46,0.00,,,0.00,VWS V14.01,2013-03-28 02:15:00,
2013-03-27 22:16:00,33.0,16.7,30.27,WNW,303,8.3,8.3,51,0.00,,,0.00,VWS V14.01,2013-03-28 02:16:00,
2013-03-27 22:17:00,32.4,16.2,30.26,WNW,294,6.9,8.3,51,0.00,,,0.00,VWS V14.01,2013-03-28 02:17:00,
2013-03-27 22:18:00,32.7,16.2,30.26,WNW,291,7.1,8.1,50,0.00,,,0.00,VWS V14.01,2013-03-28 02:18:00,
2013-03-27 22:19:00,32.7,16.5,30.27,WNW,288,8.1,8.1,51,0.00,,,0.00,VWS V14.01,2013-03-28 02:19:00,
2013-03-27 22:20:00,32.4,16.3,30.31,NW,304,7.3,8.1,51,0.00,,,0.00,VWS V14.01,2013-03-28 02:20:00,
2013-03-27 22:21:00,33.0,16.9,30.26,WNW,291,7.6,7.6,51,0.00,,,0.00,VWS V14.01,2013-03-28 02:21:00,
2013-03-27 22:22:00,33.0,16.9,30.26,WNW,291,7.6,7.6,51,0.00,,,0.00,VWS V14.01,2013-03-28 02:22:00,
2013-03-27 22:23:00,32.3,16.4,30.31,WNW,298,6.1,7.6,51,0.00,,,0.00,VWS V14.01,2013-03-28 02:23:00,
2013-03-27 22:24:00,32.6,16.8,30.26,WNW,301,6.6,6.6,52,0.00,,,0.00,VWS V14.01,2013-03-28 02:24:00,
2013-03-27 22:25:00,32.7,17.0,30.26,WNW,299,6.3,6.6,52,0.00,,,0.00,VWS V14.01,2013-03-28 02:25:00,
2013-03-27 22:26:00,32.9,16.9,30.27,NW,306,8.0,8.0,51,0.00,,,0.00,VWS V14.01,2013-03-28 02:26:00,
2013-03-27 22:27:00,31.9,16.4,30.27,NW,306,6.3,6.4,52,0.00,,,0.00,VWS V14.01,2013-03-28 02:27:00,
2013-03-27 22:28:00,32.2,16.6,30.26,NW,308,7.3,7.3,52,0.00,,,0.00,VWS V14.01,2013-03-28 02:28:00,
2013-03-27 22:29:00,32.4,16.8,30.26,NW,321,6.1,7.3,52,0.00,,,0.00,VWS V14.01,2013-03-28 02:29:00,
2013-03-27 22:30:00,32.6,16.9,30.26,NW,315,8.0,8.0,52,0.00,,,0.00,VWS V14.01,2013-03-28 02:30:00,
2013-03-27 22:31:00,33.7,17.2,30.27,WNW,289,10.0,10.0,50,0.00,,,0.00,VWS V14.01,2013-03-28 02:31:00,
2013-03-27 22:32:00,33.0,16.3,30.27,NW,309,8.7,10.0,50,0.00,,,0.00,VWS V14.01,2013-03-28 02:32:00,
2013-03-27 22:33:00,32.5,16.2,30.26,WNW,301,6.9,7.8,51,0.00,,,0.00,VWS V14.01,2013-03-28 02:33:00,
2013-03-27 22:34:00,33.5,16.9,30.26,NW,304,10.2,10.2,50,0.00,,,0.00,VWS V14.01,2013-03-28 02:34:00,
2013-03-27 22:35:00,33.3,16.5,30.26,NW,309,10.0,10.0,50,0.00,,,0.00,VWS V14.01,2013-03-28 02:35:00,
2013-03-27 22:36:00,32.3,15.6,30.26,WNW,297,8.3,10.0,50,0.00,,,0.00,VWS V14.01,2013-03-28 02:36:00,
2013-03-27 22:37:00,32.3,16.0,30.26,WNW,287,7.3,8.7,51,0.00,,,0.00,VWS V14.01,2013-03-28 02:37:00,
2013-03-27 22:38:00,32.4,16.3,30.26,WNW,300,8.5,8.5,51,0.00,,,0.00,VWS V14.01,2013-03-28 02:38:00,
2013-03-27 22:39:00,33.1,16.2,30.26,WNW,293,8.7,9.2,49,0.00,,,0.00,VWS V14.01,2013-03-28 02:39:00,
2013-03-27 22:40:00,32.7,16.1,30.26,NW,307,9.3,9.3,50,0.00,,,0.00,VWS V14.01,2013-03-28 02:40:00,
2013-03-27 22:41:00,33.0,16.3,30.27,WNW,294,9.2,9.2,50,0.00,,,0.00,VWS V14.01,2013-03-28 02:41:00,
2013-03-27 22:42:00,32.6,15.9,30.26,NW,312,8.1,9.2,50,0.00,,,0.00,VWS V14.01,2013-03-28 02:42:00,
2013-03-27 22:43:00,33.3,16.5,30.26,WNW,294,10.5,10.5,50,0.00,,,0.00,VWS V14.01,2013-03-28 02:43:00,
2013-03-27 22:44:00,32.7,15.8,30.26,NW,305,8.0,9.3,49,0.00,,,0.00,VWS V14.01,2013-03-28 02:44:00,
2013-03-27 22:45:00,32.4,15.9,30.28,NW,321,8.7,8.7,50,0.00,,,0.00,VWS V14.01,2013-03-28 02:45:00,
2013-03-27 22:46:00,32.0,15.7,30.27,NW,311,8.3,8.7,50,0.00,,,0.00,VWS V14.01,2013-03-28 02:46:00,
2013-03-27 22:47:00,33.3,16.7,30.26,NW,308,11.2,11.2,50,0.00,,,0.00,VWS V14.01,2013-03-28 02:47:00,
2013-03-27 22:48:00,32.5,15.9,30.26,WNW,303,7.5,11.2,50,0.00,,,0.00,VWS V14.01,2013-03-28 02:48:00,
2013-03-27 22:49:00,32.9,16.2,30.25,WNW,288,9.0,9.0,50,0.00,,,0.00,VWS V14.01,2013-03-28 02:49:00,
2013-03-27 22:50:00,32.4,15.9,30.26,NW,305,8.7,8.7,50,0.00,,,0.00,VWS V14.01,2013-03-28 02:50:00,
2013-03-27 22:51:00,32.5,16.0,30.25,NW,311,7.5,8.7,50,0.00,,,0.00,VWS V14.01,2013-03-28 02:51:00,
2013-03-27 22:52:00,33.0,16.3,30.26,NW,315,8.7,8.7,50,0.00,,,0.00,VWS V14.01,2013-03-28 02:52:00,
2013-03-27 22:53:00,33.0,16.1,30.27,NW,315,10.5,10.5,49,0.00,,,0.00,VWS V14.01,2013-03-28 02:53:00,
2013-03-27 22:54:00,32.2,15.2,30.26,NW,308,9.2,10.5,49,0.00,,,0.00,VWS V14.01,2013-03-28 02:54:00,
2013-03-27 22:55:00,32.3,15.3,30.27,NW,313,9.2,9.2,49,0.00,,,0.00,VWS V14.01,2013-03-28 02:55:00,
2013-03-27 22:56:00,32.3,15.4,30.27,NW,311,7.6,9.2,49,0.00,,,0.00,VWS V14.01,2013-03-28 02:56:00,
2013-03-27 22:57:00,32.7,15.1,30.26,NW,307,8.7,8.7,48,0.00,,,0.00,VWS V14.01,2013-03-28 02:57:00,
2013-03-27 22:58:00,32.5,15.8,30.26,NW,305,8.8,8.8,50,0.00,,,0.00,VWS V14.01,2013-03-28 02:58:00,
2013-03-27 22:59:00,33.1,16.4,30.26,NW,305,10.5,10.5,50,0.00,,,0.00,VWS V14.01,2013-03-28 02:59:00,
2013-03-27 23:00:00,32.0,15.4,30.26,NW,313,7.8,10.5,50,0.00,,,0.00,VWS V14.01,2013-03-28 03:00:00,
2013-03-27 23:01:00,32.8,16.0,30.26,NNW,327,8.8,8.8,50,0.00,,,0.00,VWS V14.01,2013-03-28 03:01:00,
2013-03-27 23:02:00,32.4,15.8,30.26,NW,315,7.3,8.8,50,0.00,,,0.00,VWS V14.01,2013-03-28 03:02:00,
2013-03-27 23:03:00,32.4,15.9,30.26,NW,308,8.1,8.1,50,0.00,,,0.00,VWS V14.01,2013-03-28 03:03:00,
2013-03-27 23:04:00,32.3,15.8,30.26,WNW,296,8.0,9.2,50,0.00,,,0.00,VWS V14.01,2013-03-28 03:04:00,
2013-03-27 23:05:00,32.4,15.9,30.26,NW,306,8.1,8.1,50,0.00,,,0.00,VWS V14.01,2013-03-28 03:05:00,
2013-03-27 23:06:00,32.2,15.8,30.26,WNW,302,7.3,8.0,50,0.00,,,0.00,VWS V14.01,2013-03-28 03:06:00,
2013-03-27 23:07:00,32.2,15.8,30.26,NW,309,7.8,7.8,50,0.00,,,0.00,VWS V14.01,2013-03-28 03:07:00,
2013-03-27 23:08:00,32.1,16.0,30.26,WNW,290,8.5,8.5,51,0.00,,,0.00,VWS V14.01,2013-03-28 03:08:00,
2013-03-27 23:09:00,32.3,16.3,30.25,WNW,287,8.1,8.5,51,0.00,,,0.00,VWS V14.01,2013-03-28 03:09:00,
2013-03-27 23:10:00,31.9,16.2,30.26,WNW,290,7.6,8.1,52,0.00,,,0.00,VWS V14.01,2013-03-28 03:10:00,
2013-03-27 23:11:00,32.0,16.4,30.26,NW,305,8.0,8.0,52,0.00,,,0.00,VWS V14.01,2013-03-28 03:11:00,
2013-03-27 23:12:00,31.8,16.2,30.26,WNW,291,6.8,6.8,52,0.00,,,0.00,VWS V14.01,2013-03-28 03:12:00,
2013-03-27 23:13:00,31.8,16.1,30.26,WNW,293,7.1,7.1,52,0.00,,,0.00,VWS V14.01,2013-03-28 03:13:00,
2013-03-27 23:14:00,31.9,16.2,30.26,WNW,290,8.0,8.5,52,0.00,,,0.00,VWS V14.01,2013-03-28 03:14:00,
2013-03-27 23:15:00,31.5,15.8,30.26,WNW,301,8.1,8.8,52,0.00,,,0.00,VWS V14.01,2013-03-28 03:15:00,
2013-03-27 23:16:00,32.0,16.4,30.26,WNW,299,7.6,8.1,52,0.00,,,0.00,VWS V14.01,2013-03-28 03:16:00,
2013-03-27 23:17:00,32.4,16.8,30.26,WNW,295,9.0,9.0,52,0.00,,,0.00,VWS V14.01,2013-03-28 03:17:00,
2013-03-27 23:18:00,32.7,16.7,30.26,WNW,299,8.3,9.0,51,0.00,,,0.00,VWS V14.01,2013-03-28 03:18:00,
2013-03-27 23:19:00,32.3,16.4,30.26,WNW,297,8.0,8.3,51,0.00,,,0.00,VWS V14.01,2013-03-28 03:19:00,
2013-03-27 23:20:00,31.5,15.7,30.26,WNW,291,8.0,8.1,52,0.00,,,0.00,VWS V14.01,2013-03-28 03:20:00,
2013-03-27 23:21:00,31.8,15.4,30.26,WNW,292,7.5,7.6,50,0.00,,,0.00,VWS V14.01,2013-03-28 03:21:00,
2013-03-27 23:22:00,32.1,16.7,30.26,WNW,287,8.5,8.5,52,0.00,,,0.00,VWS V14.01,2013-03-28 03:22:00,
2013-03-27 23:23:00,32.4,16.7,30.26,WNW,299,9.2,9.2,52,0.00,,,0.00,VWS V14.01,2013-03-28 03:23:00,
2013-03-27 23:24:00,32.1,16.3,30.26,WNW,292,8.3,9.2,52,0.00,,,0.00,VWS V14.01,2013-03-28 03:24:00,
2013-03-27 23:25:00,31.8,15.9,30.27,WNW,302,9.2,9.2,51,0.00,,,0.00,VWS V14.01,2013-03-28 03:25:00,
2013-03-27 23:26:00,31.4,15.6,30.27,WNW,300,7.5,9.2,52,0.00,,,0.00,VWS V14.01,2013-03-28 03:26:00,
2013-03-27 23:27:00,32.0,16.3,30.26,WNW,302,8.0,8.0,52,0.00,,,0.00,VWS V14.01,2013-03-28 03:27:00,
2013-03-27 23:28:00,31.7,15.9,30.27,WNW,299,8.3,8.8,52,0.00,,,0.00,VWS V14.01,2013-03-28 03:28:00,
2013-03-27 23:29:00,31.6,16.4,30.26,WNW,296,7.3,8.3,53,0.00,,,0.00,VWS V14.01,2013-03-28 03:29:00,
2013-03-27 23:31:00,31.5,16.2,30.26,WNW,302,8.5,8.5,53,0.00,,,0.00,VWS V14.01,2013-03-28 03:31:00,
2013-03-27 23:32:00,31.3,16.0,30.27,WNW,299,8.0,8.5,53,0.00,,,0.00,VWS V14.01,2013-03-28 03:32:00,
2013-03-27 23:33:00,31.6,16.4,30.27,WNW,286,8.5,8.8,53,0.00,,,0.00,VWS V14.01,2013-03-28 03:33:00,
2013-03-27 23:34:00,31.6,16.5,30.26,WNW,291,9.0,9.0,53,0.00,,,0.00,VWS V14.01,2013-03-28 03:34:00,
2013-03-27 23:35:00,31.4,16.4,30.26,WNW,295,9.3,9.3,53,0.00,,,0.00,VWS V14.01,2013-03-28 03:35:00,
2013-03-27 23:36:00,31.2,16.3,30.27,NW,321,7.3,7.6,54,0.00,,,0.00,VWS V14.01,2013-03-28 03:36:00,
2013-03-27 23:37:00,31.8,16.7,30.26,NW,306,10.7,10.7,53,0.00,,,0.00,VWS V14.01,2013-03-28 03:37:00,
2013-03-27 23:38:00,32.4,17.0,30.26,NW,304,10.2,10.7,53,0.00,,,0.00,VWS V14.01,2013-03-28 03:38:00,
2013-03-27 23:39:00,31.2,15.9,30.27,WNW,287,6.3,9.3,53,0.00,,,0.00,VWS V14.01,2013-03-28 03:39:00,
2013-03-27 23:40:00,31.9,16.5,30.26,WNW,302,8.5,8.5,53,0.00,,,0.00,VWS V14.01,2013-03-28 03:40:00,
2013-03-27 23:41:00,32.3,16.8,30.27,NW,308,9.5,9.5,52,0.00,,,0.00,VWS V14.01,2013-03-28 03:41:00,
2013-03-27 23:42:00,31.2,16.0,30.27,WNW,298,7.8,9.5,53,0.00,,,0.00,VWS V14.01,2013-03-28 03:42:00,
2013-03-27 23:43:00,31.7,16.6,30.26,WNW,303,9.9,9.9,53,0.00,,,0.00,VWS V14.01,2013-03-28 03:43:00,
2013-03-27 23:44:00,31.0,15.9,30.26,WNW,294,7.6,9.9,53,0.00,,,0.00,VWS V14.01,2013-03-28 03:44:00,
2013-03-27 23:45:00,32.3,17.4,30.26,WNW,294,8.8,8.8,54,0.00,,,0.00,VWS V14.01,2013-03-28 03:45:00,
2013-03-27 23:46:00,32.7,17.2,30.26,WNW,295,11.7,11.7,52,0.00,,,0.00,VWS V14.01,2013-03-28 03:46:00,
2013-03-27 23:47:00,32.3,16.7,30.27,WNW,292,10.2,11.7,52,0.00,,,0.00,VWS V14.01,2013-03-28 03:47:00,
2013-03-27 23:48:00,31.8,16.2,30.27,WNW,302,8.3,10.2,52,0.00,,,0.00,VWS V14.01,2013-03-28 03:48:00,
2013-03-27 23:49:00,32.3,17.4,30.26,WNW,284,9.7,9.7,54,0.00,,,0.00,VWS V14.01,2013-03-28 03:49:00,
2013-03-27 23:50:00,31.9,16.8,30.26,NW,307,9.0,9.7,53,0.00,,,0.00,VWS V14.01,2013-03-28 03:50:00,
2013-03-27 23:51:00,31.2,16.3,30.28,WNW,303,7.6,9.3,53,0.00,,,0.00,VWS V14.01,2013-03-28 03:51:00,
2013-03-27 23:52:00,32.3,17.4,30.27,WNW,286,10.7,10.7,54,0.00,,,0.00,VWS V14.01,2013-03-28 03:52:00,
2013-03-27 23:53:00,31.7,16.9,30.26,NW,319,9.0,9.0,54,0.00,,,0.00,VWS V14.01,2013-03-28 03:53:00,
2013-03-27 23:54:00,31.8,17.0,30.27,NW,306,9.0,9.0,54,0.00,,,0.00,VWS V14.01,2013-03-28 03:54:00,
2013-03-27 23:55:00,31.7,17.0,30.26,WNW,292,7.8,9.0,54,0.00,,,0.00,VWS V14.01,2013-03-28 03:55:00,
2013-03-27 23:56:00,31.7,17.0,30.26,WNW,292,7.8,9.0,54,0.00,,,0.00,VWS V14.01,2013-03-28 03:56:00,
2013-03-27 23:57:00,31.0,16.3,30.26,NW,316,8.5,10.5,54,0.00,,,0.00,VWS V14.01,2013-03-28 03:57:00,
2013-03-27 23:58:00,31.5,16.8,30.26,NW,311,9.3,9.3,54,0.00,,,0.00,VWS V14.01,2013-03-28 03:58:00,
2013-03-27 23:59:00,30.8,16.2,30.27,NW,316,7.3,8.8,54,0.00,,,0.00,VWS V14.01,2013-03-28 03:59:00,